<?xml version="1.0" encoding="UTF-8" standalone="no" ?>
<gpx xmlns="http://www.topografix.com/GPX/1/1" xmlns:xsi="http://www.w3.org/2001/XMLSchema-instance" xsi:schemaLocation="http://www.topografix.com/GPX/1/1 http://www.topografix.com/GPX/1/1/gpx.xsd" version="1.1" creator="VisuGPX - https://www.visugpx.com">
  <metadata>
    <name>ENDURO DANS LE RIEUX</name>
    <desc><![CDATA[Trace très technique, certains passages demandent un engagement sans faille.
A déconseiller aux débutants...
les singles en descente sont entrecoupés de parties plus ou moins roulantes.
]]></desc>
  </metadata>
  <trk>
    <name><![CDATA[ACTIVE LOG 002]]></name>
    <trkseg>
      <trkpt lat="43.02996" lon="2.97669">
        <ele>28.015502929688</ele>
        <time>2011-02-28T13:29:29Z</time>
      </trkpt>
      <trkpt lat="43.02995" lon="2.97667">
        <ele>28.015502929688</ele>
        <time>2011-02-28T13:29:46Z</time>
      </trkpt>
      <trkpt lat="43.02995" lon="2.97662">
        <ele>28.015502929688</ele>
        <time>2011-02-28T13:29:53Z</time>
      </trkpt>
      <trkpt lat="43.02994" lon="2.97664">
        <ele>28.015502929688</ele>
        <time>2011-02-28T13:30:05Z</time>
      </trkpt>
      <trkpt lat="43.02993" lon="2.97664">
        <ele>28.015502929688</ele>
        <time>2011-02-28T13:30:06Z</time>
      </trkpt>
      <trkpt lat="43.02993" lon="2.97663">
        <ele>28.015502929688</ele>
        <time>2011-02-28T13:30:08Z</time>
      </trkpt>
      <trkpt lat="43.0299" lon="2.97662">
        <ele>28.015502929688</ele>
        <time>2011-02-28T13:30:13Z</time>
      </trkpt>
      <trkpt lat="43.03001" lon="2.97698">
        <ele>28.015502929688</ele>
        <time>2011-02-28T13:30:29Z</time>
      </trkpt>
      <trkpt lat="43.02993" lon="2.97717">
        <ele>28.015502929688</ele>
        <time>2011-02-28T13:30:33Z</time>
      </trkpt>
      <trkpt lat="43.02977" lon="2.97766">
        <ele>36.66748046875</ele>
        <time>2011-02-28T13:30:37Z</time>
      </trkpt>
      <trkpt lat="43.02975" lon="2.97787">
        <ele>37.148071289062</ele>
        <time>2011-02-28T13:30:41Z</time>
      </trkpt>
      <trkpt lat="43.02967" lon="2.97789">
        <ele>32.341552734375</ele>
        <time>2011-02-28T13:30:46Z</time>
      </trkpt>
      <trkpt lat="43.02965" lon="2.97788">
        <ele>31.860717773438</ele>
        <time>2011-02-28T13:30:47Z</time>
      </trkpt>
      <trkpt lat="43.02952" lon="2.97806">
        <ele>33.783447265625</ele>
        <time>2011-02-28T13:30:53Z</time>
      </trkpt>
      <trkpt lat="43.02947" lon="2.97817">
        <ele>35.225463867188</ele>
        <time>2011-02-28T13:30:55Z</time>
      </trkpt>
      <trkpt lat="43.02936" lon="2.97838">
        <ele>38.109375</ele>
        <time>2011-02-28T13:31:00Z</time>
      </trkpt>
      <trkpt lat="43.02916" lon="2.97838">
        <ele>37.628662109375</ele>
        <time>2011-02-28T13:31:07Z</time>
      </trkpt>
      <trkpt lat="43.02911" lon="2.97837">
        <ele>37.628662109375</ele>
        <time>2011-02-28T13:31:09Z</time>
      </trkpt>
      <trkpt lat="43.02903" lon="2.97845">
        <ele>37.628662109375</ele>
        <time>2011-02-28T13:31:14Z</time>
      </trkpt>
      <trkpt lat="43.029" lon="2.97851">
        <ele>37.628662109375</ele>
        <time>2011-02-28T13:31:16Z</time>
      </trkpt>
      <trkpt lat="43.02906" lon="2.97857">
        <ele>38.590087890625</ele>
        <time>2011-02-28T13:31:21Z</time>
      </trkpt>
      <trkpt lat="43.02911" lon="2.97861">
        <ele>38.590087890625</ele>
        <time>2011-02-28T13:31:23Z</time>
      </trkpt>
      <trkpt lat="43.02898" lon="2.97886">
        <ele>37.628662109375</ele>
        <time>2011-02-28T13:31:28Z</time>
      </trkpt>
      <trkpt lat="43.02887" lon="2.97901">
        <ele>38.590087890625</ele>
        <time>2011-02-28T13:31:31Z</time>
      </trkpt>
      <trkpt lat="43.02888" lon="2.97909">
        <ele>37.628662109375</ele>
        <time>2011-02-28T13:31:33Z</time>
      </trkpt>
      <trkpt lat="43.02879" lon="2.97947">
        <ele>36.186767578125</ele>
        <time>2011-02-28T13:31:41Z</time>
      </trkpt>
      <trkpt lat="43.02871" lon="2.9796">
        <ele>37.148071289062</ele>
        <time>2011-02-28T13:31:46Z</time>
      </trkpt>
      <trkpt lat="43.02865" lon="2.97972">
        <ele>38.109375</ele>
        <time>2011-02-28T13:31:48Z</time>
      </trkpt>
      <trkpt lat="43.0286" lon="2.97993">
        <ele>39.55126953125</ele>
        <time>2011-02-28T13:31:51Z</time>
      </trkpt>
      <trkpt lat="43.02857" lon="2.98015">
        <ele>40.512817382812</ele>
        <time>2011-02-28T13:31:54Z</time>
      </trkpt>
      <trkpt lat="43.02858" lon="2.98059">
        <ele>41.473999023438</ele>
        <time>2011-02-28T13:32:00Z</time>
      </trkpt>
      <trkpt lat="43.02861" lon="2.98097">
        <ele>41.473999023438</ele>
        <time>2011-02-28T13:32:05Z</time>
      </trkpt>
      <trkpt lat="43.0286" lon="2.98112">
        <ele>41.473999023438</ele>
        <time>2011-02-28T13:32:07Z</time>
      </trkpt>
      <trkpt lat="43.02864" lon="2.98132">
        <ele>40.512817382812</ele>
        <time>2011-02-28T13:32:11Z</time>
      </trkpt>
      <trkpt lat="43.02847" lon="2.98142">
        <ele>38.590087890625</ele>
        <time>2011-02-28T13:32:16Z</time>
      </trkpt>
      <trkpt lat="43.02812" lon="2.9814">
        <ele>35.225463867188</ele>
        <time>2011-02-28T13:32:23Z</time>
      </trkpt>
      <trkpt lat="43.02796" lon="2.98139">
        <ele>33.783447265625</ele>
        <time>2011-02-28T13:32:27Z</time>
      </trkpt>
      <trkpt lat="43.02786" lon="2.98155">
        <ele>31.380126953125</ele>
        <time>2011-02-28T13:32:32Z</time>
      </trkpt>
      <trkpt lat="43.02774" lon="2.98174">
        <ele>29.938110351562</ele>
        <time>2011-02-28T13:32:36Z</time>
      </trkpt>
      <trkpt lat="43.02761" lon="2.98187">
        <ele>28.496215820312</ele>
        <time>2011-02-28T13:32:40Z</time>
      </trkpt>
      <trkpt lat="43.02743" lon="2.98189">
        <ele>27.054321289062</ele>
        <time>2011-02-28T13:32:43Z</time>
      </trkpt>
      <trkpt lat="43.02713" lon="2.98194">
        <ele>24.651000976562</ele>
        <time>2011-02-28T13:32:48Z</time>
      </trkpt>
      <trkpt lat="43.02702" lon="2.98201">
        <ele>23.689575195312</ele>
        <time>2011-02-28T13:32:50Z</time>
      </trkpt>
      <trkpt lat="43.02685" lon="2.98226">
        <ele>18.883056640625</ele>
        <time>2011-02-28T13:32:55Z</time>
      </trkpt>
      <trkpt lat="43.02688" lon="2.98246">
        <ele>16.96044921875</ele>
        <time>2011-02-28T13:32:58Z</time>
      </trkpt>
      <trkpt lat="43.02696" lon="2.98269">
        <ele>15.9990234375</ele>
        <time>2011-02-28T13:33:02Z</time>
      </trkpt>
      <trkpt lat="43.02707" lon="2.98288">
        <ele>15.518432617188</ele>
        <time>2011-02-28T13:33:06Z</time>
      </trkpt>
      <trkpt lat="43.02707" lon="2.98295">
        <ele>15.518432617188</ele>
        <time>2011-02-28T13:33:07Z</time>
      </trkpt>
      <trkpt lat="43.027" lon="2.98345">
        <ele>14.076416015625</ele>
        <time>2011-02-28T13:33:14Z</time>
      </trkpt>
      <trkpt lat="43.02681" lon="2.9837">
        <ele>14.076416015625</ele>
        <time>2011-02-28T13:33:19Z</time>
      </trkpt>
      <trkpt lat="43.0267" lon="2.98371">
        <ele>13.595825195312</ele>
        <time>2011-02-28T13:33:21Z</time>
      </trkpt>
      <trkpt lat="43.02623" lon="2.98359">
        <ele>13.115112304688</ele>
        <time>2011-02-28T13:33:30Z</time>
      </trkpt>
      <trkpt lat="43.02573" lon="2.98347">
        <ele>10.711791992188</ele>
        <time>2011-02-28T13:33:40Z</time>
      </trkpt>
      <trkpt lat="43.02568" lon="2.98347">
        <ele>10.711791992188</ele>
        <time>2011-02-28T13:33:41Z</time>
      </trkpt>
      <trkpt lat="43.02557" lon="2.98363">
        <ele>10.231201171875</ele>
        <time>2011-02-28T13:33:45Z</time>
      </trkpt>
      <trkpt lat="43.02554" lon="2.98441">
        <ele>7.827880859375</ele>
        <time>2011-02-28T13:33:56Z</time>
      </trkpt>
      <trkpt lat="43.0255" lon="2.98519">
        <ele>5.424560546875</ele>
        <time>2011-02-28T13:34:06Z</time>
      </trkpt>
      <trkpt lat="43.02549" lon="2.98543">
        <ele>4.94384765625</ele>
        <time>2011-02-28T13:34:09Z</time>
      </trkpt>
      <trkpt lat="43.02536" lon="2.98623">
        <ele>3.501953125</ele>
        <time>2011-02-28T13:34:19Z</time>
      </trkpt>
      <trkpt lat="43.02525" lon="2.98689">
        <ele>2.06005859375</ele>
        <time>2011-02-28T13:34:28Z</time>
      </trkpt>
      <trkpt lat="43.02514" lon="2.98759">
        <ele>1.0986328125</ele>
        <time>2011-02-28T13:34:38Z</time>
      </trkpt>
      <trkpt lat="43.02502" lon="2.98822">
        <ele>-0.3433837890625</ele>
        <time>2011-02-28T13:34:47Z</time>
      </trkpt>
      <trkpt lat="43.02482" lon="2.98905">
        <ele>-1.3046875</ele>
        <time>2011-02-28T13:34:58Z</time>
      </trkpt>
      <trkpt lat="43.02468" lon="2.9895">
        <ele>-1.7852783203125</ele>
        <time>2011-02-28T13:35:04Z</time>
      </trkpt>
      <trkpt lat="43.02455" lon="2.98977">
        <ele>-1.7852783203125</ele>
        <time>2011-02-28T13:35:08Z</time>
      </trkpt>
      <trkpt lat="43.02456" lon="2.99">
        <ele>-2.2659912109375</ele>
        <time>2011-02-28T13:35:12Z</time>
      </trkpt>
      <trkpt lat="43.02474" lon="2.99007">
        <ele>-1.7852783203125</ele>
        <time>2011-02-28T13:35:16Z</time>
      </trkpt>
      <trkpt lat="43.02517" lon="2.99022">
        <ele>-1.7852783203125</ele>
        <time>2011-02-28T13:35:25Z</time>
      </trkpt>
      <trkpt lat="43.0253" lon="2.99037">
        <ele>-1.7852783203125</ele>
        <time>2011-02-28T13:35:29Z</time>
      </trkpt>
      <trkpt lat="43.0253" lon="2.99044">
        <ele>-1.7852783203125</ele>
        <time>2011-02-28T13:35:30Z</time>
      </trkpt>
      <trkpt lat="43.0252" lon="2.99083">
        <ele>-0.3433837890625</ele>
        <time>2011-02-28T13:35:36Z</time>
      </trkpt>
      <trkpt lat="43.02513" lon="2.99102">
        <ele>0.137451171875</ele>
        <time>2011-02-28T13:35:39Z</time>
      </trkpt>
      <trkpt lat="43.02484" lon="2.99148">
        <ele>3.021240234375</ele>
        <time>2011-02-28T13:35:48Z</time>
      </trkpt>
      <trkpt lat="43.02462" lon="2.99181">
        <ele>4.4632568359375</ele>
        <time>2011-02-28T13:35:56Z</time>
      </trkpt>
      <trkpt lat="43.02443" lon="2.99208">
        <ele>5.9052734375</ele>
        <time>2011-02-28T13:36:04Z</time>
      </trkpt>
      <trkpt lat="43.02408" lon="2.99237">
        <ele>5.424560546875</ele>
        <time>2011-02-28T13:36:12Z</time>
      </trkpt>
      <trkpt lat="43.02369" lon="2.9927">
        <ele>4.4632568359375</ele>
        <time>2011-02-28T13:36:19Z</time>
      </trkpt>
      <trkpt lat="43.02358" lon="2.99266">
        <ele>3.982666015625</ele>
        <time>2011-02-28T13:36:23Z</time>
      </trkpt>
      <trkpt lat="43.02366" lon="2.99257">
        <ele>3.501953125</ele>
        <time>2011-02-28T13:36:26Z</time>
      </trkpt>
      <trkpt lat="43.02391" lon="2.99235">
        <ele>3.021240234375</ele>
        <time>2011-02-28T13:36:32Z</time>
      </trkpt>
      <trkpt lat="43.02404" lon="2.99214">
        <ele>2.5406494140625</ele>
        <time>2011-02-28T13:36:36Z</time>
      </trkpt>
      <trkpt lat="43.02417" lon="2.99174">
        <ele>1.579345703125</ele>
        <time>2011-02-28T13:36:43Z</time>
      </trkpt>
      <trkpt lat="43.02415" lon="2.99138">
        <ele>2.06005859375</ele>
        <time>2011-02-28T13:36:49Z</time>
      </trkpt>
      <trkpt lat="43.02409" lon="2.99127">
        <ele>2.06005859375</ele>
        <time>2011-02-28T13:36:51Z</time>
      </trkpt>
      <trkpt lat="43.02393" lon="2.99103">
        <ele>2.5406494140625</ele>
        <time>2011-02-28T13:36:56Z</time>
      </trkpt>
      <trkpt lat="43.02373" lon="2.99076">
        <ele>3.501953125</ele>
        <time>2011-02-28T13:37:03Z</time>
      </trkpt>
      <trkpt lat="43.02355" lon="2.99052">
        <ele>4.4632568359375</ele>
        <time>2011-02-28T13:37:09Z</time>
      </trkpt>
      <trkpt lat="43.0234" lon="2.99043">
        <ele>4.94384765625</ele>
        <time>2011-02-28T13:37:13Z</time>
      </trkpt>
      <trkpt lat="43.02291" lon="2.99042">
        <ele>4.94384765625</ele>
        <time>2011-02-28T13:37:24Z</time>
      </trkpt>
      <trkpt lat="43.02257" lon="2.9905">
        <ele>5.9052734375</ele>
        <time>2011-02-28T13:37:31Z</time>
      </trkpt>
      <trkpt lat="43.0221" lon="2.99076">
        <ele>7.827880859375</ele>
        <time>2011-02-28T13:37:42Z</time>
      </trkpt>
      <trkpt lat="43.02169" lon="2.99097">
        <ele>10.711791992188</ele>
        <time>2011-02-28T13:37:52Z</time>
      </trkpt>
      <trkpt lat="43.02142" lon="2.99112">
        <ele>14.076416015625</ele>
        <time>2011-02-28T13:38:00Z</time>
      </trkpt>
      <trkpt lat="43.02128" lon="2.99123">
        <ele>16.479736328125</ele>
        <time>2011-02-28T13:38:07Z</time>
      </trkpt>
      <trkpt lat="43.02112" lon="2.99132">
        <ele>19.844360351562</ele>
        <time>2011-02-28T13:38:14Z</time>
      </trkpt>
      <trkpt lat="43.02101" lon="2.99145">
        <ele>21.766967773438</ele>
        <time>2011-02-28T13:38:20Z</time>
      </trkpt>
      <trkpt lat="43.02084" lon="2.99154">
        <ele>23.689575195312</ele>
        <time>2011-02-28T13:38:27Z</time>
      </trkpt>
      <trkpt lat="43.0208" lon="2.99155">
        <ele>23.208984375</ele>
        <time>2011-02-28T13:38:33Z</time>
      </trkpt>
      <trkpt lat="43.0208" lon="2.99154">
        <ele>23.208984375</ele>
        <time>2011-02-28T13:39:33Z</time>
      </trkpt>
      <trkpt lat="43.02077" lon="2.99155">
        <ele>22.728271484375</ele>
        <time>2011-02-28T13:40:07Z</time>
      </trkpt>
      <trkpt lat="43.02067" lon="2.99154">
        <ele>21.766967773438</ele>
        <time>2011-02-28T13:40:11Z</time>
      </trkpt>
      <trkpt lat="43.02057" lon="2.99136">
        <ele>21.766967773438</ele>
        <time>2011-02-28T13:40:17Z</time>
      </trkpt>
      <trkpt lat="43.02047" lon="2.99108">
        <ele>21.766967773438</ele>
        <time>2011-02-28T13:40:24Z</time>
      </trkpt>
      <trkpt lat="43.02043" lon="2.99076">
        <ele>21.766967773438</ele>
        <time>2011-02-28T13:40:31Z</time>
      </trkpt>
      <trkpt lat="43.02039" lon="2.99052">
        <ele>22.24755859375</ele>
        <time>2011-02-28T13:40:37Z</time>
      </trkpt>
      <trkpt lat="43.02033" lon="2.99025">
        <ele>22.728271484375</ele>
        <time>2011-02-28T13:40:43Z</time>
      </trkpt>
      <trkpt lat="43.02018" lon="2.99024">
        <ele>23.208984375</ele>
        <time>2011-02-28T13:40:49Z</time>
      </trkpt>
      <trkpt lat="43.02016" lon="2.99024">
        <ele>23.208984375</ele>
        <time>2011-02-28T13:40:50Z</time>
      </trkpt>
      <trkpt lat="43.02003" lon="2.99025">
        <ele>24.170288085938</ele>
        <time>2011-02-28T13:40:56Z</time>
      </trkpt>
      <trkpt lat="43.01999" lon="2.99018">
        <ele>24.651000976562</ele>
        <time>2011-02-28T13:41:00Z</time>
      </trkpt>
      <trkpt lat="43.01985" lon="2.99004">
        <ele>26.092895507812</ele>
        <time>2011-02-28T13:41:07Z</time>
      </trkpt>
      <trkpt lat="43.01976" lon="2.98983">
        <ele>26.092895507812</ele>
        <time>2011-02-28T13:41:14Z</time>
      </trkpt>
      <trkpt lat="43.01973" lon="2.98977">
        <ele>26.092895507812</ele>
        <time>2011-02-28T13:41:16Z</time>
      </trkpt>
      <trkpt lat="43.01967" lon="2.98954">
        <ele>26.573608398438</ele>
        <time>2011-02-28T13:41:23Z</time>
      </trkpt>
      <trkpt lat="43.01961" lon="2.98933">
        <ele>27.054321289062</ele>
        <time>2011-02-28T13:41:29Z</time>
      </trkpt>
      <trkpt lat="43.01949" lon="2.98914">
        <ele>28.496215820312</ele>
        <time>2011-02-28T13:41:36Z</time>
      </trkpt>
      <trkpt lat="43.01943" lon="2.98893">
        <ele>29.45751953125</ele>
        <time>2011-02-28T13:41:42Z</time>
      </trkpt>
      <trkpt lat="43.01941" lon="2.98863">
        <ele>30.899536132812</ele>
        <time>2011-02-28T13:41:50Z</time>
      </trkpt>
      <trkpt lat="43.01945" lon="2.98831">
        <ele>30.418823242188</ele>
        <time>2011-02-28T13:41:56Z</time>
      </trkpt>
      <trkpt lat="43.01938" lon="2.98782">
        <ele>29.45751953125</ele>
        <time>2011-02-28T13:42:05Z</time>
      </trkpt>
      <trkpt lat="43.01919" lon="2.98749">
        <ele>28.976928710938</ele>
        <time>2011-02-28T13:42:13Z</time>
      </trkpt>
      <trkpt lat="43.01898" lon="2.98721">
        <ele>29.938110351562</ele>
        <time>2011-02-28T13:42:21Z</time>
      </trkpt>
      <trkpt lat="43.01896" lon="2.98719">
        <ele>29.938110351562</ele>
        <time>2011-02-28T13:42:22Z</time>
      </trkpt>
      <trkpt lat="43.01889" lon="2.98726">
        <ele>31.380126953125</ele>
        <time>2011-02-28T13:42:28Z</time>
      </trkpt>
      <trkpt lat="43.01888" lon="2.98728">
        <ele>31.860717773438</ele>
        <time>2011-02-28T13:42:29Z</time>
      </trkpt>
      <trkpt lat="43.0188" lon="2.98743">
        <ele>34.26416015625</ele>
        <time>2011-02-28T13:42:38Z</time>
      </trkpt>
      <trkpt lat="43.0187" lon="2.98759">
        <ele>36.186767578125</ele>
        <time>2011-02-28T13:42:46Z</time>
      </trkpt>
      <trkpt lat="43.01855" lon="2.9878">
        <ele>38.590087890625</ele>
        <time>2011-02-28T13:42:57Z</time>
      </trkpt>
      <trkpt lat="43.01846" lon="2.98803">
        <ele>39.55126953125</ele>
        <time>2011-02-28T13:43:06Z</time>
      </trkpt>
      <trkpt lat="43.0185" lon="2.98836">
        <ele>40.512817382812</ele>
        <time>2011-02-28T13:43:16Z</time>
      </trkpt>
      <trkpt lat="43.01846" lon="2.98869">
        <ele>39.070678710938</ele>
        <time>2011-02-28T13:43:25Z</time>
      </trkpt>
      <trkpt lat="43.01833" lon="2.98902">
        <ele>40.032104492188</ele>
        <time>2011-02-28T13:43:35Z</time>
      </trkpt>
      <trkpt lat="43.01814" lon="2.98933">
        <ele>40.993408203125</ele>
        <time>2011-02-28T13:43:46Z</time>
      </trkpt>
      <trkpt lat="43.01792" lon="2.98961">
        <ele>40.993408203125</ele>
        <time>2011-02-28T13:43:56Z</time>
      </trkpt>
      <trkpt lat="43.01763" lon="2.98979">
        <ele>40.993408203125</ele>
        <time>2011-02-28T13:44:03Z</time>
      </trkpt>
      <trkpt lat="43.01732" lon="2.99004">
        <ele>41.473999023438</ele>
        <time>2011-02-28T13:44:09Z</time>
      </trkpt>
      <trkpt lat="43.01699" lon="2.9904">
        <ele>41.954711914062</ele>
        <time>2011-02-28T13:44:15Z</time>
      </trkpt>
      <trkpt lat="43.01657" lon="2.99094">
        <ele>42.435424804688</ele>
        <time>2011-02-28T13:44:23Z</time>
      </trkpt>
      <trkpt lat="43.01621" lon="2.9915">
        <ele>40.993408203125</ele>
        <time>2011-02-28T13:44:29Z</time>
      </trkpt>
      <trkpt lat="43.01599" lon="2.99197">
        <ele>38.109375</ele>
        <time>2011-02-28T13:44:33Z</time>
      </trkpt>
      <trkpt lat="43.01578" lon="2.99214">
        <ele>36.66748046875</ele>
        <time>2011-02-28T13:44:37Z</time>
      </trkpt>
      <trkpt lat="43.01565" lon="2.99215">
        <ele>35.7060546875</ele>
        <time>2011-02-28T13:44:39Z</time>
      </trkpt>
      <trkpt lat="43.01542" lon="2.9923">
        <ele>34.26416015625</ele>
        <time>2011-02-28T13:44:45Z</time>
      </trkpt>
      <trkpt lat="43.01531" lon="2.99259">
        <ele>33.302856445312</ele>
        <time>2011-02-28T13:44:50Z</time>
      </trkpt>
      <trkpt lat="43.01531" lon="2.99293">
        <ele>33.783447265625</ele>
        <time>2011-02-28T13:44:55Z</time>
      </trkpt>
      <trkpt lat="43.01523" lon="2.99317">
        <ele>33.302856445312</ele>
        <time>2011-02-28T13:44:59Z</time>
      </trkpt>
      <trkpt lat="43.01508" lon="2.9932">
        <ele>32.822265625</ele>
        <time>2011-02-28T13:45:02Z</time>
      </trkpt>
      <trkpt lat="43.01501" lon="2.99337">
        <ele>33.302856445312</ele>
        <time>2011-02-28T13:45:05Z</time>
      </trkpt>
      <trkpt lat="43.01504" lon="2.99349">
        <ele>33.783447265625</ele>
        <time>2011-02-28T13:45:07Z</time>
      </trkpt>
      <trkpt lat="43.01514" lon="2.99374">
        <ele>33.783447265625</ele>
        <time>2011-02-28T13:45:11Z</time>
      </trkpt>
      <trkpt lat="43.01517" lon="2.99414">
        <ele>32.822265625</ele>
        <time>2011-02-28T13:45:16Z</time>
      </trkpt>
      <trkpt lat="43.01508" lon="2.99446">
        <ele>29.938110351562</ele>
        <time>2011-02-28T13:45:21Z</time>
      </trkpt>
      <trkpt lat="43.01515" lon="2.99447">
        <ele>28.496215820312</ele>
        <time>2011-02-28T13:45:27Z</time>
      </trkpt>
      <trkpt lat="43.01523" lon="2.99446">
        <ele>28.496215820312</ele>
        <time>2011-02-28T13:45:34Z</time>
      </trkpt>
      <trkpt lat="43.01536" lon="2.99448">
        <ele>28.976928710938</ele>
        <time>2011-02-28T13:45:42Z</time>
      </trkpt>
      <trkpt lat="43.01541" lon="2.99453">
        <ele>28.976928710938</ele>
        <time>2011-02-28T13:45:45Z</time>
      </trkpt>
      <trkpt lat="43.01561" lon="2.99457">
        <ele>28.015502929688</ele>
        <time>2011-02-28T13:45:50Z</time>
      </trkpt>
      <trkpt lat="43.01568" lon="2.99467">
        <ele>26.573608398438</ele>
        <time>2011-02-28T13:45:53Z</time>
      </trkpt>
      <trkpt lat="43.01575" lon="2.99482">
        <ele>26.573608398438</ele>
        <time>2011-02-28T13:45:58Z</time>
      </trkpt>
      <trkpt lat="43.01588" lon="2.99501">
        <ele>27.534912109375</ele>
        <time>2011-02-28T13:46:05Z</time>
      </trkpt>
      <trkpt lat="43.0159" lon="2.9951">
        <ele>27.534912109375</ele>
        <time>2011-02-28T13:46:08Z</time>
      </trkpt>
      <trkpt lat="43.016" lon="2.99522">
        <ele>28.496215820312</ele>
        <time>2011-02-28T13:46:14Z</time>
      </trkpt>
      <trkpt lat="43.01606" lon="2.99534">
        <ele>28.976928710938</ele>
        <time>2011-02-28T13:46:20Z</time>
      </trkpt>
      <trkpt lat="43.0162" lon="2.99549">
        <ele>28.976928710938</ele>
        <time>2011-02-28T13:46:26Z</time>
      </trkpt>
      <trkpt lat="43.01634" lon="2.99543">
        <ele>30.418823242188</ele>
        <time>2011-02-28T13:46:31Z</time>
      </trkpt>
      <trkpt lat="43.01651" lon="2.99528">
        <ele>32.341552734375</ele>
        <time>2011-02-28T13:46:38Z</time>
      </trkpt>
      <trkpt lat="43.01672" lon="2.99507">
        <ele>35.7060546875</ele>
        <time>2011-02-28T13:46:48Z</time>
      </trkpt>
      <trkpt lat="43.01697" lon="2.99494">
        <ele>37.628662109375</ele>
        <time>2011-02-28T13:46:58Z</time>
      </trkpt>
      <trkpt lat="43.0172" lon="2.99481">
        <ele>37.628662109375</ele>
        <time>2011-02-28T13:47:05Z</time>
      </trkpt>
      <trkpt lat="43.01747" lon="2.99475">
        <ele>37.628662109375</ele>
        <time>2011-02-28T13:47:12Z</time>
      </trkpt>
      <trkpt lat="43.01763" lon="2.99484">
        <ele>36.186767578125</ele>
        <time>2011-02-28T13:47:17Z</time>
      </trkpt>
      <trkpt lat="43.01767" lon="2.99498">
        <ele>34.26416015625</ele>
        <time>2011-02-28T13:47:21Z</time>
      </trkpt>
      <trkpt lat="43.01769" lon="2.99517">
        <ele>34.26416015625</ele>
        <time>2011-02-28T13:47:25Z</time>
      </trkpt>
      <trkpt lat="43.0177" lon="2.99535">
        <ele>33.783447265625</ele>
        <time>2011-02-28T13:47:29Z</time>
      </trkpt>
      <trkpt lat="43.01775" lon="2.99565">
        <ele>34.26416015625</ele>
        <time>2011-02-28T13:47:34Z</time>
      </trkpt>
      <trkpt lat="43.01781" lon="2.99585">
        <ele>35.225463867188</ele>
        <time>2011-02-28T13:47:38Z</time>
      </trkpt>
      <trkpt lat="43.01783" lon="2.99594">
        <ele>35.7060546875</ele>
        <time>2011-02-28T13:47:40Z</time>
      </trkpt>
      <trkpt lat="43.01797" lon="2.99612">
        <ele>37.148071289062</ele>
        <time>2011-02-28T13:47:48Z</time>
      </trkpt>
      <trkpt lat="43.01803" lon="2.99634">
        <ele>38.590087890625</ele>
        <time>2011-02-28T13:47:55Z</time>
      </trkpt>
      <trkpt lat="43.01805" lon="2.99645">
        <ele>38.590087890625</ele>
        <time>2011-02-28T13:47:58Z</time>
      </trkpt>
      <trkpt lat="43.01815" lon="2.99653">
        <ele>38.590087890625</ele>
        <time>2011-02-28T13:48:04Z</time>
      </trkpt>
      <trkpt lat="43.01824" lon="2.99661">
        <ele>40.512817382812</ele>
        <time>2011-02-28T13:48:11Z</time>
      </trkpt>
      <trkpt lat="43.01828" lon="2.99665">
        <ele>41.473999023438</ele>
        <time>2011-02-28T13:48:19Z</time>
      </trkpt>
      <trkpt lat="43.01829" lon="2.99666">
        <ele>41.954711914062</ele>
        <time>2011-02-28T13:48:22Z</time>
      </trkpt>
      <trkpt lat="43.01843" lon="2.9968">
        <ele>40.512817382812</ele>
        <time>2011-02-28T13:48:26Z</time>
      </trkpt>
      <trkpt lat="43.01851" lon="2.99687">
        <ele>38.109375</ele>
        <time>2011-02-28T13:48:29Z</time>
      </trkpt>
      <trkpt lat="43.01863" lon="2.99691">
        <ele>36.186767578125</ele>
        <time>2011-02-28T13:48:34Z</time>
      </trkpt>
      <trkpt lat="43.01876" lon="2.99709">
        <ele>33.302856445312</ele>
        <time>2011-02-28T13:48:39Z</time>
      </trkpt>
      <trkpt lat="43.01885" lon="2.99725">
        <ele>30.418823242188</ele>
        <time>2011-02-28T13:48:43Z</time>
      </trkpt>
      <trkpt lat="43.01885" lon="2.99744">
        <ele>28.015502929688</ele>
        <time>2011-02-28T13:48:47Z</time>
      </trkpt>
      <trkpt lat="43.01888" lon="2.99749">
        <ele>27.534912109375</ele>
        <time>2011-02-28T13:48:48Z</time>
      </trkpt>
      <trkpt lat="43.01905" lon="2.99776">
        <ele>24.170288085938</ele>
        <time>2011-02-28T13:48:53Z</time>
      </trkpt>
      <trkpt lat="43.01912" lon="2.99799">
        <ele>21.286376953125</ele>
        <time>2011-02-28T13:48:57Z</time>
      </trkpt>
      <trkpt lat="43.01907" lon="2.99808">
        <ele>19.844360351562</ele>
        <time>2011-02-28T13:49:01Z</time>
      </trkpt>
      <trkpt lat="43.01905" lon="2.9981">
        <ele>19.36376953125</ele>
        <time>2011-02-28T13:49:02Z</time>
      </trkpt>
      <trkpt lat="43.01887" lon="2.99818">
        <ele>19.844360351562</ele>
        <time>2011-02-28T13:49:10Z</time>
      </trkpt>
      <trkpt lat="43.01874" lon="2.99826">
        <ele>20.8056640625</ele>
        <time>2011-02-28T13:49:17Z</time>
      </trkpt>
      <trkpt lat="43.01855" lon="2.99838">
        <ele>22.728271484375</ele>
        <time>2011-02-28T13:49:26Z</time>
      </trkpt>
      <trkpt lat="43.01841" lon="2.99839">
        <ele>24.651000976562</ele>
        <time>2011-02-28T13:49:33Z</time>
      </trkpt>
      <trkpt lat="43.01819" lon="2.99838">
        <ele>27.054321289062</ele>
        <time>2011-02-28T13:49:44Z</time>
      </trkpt>
      <trkpt lat="43.01804" lon="2.99841">
        <ele>28.015502929688</ele>
        <time>2011-02-28T13:49:51Z</time>
      </trkpt>
      <trkpt lat="43.01796" lon="2.99855">
        <ele>29.938110351562</ele>
        <time>2011-02-28T13:49:57Z</time>
      </trkpt>
      <trkpt lat="43.01793" lon="2.99862">
        <ele>30.418823242188</ele>
        <time>2011-02-28T13:49:59Z</time>
      </trkpt>
      <trkpt lat="43.01783" lon="2.99867">
        <ele>31.860717773438</ele>
        <time>2011-02-28T13:50:04Z</time>
      </trkpt>
      <trkpt lat="43.01771" lon="2.99857">
        <ele>32.822265625</ele>
        <time>2011-02-28T13:50:13Z</time>
      </trkpt>
      <trkpt lat="43.01767" lon="2.9986">
        <ele>33.302856445312</ele>
        <time>2011-02-28T13:50:16Z</time>
      </trkpt>
      <trkpt lat="43.01766" lon="2.99863">
        <ele>33.302856445312</ele>
        <time>2011-02-28T13:50:18Z</time>
      </trkpt>
      <trkpt lat="43.01761" lon="2.99871">
        <ele>34.744873046875</ele>
        <time>2011-02-28T13:50:23Z</time>
      </trkpt>
      <trkpt lat="43.01759" lon="2.99876">
        <ele>34.744873046875</ele>
        <time>2011-02-28T13:50:25Z</time>
      </trkpt>
      <trkpt lat="43.01753" lon="2.99899">
        <ele>35.225463867188</ele>
        <time>2011-02-28T13:50:30Z</time>
      </trkpt>
      <trkpt lat="43.01743" lon="2.99908">
        <ele>35.225463867188</ele>
        <time>2011-02-28T13:50:32Z</time>
      </trkpt>
      <trkpt lat="43.01724" lon="2.99924">
        <ele>33.302856445312</ele>
        <time>2011-02-28T13:50:38Z</time>
      </trkpt>
      <trkpt lat="43.01716" lon="2.99942">
        <ele>32.822265625</ele>
        <time>2011-02-28T13:50:42Z</time>
      </trkpt>
      <trkpt lat="43.01716" lon="2.99947">
        <ele>33.302856445312</ele>
        <time>2011-02-28T13:50:43Z</time>
      </trkpt>
      <trkpt lat="43.01714" lon="2.99978">
        <ele>33.783447265625</ele>
        <time>2011-02-28T13:50:48Z</time>
      </trkpt>
      <trkpt lat="43.01713" lon="3.00006">
        <ele>34.744873046875</ele>
        <time>2011-02-28T13:50:53Z</time>
      </trkpt>
      <trkpt lat="43.01705" lon="3.00017">
        <ele>35.225463867188</ele>
        <time>2011-02-28T13:50:57Z</time>
      </trkpt>
      <trkpt lat="43.01693" lon="3.00034">
        <ele>35.7060546875</ele>
        <time>2011-02-28T13:51:01Z</time>
      </trkpt>
      <trkpt lat="43.01681" lon="3.00049">
        <ele>35.7060546875</ele>
        <time>2011-02-28T13:51:05Z</time>
      </trkpt>
      <trkpt lat="43.01678" lon="3.00052">
        <ele>35.225463867188</ele>
        <time>2011-02-28T13:51:07Z</time>
      </trkpt>
      <trkpt lat="43.01677" lon="3.00076">
        <ele>34.744873046875</ele>
        <time>2011-02-28T13:51:12Z</time>
      </trkpt>
      <trkpt lat="43.0167" lon="3.00107">
        <ele>35.7060546875</ele>
        <time>2011-02-28T13:51:18Z</time>
      </trkpt>
      <trkpt lat="43.01663" lon="3.00129">
        <ele>35.7060546875</ele>
        <time>2011-02-28T13:51:22Z</time>
      </trkpt>
      <trkpt lat="43.01658" lon="3.00144">
        <ele>34.26416015625</ele>
        <time>2011-02-28T13:51:26Z</time>
      </trkpt>
      <trkpt lat="43.01652" lon="3.00159">
        <ele>30.418823242188</ele>
        <time>2011-02-28T13:51:30Z</time>
      </trkpt>
      <trkpt lat="43.01647" lon="3.00184">
        <ele>26.573608398438</ele>
        <time>2011-02-28T13:51:34Z</time>
      </trkpt>
      <trkpt lat="43.01646" lon="3.00211">
        <ele>24.170288085938</ele>
        <time>2011-02-28T13:51:38Z</time>
      </trkpt>
      <trkpt lat="43.01659" lon="3.0023">
        <ele>22.728271484375</ele>
        <time>2011-02-28T13:51:42Z</time>
      </trkpt>
      <trkpt lat="43.01678" lon="3.00231">
        <ele>19.36376953125</ele>
        <time>2011-02-28T13:51:47Z</time>
      </trkpt>
      <trkpt lat="43.01677" lon="3.00237">
        <ele>16.96044921875</ele>
        <time>2011-02-28T13:51:51Z</time>
      </trkpt>
      <trkpt lat="43.01672" lon="3.00241">
        <ele>16.479736328125</ele>
        <time>2011-02-28T13:51:53Z</time>
      </trkpt>
      <trkpt lat="43.0165" lon="3.00249">
        <ele>14.557006835938</ele>
        <time>2011-02-28T13:52:00Z</time>
      </trkpt>
      <trkpt lat="43.01634" lon="3.0026">
        <ele>14.076416015625</ele>
        <time>2011-02-28T13:52:07Z</time>
      </trkpt>
      <trkpt lat="43.01607" lon="3.00274">
        <ele>15.9990234375</ele>
        <time>2011-02-28T13:52:15Z</time>
      </trkpt>
      <trkpt lat="43.01568" lon="3.00296">
        <ele>15.518432617188</ele>
        <time>2011-02-28T13:52:26Z</time>
      </trkpt>
      <trkpt lat="43.01542" lon="3.0031">
        <ele>15.518432617188</ele>
        <time>2011-02-28T13:52:33Z</time>
      </trkpt>
      <trkpt lat="43.01531" lon="3.00303">
        <ele>15.518432617188</ele>
        <time>2011-02-28T13:52:37Z</time>
      </trkpt>
      <trkpt lat="43.0153" lon="3.00291">
        <ele>15.9990234375</ele>
        <time>2011-02-28T13:52:40Z</time>
      </trkpt>
      <trkpt lat="43.01537" lon="3.00264">
        <ele>17.921752929688</ele>
        <time>2011-02-28T13:52:46Z</time>
      </trkpt>
      <trkpt lat="43.01543" lon="3.00256">
        <ele>18.40234375</ele>
        <time>2011-02-28T13:52:48Z</time>
      </trkpt>
      <trkpt lat="43.01552" lon="3.00224">
        <ele>18.40234375</ele>
        <time>2011-02-28T13:52:54Z</time>
      </trkpt>
      <trkpt lat="43.01547" lon="3.00157">
        <ele>16.479736328125</ele>
        <time>2011-02-28T13:53:05Z</time>
      </trkpt>
      <trkpt lat="43.01547" lon="3.00132">
        <ele>16.96044921875</ele>
        <time>2011-02-28T13:53:09Z</time>
      </trkpt>
      <trkpt lat="43.01543" lon="3.00096">
        <ele>16.479736328125</ele>
        <time>2011-02-28T13:53:15Z</time>
      </trkpt>
      <trkpt lat="43.01541" lon="3.00084">
        <ele>15.9990234375</ele>
        <time>2011-02-28T13:53:17Z</time>
      </trkpt>
      <trkpt lat="43.01538" lon="3.00051">
        <ele>15.9990234375</ele>
        <time>2011-02-28T13:53:23Z</time>
      </trkpt>
      <trkpt lat="43.01541" lon="3.00025">
        <ele>16.479736328125</ele>
        <time>2011-02-28T13:53:28Z</time>
      </trkpt>
      <trkpt lat="43.01529" lon="3.00006">
        <ele>15.037719726562</ele>
        <time>2011-02-28T13:53:33Z</time>
      </trkpt>
      <trkpt lat="43.01522" lon="3.00005">
        <ele>15.037719726562</ele>
        <time>2011-02-28T13:53:35Z</time>
      </trkpt>
      <trkpt lat="43.01494" lon="2.99999">
        <ele>15.518432617188</ele>
        <time>2011-02-28T13:53:43Z</time>
      </trkpt>
      <trkpt lat="43.01489" lon="2.99993">
        <ele>15.9990234375</ele>
        <time>2011-02-28T13:53:45Z</time>
      </trkpt>
      <trkpt lat="43.01485" lon="2.99971">
        <ele>16.96044921875</ele>
        <time>2011-02-28T13:53:50Z</time>
      </trkpt>
      <trkpt lat="43.01483" lon="2.99947">
        <ele>18.40234375</ele>
        <time>2011-02-28T13:53:57Z</time>
      </trkpt>
      <trkpt lat="43.01475" lon="2.99926">
        <ele>15.518432617188</ele>
        <time>2011-02-28T13:54:03Z</time>
      </trkpt>
      <trkpt lat="43.0146" lon="2.99918">
        <ele>14.076416015625</ele>
        <time>2011-02-28T13:54:08Z</time>
      </trkpt>
      <trkpt lat="43.01445" lon="2.99917">
        <ele>13.595825195312</ele>
        <time>2011-02-28T13:54:12Z</time>
      </trkpt>
      <trkpt lat="43.01435" lon="2.99899">
        <ele>14.557006835938</ele>
        <time>2011-02-28T13:54:17Z</time>
      </trkpt>
      <trkpt lat="43.01426" lon="2.99867">
        <ele>14.557006835938</ele>
        <time>2011-02-28T13:54:24Z</time>
      </trkpt>
      <trkpt lat="43.01406" lon="2.99832">
        <ele>12.15380859375</ele>
        <time>2011-02-28T13:54:32Z</time>
      </trkpt>
      <trkpt lat="43.01395" lon="2.99809">
        <ele>11.673217773438</ele>
        <time>2011-02-28T13:54:39Z</time>
      </trkpt>
      <trkpt lat="43.01392" lon="2.99785">
        <ele>11.192504882812</ele>
        <time>2011-02-28T13:54:44Z</time>
      </trkpt>
      <trkpt lat="43.01393" lon="2.99763">
        <ele>11.192504882812</ele>
        <time>2011-02-28T13:54:48Z</time>
      </trkpt>
      <trkpt lat="43.01387" lon="2.99732">
        <ele>11.192504882812</ele>
        <time>2011-02-28T13:54:54Z</time>
      </trkpt>
      <trkpt lat="43.01385" lon="2.99728">
        <ele>11.192504882812</ele>
        <time>2011-02-28T13:54:55Z</time>
      </trkpt>
      <trkpt lat="43.01366" lon="2.99724">
        <ele>11.192504882812</ele>
        <time>2011-02-28T13:55:00Z</time>
      </trkpt>
      <trkpt lat="43.01351" lon="2.99712">
        <ele>11.192504882812</ele>
        <time>2011-02-28T13:55:05Z</time>
      </trkpt>
      <trkpt lat="43.01349" lon="2.99708">
        <ele>11.192504882812</ele>
        <time>2011-02-28T13:55:06Z</time>
      </trkpt>
      <trkpt lat="43.01336" lon="2.99674">
        <ele>11.673217773438</ele>
        <time>2011-02-28T13:55:13Z</time>
      </trkpt>
      <trkpt lat="43.01333" lon="2.99669">
        <ele>11.673217773438</ele>
        <time>2011-02-28T13:55:14Z</time>
      </trkpt>
      <trkpt lat="43.0133" lon="2.99658">
        <ele>11.673217773438</ele>
        <time>2011-02-28T13:55:16Z</time>
      </trkpt>
      <trkpt lat="43.01327" lon="2.99642">
        <ele>12.15380859375</ele>
        <time>2011-02-28T13:55:19Z</time>
      </trkpt>
      <trkpt lat="43.01328" lon="2.99601">
        <ele>13.595825195312</ele>
        <time>2011-02-28T13:55:26Z</time>
      </trkpt>
      <trkpt lat="43.01327" lon="2.99572">
        <ele>14.076416015625</ele>
        <time>2011-02-28T13:55:33Z</time>
      </trkpt>
      <trkpt lat="43.01319" lon="2.99556">
        <ele>13.115112304688</ele>
        <time>2011-02-28T13:55:40Z</time>
      </trkpt>
      <trkpt lat="43.01312" lon="2.99551">
        <ele>13.115112304688</ele>
        <time>2011-02-28T13:55:43Z</time>
      </trkpt>
      <trkpt lat="43.01291" lon="2.99538">
        <ele>13.595825195312</ele>
        <time>2011-02-28T13:55:51Z</time>
      </trkpt>
      <trkpt lat="43.01269" lon="2.99524">
        <ele>14.076416015625</ele>
        <time>2011-02-28T13:55:58Z</time>
      </trkpt>
      <trkpt lat="43.01254" lon="2.99501">
        <ele>15.037719726562</ele>
        <time>2011-02-28T13:56:04Z</time>
      </trkpt>
      <trkpt lat="43.01253" lon="2.99472">
        <ele>16.96044921875</ele>
        <time>2011-02-28T13:56:11Z</time>
      </trkpt>
      <trkpt lat="43.01254" lon="2.99465">
        <ele>16.96044921875</ele>
        <time>2011-02-28T13:56:13Z</time>
      </trkpt>
      <trkpt lat="43.01252" lon="2.99444">
        <ele>17.921752929688</ele>
        <time>2011-02-28T13:56:20Z</time>
      </trkpt>
      <trkpt lat="43.01245" lon="2.99418">
        <ele>19.36376953125</ele>
        <time>2011-02-28T13:56:28Z</time>
      </trkpt>
      <trkpt lat="43.01236" lon="2.99401">
        <ele>21.766967773438</ele>
        <time>2011-02-28T13:56:34Z</time>
      </trkpt>
      <trkpt lat="43.0123" lon="2.99386">
        <ele>24.170288085938</ele>
        <time>2011-02-28T13:56:40Z</time>
      </trkpt>
      <trkpt lat="43.01223" lon="2.99373">
        <ele>26.092895507812</ele>
        <time>2011-02-28T13:56:47Z</time>
      </trkpt>
      <trkpt lat="43.01221" lon="2.9937">
        <ele>26.573608398438</ele>
        <time>2011-02-28T13:56:49Z</time>
      </trkpt>
      <trkpt lat="43.01217" lon="2.99364">
        <ele>28.015502929688</ele>
        <time>2011-02-28T13:56:53Z</time>
      </trkpt>
      <trkpt lat="43.0122" lon="2.99356">
        <ele>30.899536132812</ele>
        <time>2011-02-28T13:56:58Z</time>
      </trkpt>
      <trkpt lat="43.01231" lon="2.99349">
        <ele>33.783447265625</ele>
        <time>2011-02-28T13:57:05Z</time>
      </trkpt>
      <trkpt lat="43.01233" lon="2.99347">
        <ele>35.225463867188</ele>
        <time>2011-02-28T13:57:10Z</time>
      </trkpt>
      <trkpt lat="43.01235" lon="2.99342">
        <ele>36.66748046875</ele>
        <time>2011-02-28T13:57:14Z</time>
      </trkpt>
      <trkpt lat="43.01232" lon="2.99338">
        <ele>38.109375</ele>
        <time>2011-02-28T13:57:17Z</time>
      </trkpt>
      <trkpt lat="43.01233" lon="2.99326">
        <ele>40.512817382812</ele>
        <time>2011-02-28T13:57:23Z</time>
      </trkpt>
      <trkpt lat="43.01243" lon="2.99308">
        <ele>42.916015625</ele>
        <time>2011-02-28T13:57:28Z</time>
      </trkpt>
      <trkpt lat="43.01246" lon="2.99306">
        <ele>44.838623046875</ele>
        <time>2011-02-28T13:57:31Z</time>
      </trkpt>
      <trkpt lat="43.01255" lon="2.99288">
        <ele>45.319213867188</ele>
        <time>2011-02-28T13:57:36Z</time>
      </trkpt>
      <trkpt lat="43.01271" lon="2.99272">
        <ele>44.358032226562</ele>
        <time>2011-02-28T13:57:41Z</time>
      </trkpt>
      <trkpt lat="43.01275" lon="2.99269">
        <ele>45.319213867188</ele>
        <time>2011-02-28T13:57:43Z</time>
      </trkpt>
      <trkpt lat="43.01288" lon="2.99261">
        <ele>46.76123046875</ele>
        <time>2011-02-28T13:57:50Z</time>
      </trkpt>
      <trkpt lat="43.01289" lon="2.9926">
        <ele>46.280639648438</ele>
        <time>2011-02-28T13:57:55Z</time>
      </trkpt>
      <trkpt lat="43.0129" lon="2.99261">
        <ele>45.799926757812</ele>
        <time>2011-02-28T13:58:09Z</time>
      </trkpt>
      <trkpt lat="43.0129" lon="2.99261">
        <ele>45.319213867188</ele>
        <time>2011-02-28T13:58:11Z</time>
      </trkpt>
      <trkpt lat="43.01295" lon="2.99262">
        <ele>42.916015625</ele>
        <time>2011-02-28T13:58:18Z</time>
      </trkpt>
      <trkpt lat="43.01298" lon="2.99263">
        <ele>39.070678710938</ele>
        <time>2011-02-28T13:58:29Z</time>
      </trkpt>
      <trkpt lat="43.01299" lon="2.99263">
        <ele>37.148071289062</ele>
        <time>2011-02-28T13:58:36Z</time>
      </trkpt>
      <trkpt lat="43.01297" lon="2.99263">
        <ele>34.744873046875</ele>
        <time>2011-02-28T13:58:42Z</time>
      </trkpt>
      <trkpt lat="43.01295" lon="2.99264">
        <ele>34.744873046875</ele>
        <time>2011-02-28T13:58:50Z</time>
      </trkpt>
      <trkpt lat="43.01295" lon="2.99264">
        <ele>34.744873046875</ele>
        <time>2011-02-28T13:58:51Z</time>
      </trkpt>
      <trkpt lat="43.01293" lon="2.99264">
        <ele>34.26416015625</ele>
        <time>2011-02-28T13:58:58Z</time>
      </trkpt>
      <trkpt lat="43.01293" lon="2.99262">
        <ele>34.26416015625</ele>
        <time>2011-02-28T13:59:06Z</time>
      </trkpt>
      <trkpt lat="43.0129" lon="2.9926">
        <ele>35.225463867188</ele>
        <time>2011-02-28T13:59:11Z</time>
      </trkpt>
      <trkpt lat="43.01291" lon="2.9926">
        <ele>35.225463867188</ele>
        <time>2011-02-28T13:59:13Z</time>
      </trkpt>
      <trkpt lat="43.01297" lon="2.99262">
        <ele>35.225463867188</ele>
        <time>2011-02-28T13:59:18Z</time>
      </trkpt>
      <trkpt lat="43.01311" lon="2.99265">
        <ele>26.573608398438</ele>
        <time>2011-02-28T13:59:23Z</time>
      </trkpt>
      <trkpt lat="43.01323" lon="2.99264">
        <ele>21.286376953125</ele>
        <time>2011-02-28T13:59:26Z</time>
      </trkpt>
      <trkpt lat="43.01322" lon="2.99264">
        <ele>17.441162109375</ele>
        <time>2011-02-28T13:59:31Z</time>
      </trkpt>
      <trkpt lat="43.01321" lon="2.99264">
        <ele>16.479736328125</ele>
        <time>2011-02-28T13:59:40Z</time>
      </trkpt>
      <trkpt lat="43.01321" lon="2.99264">
        <ele>16.479736328125</ele>
        <time>2011-02-28T13:59:59Z</time>
      </trkpt>
      <trkpt lat="43.01321" lon="2.99264">
        <ele>15.9990234375</ele>
        <time>2011-02-28T14:00:13Z</time>
      </trkpt>
      <trkpt lat="43.01321" lon="2.99263">
        <ele>15.037719726562</ele>
        <time>2011-02-28T14:00:24Z</time>
      </trkpt>
      <trkpt lat="43.0132" lon="2.99263">
        <ele>15.037719726562</ele>
        <time>2011-02-28T14:00:30Z</time>
      </trkpt>
      <trkpt lat="43.0132" lon="2.99263">
        <ele>14.076416015625</ele>
        <time>2011-02-28T14:00:38Z</time>
      </trkpt>
      <trkpt lat="43.01322" lon="2.99257">
        <ele>13.595825195312</ele>
        <time>2011-02-28T14:00:42Z</time>
      </trkpt>
      <trkpt lat="43.01325" lon="2.99239">
        <ele>12.634399414062</ele>
        <time>2011-02-28T14:00:48Z</time>
      </trkpt>
      <trkpt lat="43.01334" lon="2.99195">
        <ele>12.15380859375</ele>
        <time>2011-02-28T14:00:58Z</time>
      </trkpt>
      <trkpt lat="43.01334" lon="2.9917">
        <ele>12.634399414062</ele>
        <time>2011-02-28T14:01:04Z</time>
      </trkpt>
      <trkpt lat="43.0133" lon="2.99159">
        <ele>13.115112304688</ele>
        <time>2011-02-28T14:01:08Z</time>
      </trkpt>
      <trkpt lat="43.01327" lon="2.99147">
        <ele>14.557006835938</ele>
        <time>2011-02-28T14:01:12Z</time>
      </trkpt>
      <trkpt lat="43.01325" lon="2.99141">
        <ele>15.037719726562</ele>
        <time>2011-02-28T14:01:14Z</time>
      </trkpt>
      <trkpt lat="43.01316" lon="2.99142">
        <ele>16.479736328125</ele>
        <time>2011-02-28T14:01:19Z</time>
      </trkpt>
      <trkpt lat="43.01315" lon="2.99145">
        <ele>16.479736328125</ele>
        <time>2011-02-28T14:01:20Z</time>
      </trkpt>
      <trkpt lat="43.01312" lon="2.99166">
        <ele>20.324951171875</ele>
        <time>2011-02-28T14:01:28Z</time>
      </trkpt>
      <trkpt lat="43.01311" lon="2.99185">
        <ele>25.6123046875</ele>
        <time>2011-02-28T14:01:35Z</time>
      </trkpt>
      <trkpt lat="43.01306" lon="2.992">
        <ele>27.534912109375</ele>
        <time>2011-02-28T14:01:42Z</time>
      </trkpt>
      <trkpt lat="43.01302" lon="2.99215">
        <ele>29.938110351562</ele>
        <time>2011-02-28T14:01:49Z</time>
      </trkpt>
      <trkpt lat="43.01299" lon="2.99225">
        <ele>31.860717773438</ele>
        <time>2011-02-28T14:01:55Z</time>
      </trkpt>
      <trkpt lat="43.01296" lon="2.99236">
        <ele>32.822265625</ele>
        <time>2011-02-28T14:02:00Z</time>
      </trkpt>
      <trkpt lat="43.01295" lon="2.99241">
        <ele>33.302856445312</ele>
        <time>2011-02-28T14:02:02Z</time>
      </trkpt>
      <trkpt lat="43.01291" lon="2.99252">
        <ele>33.783447265625</ele>
        <time>2011-02-28T14:02:07Z</time>
      </trkpt>
      <trkpt lat="43.01288" lon="2.99257">
        <ele>34.26416015625</ele>
        <time>2011-02-28T14:02:11Z</time>
      </trkpt>
      <trkpt lat="43.01287" lon="2.99264">
        <ele>36.186767578125</ele>
        <time>2011-02-28T14:02:15Z</time>
      </trkpt>
      <trkpt lat="43.01277" lon="2.99283">
        <ele>36.66748046875</ele>
        <time>2011-02-28T14:02:23Z</time>
      </trkpt>
      <trkpt lat="43.01262" lon="2.993">
        <ele>36.186767578125</ele>
        <time>2011-02-28T14:02:30Z</time>
      </trkpt>
      <trkpt lat="43.01249" lon="2.99317">
        <ele>34.744873046875</ele>
        <time>2011-02-28T14:02:36Z</time>
      </trkpt>
      <trkpt lat="43.01237" lon="2.99331">
        <ele>33.783447265625</ele>
        <time>2011-02-28T14:02:42Z</time>
      </trkpt>
      <trkpt lat="43.01235" lon="2.99336">
        <ele>33.302856445312</ele>
        <time>2011-02-28T14:02:44Z</time>
      </trkpt>
      <trkpt lat="43.0122" lon="2.99347">
        <ele>31.860717773438</ele>
        <time>2011-02-28T14:02:49Z</time>
      </trkpt>
      <trkpt lat="43.01214" lon="2.99351">
        <ele>31.380126953125</ele>
        <time>2011-02-28T14:02:50Z</time>
      </trkpt>
      <trkpt lat="43.01203" lon="2.99377">
        <ele>31.860717773438</ele>
        <time>2011-02-28T14:02:55Z</time>
      </trkpt>
      <trkpt lat="43.01201" lon="2.99389">
        <ele>34.26416015625</ele>
        <time>2011-02-28T14:02:59Z</time>
      </trkpt>
      <trkpt lat="43.01201" lon="2.99392">
        <ele>35.225463867188</ele>
        <time>2011-02-28T14:03:01Z</time>
      </trkpt>
      <trkpt lat="43.012" lon="2.994">
        <ele>35.7060546875</ele>
        <time>2011-02-28T14:03:04Z</time>
      </trkpt>
      <trkpt lat="43.01192" lon="2.99417">
        <ele>34.744873046875</ele>
        <time>2011-02-28T14:03:09Z</time>
      </trkpt>
      <trkpt lat="43.01191" lon="2.99418">
        <ele>35.225463867188</ele>
        <time>2011-02-28T14:03:10Z</time>
      </trkpt>
      <trkpt lat="43.01189" lon="2.99424">
        <ele>34.744873046875</ele>
        <time>2011-02-28T14:03:16Z</time>
      </trkpt>
      <trkpt lat="43.01189" lon="2.99424">
        <ele>34.744873046875</ele>
        <time>2011-02-28T14:03:33Z</time>
      </trkpt>
      <trkpt lat="43.01189" lon="2.99424">
        <ele>34.744873046875</ele>
        <time>2011-02-28T14:03:55Z</time>
      </trkpt>
      <trkpt lat="43.01179" lon="2.99428">
        <ele>35.7060546875</ele>
        <time>2011-02-28T14:04:01Z</time>
      </trkpt>
      <trkpt lat="43.01173" lon="2.99431">
        <ele>36.66748046875</ele>
        <time>2011-02-28T14:04:04Z</time>
      </trkpt>
      <trkpt lat="43.01163" lon="2.99426">
        <ele>38.109375</ele>
        <time>2011-02-28T14:04:09Z</time>
      </trkpt>
      <trkpt lat="43.01163" lon="2.99413">
        <ele>39.55126953125</ele>
        <time>2011-02-28T14:04:14Z</time>
      </trkpt>
      <trkpt lat="43.01162" lon="2.99406">
        <ele>40.032104492188</ele>
        <time>2011-02-28T14:04:16Z</time>
      </trkpt>
      <trkpt lat="43.01158" lon="2.99395">
        <ele>42.435424804688</ele>
        <time>2011-02-28T14:04:23Z</time>
      </trkpt>
      <trkpt lat="43.01158" lon="2.99396">
        <ele>42.435424804688</ele>
        <time>2011-02-28T14:04:33Z</time>
      </trkpt>
      <trkpt lat="43.0116" lon="2.9938">
        <ele>43.877319335938</ele>
        <time>2011-02-28T14:04:39Z</time>
      </trkpt>
      <trkpt lat="43.01173" lon="2.9934">
        <ele>42.435424804688</ele>
        <time>2011-02-28T14:04:47Z</time>
      </trkpt>
      <trkpt lat="43.01176" lon="2.99332">
        <ele>42.916015625</ele>
        <time>2011-02-28T14:04:50Z</time>
      </trkpt>
      <trkpt lat="43.01168" lon="2.99324">
        <ele>43.877319335938</ele>
        <time>2011-02-28T14:04:57Z</time>
      </trkpt>
      <trkpt lat="43.01167" lon="2.99324">
        <ele>44.358032226562</ele>
        <time>2011-02-28T14:05:12Z</time>
      </trkpt>
      <trkpt lat="43.01171" lon="2.99325">
        <ele>43.877319335938</ele>
        <time>2011-02-28T14:05:19Z</time>
      </trkpt>
      <trkpt lat="43.01171" lon="2.99325">
        <ele>43.877319335938</ele>
        <time>2011-02-28T14:05:23Z</time>
      </trkpt>
      <trkpt lat="43.01171" lon="2.99324">
        <ele>43.877319335938</ele>
        <time>2011-02-28T14:05:25Z</time>
      </trkpt>
      <trkpt lat="43.01168" lon="2.99323">
        <ele>43.877319335938</ele>
        <time>2011-02-28T14:05:30Z</time>
      </trkpt>
      <trkpt lat="43.01167" lon="2.99323">
        <ele>43.877319335938</ele>
        <time>2011-02-28T14:05:44Z</time>
      </trkpt>
      <trkpt lat="43.0117" lon="2.99323">
        <ele>43.877319335938</ele>
        <time>2011-02-28T14:05:48Z</time>
      </trkpt>
      <trkpt lat="43.0117" lon="2.9932">
        <ele>42.916015625</ele>
        <time>2011-02-28T14:05:51Z</time>
      </trkpt>
      <trkpt lat="43.01168" lon="2.99321">
        <ele>41.954711914062</ele>
        <time>2011-02-28T14:05:58Z</time>
      </trkpt>
      <trkpt lat="43.01167" lon="2.99321">
        <ele>41.473999023438</ele>
        <time>2011-02-28T14:05:59Z</time>
      </trkpt>
      <trkpt lat="43.0117" lon="2.99326">
        <ele>41.473999023438</ele>
        <time>2011-02-28T14:06:05Z</time>
      </trkpt>
      <trkpt lat="43.01171" lon="2.99323">
        <ele>41.473999023438</ele>
        <time>2011-02-28T14:06:08Z</time>
      </trkpt>
      <trkpt lat="43.01162" lon="2.99322">
        <ele>40.512817382812</ele>
        <time>2011-02-28T14:06:15Z</time>
      </trkpt>
      <trkpt lat="43.01152" lon="2.99325">
        <ele>39.070678710938</ele>
        <time>2011-02-28T14:06:18Z</time>
      </trkpt>
      <trkpt lat="43.0115" lon="2.99321">
        <ele>37.148071289062</ele>
        <time>2011-02-28T14:06:24Z</time>
      </trkpt>
      <trkpt lat="43.01147" lon="2.99311">
        <ele>35.225463867188</ele>
        <time>2011-02-28T14:06:27Z</time>
      </trkpt>
      <trkpt lat="43.01139" lon="2.99297">
        <ele>33.302856445312</ele>
        <time>2011-02-28T14:06:32Z</time>
      </trkpt>
      <trkpt lat="43.01139" lon="2.99283">
        <ele>33.302856445312</ele>
        <time>2011-02-28T14:06:34Z</time>
      </trkpt>
      <trkpt lat="43.01139" lon="2.99249">
        <ele>31.860717773438</ele>
        <time>2011-02-28T14:06:39Z</time>
      </trkpt>
      <trkpt lat="43.0113" lon="2.99236">
        <ele>28.976928710938</ele>
        <time>2011-02-28T14:06:44Z</time>
      </trkpt>
      <trkpt lat="43.01099" lon="2.99224">
        <ele>26.573608398438</ele>
        <time>2011-02-28T14:06:53Z</time>
      </trkpt>
      <trkpt lat="43.01085" lon="2.99206">
        <ele>25.131713867188</ele>
        <time>2011-02-28T14:07:00Z</time>
      </trkpt>
      <trkpt lat="43.01086" lon="2.99187">
        <ele>24.651000976562</ele>
        <time>2011-02-28T14:07:05Z</time>
      </trkpt>
      <trkpt lat="43.01086" lon="2.99185">
        <ele>24.170288085938</ele>
        <time>2011-02-28T14:07:06Z</time>
      </trkpt>
      <trkpt lat="43.01084" lon="2.99183">
        <ele>23.689575195312</ele>
        <time>2011-02-28T14:07:08Z</time>
      </trkpt>
      <trkpt lat="43.01077" lon="2.99187">
        <ele>23.689575195312</ele>
        <time>2011-02-28T14:07:13Z</time>
      </trkpt>
      <trkpt lat="43.01066" lon="2.99205">
        <ele>25.6123046875</ele>
        <time>2011-02-28T14:07:23Z</time>
      </trkpt>
      <trkpt lat="43.01054" lon="2.99213">
        <ele>27.534912109375</ele>
        <time>2011-02-28T14:07:31Z</time>
      </trkpt>
      <trkpt lat="43.01041" lon="2.9922">
        <ele>28.976928710938</ele>
        <time>2011-02-28T14:07:40Z</time>
      </trkpt>
      <trkpt lat="43.01027" lon="2.99229">
        <ele>30.418823242188</ele>
        <time>2011-02-28T14:07:51Z</time>
      </trkpt>
      <trkpt lat="43.01017" lon="2.99237">
        <ele>32.822265625</ele>
        <time>2011-02-28T14:07:59Z</time>
      </trkpt>
      <trkpt lat="43.01011" lon="2.99248">
        <ele>36.66748046875</ele>
        <time>2011-02-28T14:08:07Z</time>
      </trkpt>
      <trkpt lat="43.01011" lon="2.9926">
        <ele>37.628662109375</ele>
        <time>2011-02-28T14:08:14Z</time>
      </trkpt>
      <trkpt lat="43.01012" lon="2.99274">
        <ele>38.109375</ele>
        <time>2011-02-28T14:08:21Z</time>
      </trkpt>
      <trkpt lat="43.01012" lon="2.99278">
        <ele>38.590087890625</ele>
        <time>2011-02-28T14:08:23Z</time>
      </trkpt>
      <trkpt lat="43.01003" lon="2.99295">
        <ele>39.55126953125</ele>
        <time>2011-02-28T14:08:34Z</time>
      </trkpt>
      <trkpt lat="43.0099" lon="2.99302">
        <ele>40.993408203125</ele>
        <time>2011-02-28T14:08:43Z</time>
      </trkpt>
      <trkpt lat="43.00977" lon="2.99308">
        <ele>42.916015625</ele>
        <time>2011-02-28T14:08:52Z</time>
      </trkpt>
      <trkpt lat="43.00961" lon="2.99315">
        <ele>46.280639648438</ele>
        <time>2011-02-28T14:09:03Z</time>
      </trkpt>
      <trkpt lat="43.00951" lon="2.99319">
        <ele>47.722534179688</ele>
        <time>2011-02-28T14:09:11Z</time>
      </trkpt>
      <trkpt lat="43.0094" lon="2.99327">
        <ele>49.645263671875</ele>
        <time>2011-02-28T14:09:19Z</time>
      </trkpt>
      <trkpt lat="43.00928" lon="2.99331">
        <ele>50.606567382812</ele>
        <time>2011-02-28T14:09:28Z</time>
      </trkpt>
      <trkpt lat="43.00923" lon="2.99334">
        <ele>51.087158203125</ele>
        <time>2011-02-28T14:09:32Z</time>
      </trkpt>
      <trkpt lat="43.00918" lon="2.99326">
        <ele>51.56787109375</ele>
        <time>2011-02-28T14:09:38Z</time>
      </trkpt>
      <trkpt lat="43.00914" lon="2.99313">
        <ele>51.56787109375</ele>
        <time>2011-02-28T14:09:44Z</time>
      </trkpt>
      <trkpt lat="43.00917" lon="2.99301">
        <ele>52.048583984375</ele>
        <time>2011-02-28T14:09:48Z</time>
      </trkpt>
      <trkpt lat="43.00919" lon="2.99295">
        <ele>52.048583984375</ele>
        <time>2011-02-28T14:09:50Z</time>
      </trkpt>
      <trkpt lat="43.00921" lon="2.99289">
        <ele>52.529174804688</ele>
        <time>2011-02-28T14:09:52Z</time>
      </trkpt>
      <trkpt lat="43.00932" lon="2.99278">
        <ele>52.048583984375</ele>
        <time>2011-02-28T14:09:58Z</time>
      </trkpt>
      <trkpt lat="43.00936" lon="2.9927">
        <ele>52.048583984375</ele>
        <time>2011-02-28T14:10:01Z</time>
      </trkpt>
      <trkpt lat="43.00939" lon="2.99264">
        <ele>52.048583984375</ele>
        <time>2011-02-28T14:10:04Z</time>
      </trkpt>
      <trkpt lat="43.0095" lon="2.99262">
        <ele>51.56787109375</ele>
        <time>2011-02-28T14:10:08Z</time>
      </trkpt>
      <trkpt lat="43.00956" lon="2.99261">
        <ele>51.087158203125</ele>
        <time>2011-02-28T14:10:11Z</time>
      </trkpt>
      <trkpt lat="43.00964" lon="2.99266">
        <ele>50.606567382812</ele>
        <time>2011-02-28T14:10:14Z</time>
      </trkpt>
      <trkpt lat="43.00978" lon="2.99269">
        <ele>50.606567382812</ele>
        <time>2011-02-28T14:10:18Z</time>
      </trkpt>
      <trkpt lat="43.00984" lon="2.99256">
        <ele>51.56787109375</ele>
        <time>2011-02-28T14:10:23Z</time>
      </trkpt>
      <trkpt lat="43.00984" lon="2.99252">
        <ele>52.048583984375</ele>
        <time>2011-02-28T14:10:24Z</time>
      </trkpt>
      <trkpt lat="43.00983" lon="2.99241">
        <ele>53.009765625</ele>
        <time>2011-02-28T14:10:27Z</time>
      </trkpt>
      <trkpt lat="43.00992" lon="2.99223">
        <ele>54.451782226562</ele>
        <time>2011-02-28T14:10:33Z</time>
      </trkpt>
      <trkpt lat="43.00997" lon="2.99217">
        <ele>54.932373046875</ele>
        <time>2011-02-28T14:10:35Z</time>
      </trkpt>
      <trkpt lat="43.01003" lon="2.99205">
        <ele>54.932373046875</ele>
        <time>2011-02-28T14:10:38Z</time>
      </trkpt>
      <trkpt lat="43.01002" lon="2.9919">
        <ele>55.893798828125</ele>
        <time>2011-02-28T14:10:43Z</time>
      </trkpt>
      <trkpt lat="43.01009" lon="2.99185">
        <ele>55.893798828125</ele>
        <time>2011-02-28T14:10:48Z</time>
      </trkpt>
      <trkpt lat="43.01014" lon="2.99186">
        <ele>55.893798828125</ele>
        <time>2011-02-28T14:10:51Z</time>
      </trkpt>
      <trkpt lat="43.01023" lon="2.99183">
        <ele>54.451782226562</ele>
        <time>2011-02-28T14:10:55Z</time>
      </trkpt>
      <trkpt lat="43.01029" lon="2.99179">
        <ele>53.009765625</ele>
        <time>2011-02-28T14:10:58Z</time>
      </trkpt>
      <trkpt lat="43.0103" lon="2.9917">
        <ele>51.087158203125</ele>
        <time>2011-02-28T14:11:02Z</time>
      </trkpt>
      <trkpt lat="43.01027" lon="2.99162">
        <ele>49.645263671875</ele>
        <time>2011-02-28T14:11:05Z</time>
      </trkpt>
      <trkpt lat="43.01026" lon="2.99155">
        <ele>46.76123046875</ele>
        <time>2011-02-28T14:11:12Z</time>
      </trkpt>
      <trkpt lat="43.01027" lon="2.99155">
        <ele>46.280639648438</ele>
        <time>2011-02-28T14:11:18Z</time>
      </trkpt>
      <trkpt lat="43.01027" lon="2.99158">
        <ele>44.838623046875</ele>
        <time>2011-02-28T14:11:23Z</time>
      </trkpt>
      <trkpt lat="43.01028" lon="2.99159">
        <ele>45.799926757812</ele>
        <time>2011-02-28T14:11:28Z</time>
      </trkpt>
      <trkpt lat="43.01029" lon="2.9916">
        <ele>44.358032226562</ele>
        <time>2011-02-28T14:11:33Z</time>
      </trkpt>
      <trkpt lat="43.01029" lon="2.9916">
        <ele>44.358032226562</ele>
        <time>2011-02-28T14:11:34Z</time>
      </trkpt>
      <trkpt lat="43.01027" lon="2.99158">
        <ele>43.877319335938</ele>
        <time>2011-02-28T14:11:36Z</time>
      </trkpt>
      <trkpt lat="43.01027" lon="2.99156">
        <ele>43.396606445312</ele>
        <time>2011-02-28T14:11:38Z</time>
      </trkpt>
      <trkpt lat="43.01039" lon="2.99151">
        <ele>38.109375</ele>
        <time>2011-02-28T14:11:45Z</time>
      </trkpt>
      <trkpt lat="43.01041" lon="2.99148">
        <ele>36.186767578125</ele>
        <time>2011-02-28T14:11:47Z</time>
      </trkpt>
      <trkpt lat="43.01046" lon="2.99146">
        <ele>32.341552734375</ele>
        <time>2011-02-28T14:11:51Z</time>
      </trkpt>
      <trkpt lat="43.01051" lon="2.99138">
        <ele>28.496215820312</ele>
        <time>2011-02-28T14:11:55Z</time>
      </trkpt>
      <trkpt lat="43.0106" lon="2.99128">
        <ele>22.728271484375</ele>
        <time>2011-02-28T14:12:00Z</time>
      </trkpt>
      <trkpt lat="43.01063" lon="2.9913">
        <ele>20.324951171875</ele>
        <time>2011-02-28T14:12:06Z</time>
      </trkpt>
      <trkpt lat="43.01063" lon="2.9913">
        <ele>20.324951171875</ele>
        <time>2011-02-28T14:12:47Z</time>
      </trkpt>
      <trkpt lat="43.01063" lon="2.99131">
        <ele>19.844360351562</ele>
        <time>2011-02-28T14:12:59Z</time>
      </trkpt>
      <trkpt lat="43.01066" lon="2.99137">
        <ele>18.883056640625</ele>
        <time>2011-02-28T14:13:08Z</time>
      </trkpt>
      <trkpt lat="43.01077" lon="2.99156">
        <ele>17.921752929688</ele>
        <time>2011-02-28T14:13:16Z</time>
      </trkpt>
      <trkpt lat="43.01087" lon="2.99167">
        <ele>18.40234375</ele>
        <time>2011-02-28T14:13:23Z</time>
      </trkpt>
      <trkpt lat="43.01088" lon="2.99168">
        <ele>17.921752929688</ele>
        <time>2011-02-28T14:13:25Z</time>
      </trkpt>
      <trkpt lat="43.01094" lon="2.99165">
        <ele>17.441162109375</ele>
        <time>2011-02-28T14:13:30Z</time>
      </trkpt>
      <trkpt lat="43.01118" lon="2.99135">
        <ele>15.9990234375</ele>
        <time>2011-02-28T14:13:40Z</time>
      </trkpt>
      <trkpt lat="43.01139" lon="2.99107">
        <ele>15.9990234375</ele>
        <time>2011-02-28T14:13:48Z</time>
      </trkpt>
      <trkpt lat="43.01158" lon="2.99083">
        <ele>16.96044921875</ele>
        <time>2011-02-28T14:13:57Z</time>
      </trkpt>
      <trkpt lat="43.01165" lon="2.99056">
        <ele>17.921752929688</ele>
        <time>2011-02-28T14:14:05Z</time>
      </trkpt>
      <trkpt lat="43.01168" lon="2.99026">
        <ele>18.883056640625</ele>
        <time>2011-02-28T14:14:13Z</time>
      </trkpt>
      <trkpt lat="43.01171" lon="2.98987">
        <ele>19.36376953125</ele>
        <time>2011-02-28T14:14:23Z</time>
      </trkpt>
      <trkpt lat="43.01178" lon="2.98941">
        <ele>19.844360351562</ele>
        <time>2011-02-28T14:14:34Z</time>
      </trkpt>
      <trkpt lat="43.0119" lon="2.98909">
        <ele>19.844360351562</ele>
        <time>2011-02-28T14:14:42Z</time>
      </trkpt>
      <trkpt lat="43.01193" lon="2.98905">
        <ele>19.36376953125</ele>
        <time>2011-02-28T14:14:43Z</time>
      </trkpt>
      <trkpt lat="43.01208" lon="2.98893">
        <ele>18.883056640625</ele>
        <time>2011-02-28T14:14:47Z</time>
      </trkpt>
      <trkpt lat="43.01225" lon="2.98883">
        <ele>18.40234375</ele>
        <time>2011-02-28T14:14:51Z</time>
      </trkpt>
      <trkpt lat="43.01245" lon="2.98867">
        <ele>18.883056640625</ele>
        <time>2011-02-28T14:14:56Z</time>
      </trkpt>
      <trkpt lat="43.01269" lon="2.98841">
        <ele>18.883056640625</ele>
        <time>2011-02-28T14:15:03Z</time>
      </trkpt>
      <trkpt lat="43.01276" lon="2.98836">
        <ele>18.883056640625</ele>
        <time>2011-02-28T14:15:05Z</time>
      </trkpt>
      <trkpt lat="43.01293" lon="2.98831">
        <ele>18.40234375</ele>
        <time>2011-02-28T14:15:09Z</time>
      </trkpt>
      <trkpt lat="43.01325" lon="2.98829">
        <ele>19.36376953125</ele>
        <time>2011-02-28T14:15:17Z</time>
      </trkpt>
      <trkpt lat="43.01356" lon="2.98823">
        <ele>21.766967773438</ele>
        <time>2011-02-28T14:15:26Z</time>
      </trkpt>
      <trkpt lat="43.01364" lon="2.9882">
        <ele>22.24755859375</ele>
        <time>2011-02-28T14:15:31Z</time>
      </trkpt>
      <trkpt lat="43.01379" lon="2.98813">
        <ele>22.728271484375</ele>
        <time>2011-02-28T14:15:37Z</time>
      </trkpt>
      <trkpt lat="43.01394" lon="2.98799">
        <ele>23.208984375</ele>
        <time>2011-02-28T14:15:44Z</time>
      </trkpt>
      <trkpt lat="43.01408" lon="2.98796">
        <ele>25.131713867188</ele>
        <time>2011-02-28T14:15:50Z</time>
      </trkpt>
      <trkpt lat="43.01424" lon="2.98801">
        <ele>26.573608398438</ele>
        <time>2011-02-28T14:15:57Z</time>
      </trkpt>
      <trkpt lat="43.01427" lon="2.98804">
        <ele>27.054321289062</ele>
        <time>2011-02-28T14:15:59Z</time>
      </trkpt>
      <trkpt lat="43.01431" lon="2.98804">
        <ele>28.015502929688</ele>
        <time>2011-02-28T14:16:02Z</time>
      </trkpt>
      <trkpt lat="43.01441" lon="2.98814">
        <ele>29.45751953125</ele>
        <time>2011-02-28T14:16:09Z</time>
      </trkpt>
      <trkpt lat="43.01461" lon="2.98832">
        <ele>29.45751953125</ele>
        <time>2011-02-28T14:16:18Z</time>
      </trkpt>
      <trkpt lat="43.01474" lon="2.98849">
        <ele>28.976928710938</ele>
        <time>2011-02-28T14:16:24Z</time>
      </trkpt>
      <trkpt lat="43.01497" lon="2.98859">
        <ele>29.45751953125</ele>
        <time>2011-02-28T14:16:31Z</time>
      </trkpt>
      <trkpt lat="43.0152" lon="2.98848">
        <ele>29.45751953125</ele>
        <time>2011-02-28T14:16:38Z</time>
      </trkpt>
      <trkpt lat="43.01556" lon="2.98814">
        <ele>30.418823242188</ele>
        <time>2011-02-28T14:16:49Z</time>
      </trkpt>
      <trkpt lat="43.01578" lon="2.98779">
        <ele>30.418823242188</ele>
        <time>2011-02-28T14:16:58Z</time>
      </trkpt>
      <trkpt lat="43.01584" lon="2.98761">
        <ele>30.418823242188</ele>
        <time>2011-02-28T14:17:01Z</time>
      </trkpt>
      <trkpt lat="43.01595" lon="2.98739">
        <ele>32.341552734375</ele>
        <time>2011-02-28T14:17:06Z</time>
      </trkpt>
      <trkpt lat="43.01602" lon="2.98735">
        <ele>31.380126953125</ele>
        <time>2011-02-28T14:17:11Z</time>
      </trkpt>
      <trkpt lat="43.01606" lon="2.98726">
        <ele>32.341552734375</ele>
        <time>2011-02-28T14:17:15Z</time>
      </trkpt>
      <trkpt lat="43.01616" lon="2.9871">
        <ele>32.822265625</ele>
        <time>2011-02-28T14:17:22Z</time>
      </trkpt>
      <trkpt lat="43.01632" lon="2.98688">
        <ele>35.225463867188</ele>
        <time>2011-02-28T14:17:30Z</time>
      </trkpt>
      <trkpt lat="43.0164" lon="2.98675">
        <ele>35.7060546875</ele>
        <time>2011-02-28T14:17:35Z</time>
      </trkpt>
      <trkpt lat="43.01635" lon="2.9866">
        <ele>35.225463867188</ele>
        <time>2011-02-28T14:17:40Z</time>
      </trkpt>
      <trkpt lat="43.01633" lon="2.98642">
        <ele>34.26416015625</ele>
        <time>2011-02-28T14:17:45Z</time>
      </trkpt>
      <trkpt lat="43.01636" lon="2.98609">
        <ele>33.783447265625</ele>
        <time>2011-02-28T14:17:52Z</time>
      </trkpt>
      <trkpt lat="43.01628" lon="2.98578">
        <ele>33.302856445312</ele>
        <time>2011-02-28T14:18:00Z</time>
      </trkpt>
      <trkpt lat="43.0161" lon="2.98557">
        <ele>32.822265625</ele>
        <time>2011-02-28T14:18:08Z</time>
      </trkpt>
      <trkpt lat="43.0158" lon="2.98523">
        <ele>32.341552734375</ele>
        <time>2011-02-28T14:18:20Z</time>
      </trkpt>
      <trkpt lat="43.01552" lon="2.98495">
        <ele>32.822265625</ele>
        <time>2011-02-28T14:18:31Z</time>
      </trkpt>
      <trkpt lat="43.01545" lon="2.98488">
        <ele>32.822265625</ele>
        <time>2011-02-28T14:18:34Z</time>
      </trkpt>
      <trkpt lat="43.01541" lon="2.98479">
        <ele>34.26416015625</ele>
        <time>2011-02-28T14:18:38Z</time>
      </trkpt>
      <trkpt lat="43.01539" lon="2.98456">
        <ele>36.66748046875</ele>
        <time>2011-02-28T14:18:47Z</time>
      </trkpt>
      <trkpt lat="43.01536" lon="2.98439">
        <ele>37.148071289062</ele>
        <time>2011-02-28T14:18:54Z</time>
      </trkpt>
      <trkpt lat="43.0153" lon="2.98424">
        <ele>38.590087890625</ele>
        <time>2011-02-28T14:19:02Z</time>
      </trkpt>
      <trkpt lat="43.01522" lon="2.98409">
        <ele>40.032104492188</ele>
        <time>2011-02-28T14:19:10Z</time>
      </trkpt>
      <trkpt lat="43.01517" lon="2.98391">
        <ele>39.55126953125</ele>
        <time>2011-02-28T14:19:17Z</time>
      </trkpt>
      <trkpt lat="43.01512" lon="2.98366">
        <ele>40.032104492188</ele>
        <time>2011-02-28T14:19:27Z</time>
      </trkpt>
      <trkpt lat="43.01507" lon="2.98349">
        <ele>40.993408203125</ele>
        <time>2011-02-28T14:19:34Z</time>
      </trkpt>
      <trkpt lat="43.01519" lon="2.98337">
        <ele>40.993408203125</ele>
        <time>2011-02-28T14:19:40Z</time>
      </trkpt>
      <trkpt lat="43.01534" lon="2.98324">
        <ele>40.512817382812</ele>
        <time>2011-02-28T14:19:45Z</time>
      </trkpt>
      <trkpt lat="43.0153" lon="2.98314">
        <ele>42.435424804688</ele>
        <time>2011-02-28T14:19:51Z</time>
      </trkpt>
      <trkpt lat="43.01527" lon="2.98315">
        <ele>43.396606445312</ele>
        <time>2011-02-28T14:19:53Z</time>
      </trkpt>
      <trkpt lat="43.01517" lon="2.98325">
        <ele>45.319213867188</ele>
        <time>2011-02-28T14:20:00Z</time>
      </trkpt>
      <trkpt lat="43.01502" lon="2.9833">
        <ele>46.280639648438</ele>
        <time>2011-02-28T14:20:07Z</time>
      </trkpt>
      <trkpt lat="43.01487" lon="2.98316">
        <ele>48.203369140625</ele>
        <time>2011-02-28T14:20:15Z</time>
      </trkpt>
      <trkpt lat="43.01484" lon="2.98312">
        <ele>48.683959960938</ele>
        <time>2011-02-28T14:20:17Z</time>
      </trkpt>
      <trkpt lat="43.01477" lon="2.98297">
        <ele>50.1259765625</ele>
        <time>2011-02-28T14:20:23Z</time>
      </trkpt>
      <trkpt lat="43.01475" lon="2.98293">
        <ele>51.087158203125</ele>
        <time>2011-02-28T14:20:25Z</time>
      </trkpt>
      <trkpt lat="43.01463" lon="2.98287">
        <ele>51.56787109375</ele>
        <time>2011-02-28T14:20:32Z</time>
      </trkpt>
      <trkpt lat="43.01449" lon="2.9827">
        <ele>51.56787109375</ele>
        <time>2011-02-28T14:20:41Z</time>
      </trkpt>
      <trkpt lat="43.01446" lon="2.98247">
        <ele>50.606567382812</ele>
        <time>2011-02-28T14:20:47Z</time>
      </trkpt>
      <trkpt lat="43.01436" lon="2.98241">
        <ele>50.1259765625</ele>
        <time>2011-02-28T14:20:54Z</time>
      </trkpt>
      <trkpt lat="43.01435" lon="2.98243">
        <ele>50.1259765625</ele>
        <time>2011-02-28T14:20:56Z</time>
      </trkpt>
      <trkpt lat="43.01436" lon="2.98252">
        <ele>51.087158203125</ele>
        <time>2011-02-28T14:21:03Z</time>
      </trkpt>
      <trkpt lat="43.01437" lon="2.98257">
        <ele>51.56787109375</ele>
        <time>2011-02-28T14:21:07Z</time>
      </trkpt>
      <trkpt lat="43.01432" lon="2.98263">
        <ele>53.009765625</ele>
        <time>2011-02-28T14:21:11Z</time>
      </trkpt>
      <trkpt lat="43.01416" lon="2.98274">
        <ele>54.932373046875</ele>
        <time>2011-02-28T14:21:20Z</time>
      </trkpt>
      <trkpt lat="43.01412" lon="2.98291">
        <ele>57.816528320312</ele>
        <time>2011-02-28T14:21:27Z</time>
      </trkpt>
      <trkpt lat="43.01409" lon="2.98307">
        <ele>58.777709960938</ele>
        <time>2011-02-28T14:21:33Z</time>
      </trkpt>
      <trkpt lat="43.01416" lon="2.9833">
        <ele>60.2197265625</ele>
        <time>2011-02-28T14:21:41Z</time>
      </trkpt>
      <trkpt lat="43.01415" lon="2.98345">
        <ele>61.181030273438</ele>
        <time>2011-02-28T14:21:46Z</time>
      </trkpt>
      <trkpt lat="43.01407" lon="2.98346">
        <ele>61.181030273438</ele>
        <time>2011-02-28T14:21:51Z</time>
      </trkpt>
      <trkpt lat="43.01405" lon="2.98346">
        <ele>61.181030273438</ele>
        <time>2011-02-28T14:21:57Z</time>
      </trkpt>
      <trkpt lat="43.01405" lon="2.98346">
        <ele>61.181030273438</ele>
        <time>2011-02-28T14:22:12Z</time>
      </trkpt>
      <trkpt lat="43.01397" lon="2.98343">
        <ele>61.181030273438</ele>
        <time>2011-02-28T14:22:17Z</time>
      </trkpt>
      <trkpt lat="43.01379" lon="2.98338">
        <ele>61.181030273438</ele>
        <time>2011-02-28T14:22:25Z</time>
      </trkpt>
      <trkpt lat="43.01359" lon="2.98331">
        <ele>62.142333984375</ele>
        <time>2011-02-28T14:22:33Z</time>
      </trkpt>
      <trkpt lat="43.01338" lon="2.98324">
        <ele>62.622924804688</ele>
        <time>2011-02-28T14:22:41Z</time>
      </trkpt>
      <trkpt lat="43.0132" lon="2.9832">
        <ele>63.103637695312</ele>
        <time>2011-02-28T14:22:48Z</time>
      </trkpt>
      <trkpt lat="43.01285" lon="2.98312">
        <ele>64.065063476562</ele>
        <time>2011-02-28T14:22:59Z</time>
      </trkpt>
      <trkpt lat="43.01252" lon="2.98303">
        <ele>64.065063476562</ele>
        <time>2011-02-28T14:23:09Z</time>
      </trkpt>
      <trkpt lat="43.01226" lon="2.98303">
        <ele>64.545654296875</ele>
        <time>2011-02-28T14:23:17Z</time>
      </trkpt>
      <trkpt lat="43.01198" lon="2.9832">
        <ele>65.507080078125</ele>
        <time>2011-02-28T14:23:26Z</time>
      </trkpt>
      <trkpt lat="43.01174" lon="2.98327">
        <ele>65.507080078125</ele>
        <time>2011-02-28T14:23:33Z</time>
      </trkpt>
      <trkpt lat="43.01166" lon="2.98325">
        <ele>65.0263671875</ele>
        <time>2011-02-28T14:23:35Z</time>
      </trkpt>
      <trkpt lat="43.01148" lon="2.98316">
        <ele>64.065063476562</ele>
        <time>2011-02-28T14:23:39Z</time>
      </trkpt>
      <trkpt lat="43.01115" lon="2.98281">
        <ele>64.545654296875</ele>
        <time>2011-02-28T14:23:48Z</time>
      </trkpt>
      <trkpt lat="43.01112" lon="2.98276">
        <ele>64.545654296875</ele>
        <time>2011-02-28T14:23:49Z</time>
      </trkpt>
      <trkpt lat="43.01077" lon="2.98248">
        <ele>65.0263671875</ele>
        <time>2011-02-28T14:23:59Z</time>
      </trkpt>
      <trkpt lat="43.01051" lon="2.98246">
        <ele>65.987670898438</ele>
        <time>2011-02-28T14:24:06Z</time>
      </trkpt>
      <trkpt lat="43.01038" lon="2.98244">
        <ele>65.0263671875</ele>
        <time>2011-02-28T14:24:13Z</time>
      </trkpt>
      <trkpt lat="43.01028" lon="2.9823">
        <ele>64.065063476562</ele>
        <time>2011-02-28T14:24:21Z</time>
      </trkpt>
      <trkpt lat="43.0102" lon="2.98204">
        <ele>64.065063476562</ele>
        <time>2011-02-28T14:24:30Z</time>
      </trkpt>
      <trkpt lat="43.01008" lon="2.98166">
        <ele>63.584350585938</ele>
        <time>2011-02-28T14:24:40Z</time>
      </trkpt>
      <trkpt lat="43.01" lon="2.98136">
        <ele>63.584350585938</ele>
        <time>2011-02-28T14:24:48Z</time>
      </trkpt>
      <trkpt lat="43.00994" lon="2.98108">
        <ele>64.545654296875</ele>
        <time>2011-02-28T14:24:56Z</time>
      </trkpt>
      <trkpt lat="43.00994" lon="2.98083">
        <ele>65.507080078125</ele>
        <time>2011-02-28T14:25:03Z</time>
      </trkpt>
      <trkpt lat="43.00998" lon="2.98061">
        <ele>66.46826171875</ele>
        <time>2011-02-28T14:25:09Z</time>
      </trkpt>
      <trkpt lat="43.01001" lon="2.98034">
        <ele>67.4296875</ele>
        <time>2011-02-28T14:25:16Z</time>
      </trkpt>
      <trkpt lat="43.01009" lon="2.98009">
        <ele>68.87158203125</ele>
        <time>2011-02-28T14:25:24Z</time>
      </trkpt>
      <trkpt lat="43.01011" lon="2.98004">
        <ele>69.352294921875</ele>
        <time>2011-02-28T14:25:26Z</time>
      </trkpt>
      <trkpt lat="43.01008" lon="2.98004">
        <ele>68.87158203125</ele>
        <time>2011-02-28T14:25:31Z</time>
      </trkpt>
      <trkpt lat="43.01008" lon="2.98006">
        <ele>68.87158203125</ele>
        <time>2011-02-28T14:25:32Z</time>
      </trkpt>
      <trkpt lat="43.01005" lon="2.98016">
        <ele>67.910278320312</ele>
        <time>2011-02-28T14:25:38Z</time>
      </trkpt>
      <trkpt lat="43.01006" lon="2.98017">
        <ele>67.4296875</ele>
        <time>2011-02-28T14:25:42Z</time>
      </trkpt>
      <trkpt lat="43.01012" lon="2.98001">
        <ele>67.910278320312</ele>
        <time>2011-02-28T14:25:48Z</time>
      </trkpt>
      <trkpt lat="43.01027" lon="2.97973">
        <ele>68.87158203125</ele>
        <time>2011-02-28T14:25:57Z</time>
      </trkpt>
      <trkpt lat="43.01041" lon="2.9794">
        <ele>69.352294921875</ele>
        <time>2011-02-28T14:26:07Z</time>
      </trkpt>
      <trkpt lat="43.01051" lon="2.97907">
        <ele>71.755493164062</ele>
        <time>2011-02-28T14:26:16Z</time>
      </trkpt>
      <trkpt lat="43.01057" lon="2.97874">
        <ele>71.755493164062</ele>
        <time>2011-02-28T14:26:25Z</time>
      </trkpt>
      <trkpt lat="43.01063" lon="2.97841">
        <ele>72.236206054688</ele>
        <time>2011-02-28T14:26:34Z</time>
      </trkpt>
      <trkpt lat="43.01081" lon="2.97792">
        <ele>72.716918945312</ele>
        <time>2011-02-28T14:26:48Z</time>
      </trkpt>
      <trkpt lat="43.01093" lon="2.9776">
        <ele>73.197631835938</ele>
        <time>2011-02-28T14:26:57Z</time>
      </trkpt>
      <trkpt lat="43.01103" lon="2.97731">
        <ele>74.639526367188</ele>
        <time>2011-02-28T14:27:06Z</time>
      </trkpt>
      <trkpt lat="43.01106" lon="2.97724">
        <ele>75.120239257812</ele>
        <time>2011-02-28T14:27:10Z</time>
      </trkpt>
      <trkpt lat="43.01122" lon="2.97728">
        <ele>74.158813476562</ele>
        <time>2011-02-28T14:27:17Z</time>
      </trkpt>
      <trkpt lat="43.01139" lon="2.97733">
        <ele>73.67822265625</ele>
        <time>2011-02-28T14:27:20Z</time>
      </trkpt>
      <trkpt lat="43.01155" lon="2.97725">
        <ele>72.716918945312</ele>
        <time>2011-02-28T14:27:24Z</time>
      </trkpt>
      <trkpt lat="43.01167" lon="2.97726">
        <ele>72.716918945312</ele>
        <time>2011-02-28T14:27:27Z</time>
      </trkpt>
      <trkpt lat="43.01184" lon="2.97737">
        <ele>71.755493164062</ele>
        <time>2011-02-28T14:27:31Z</time>
      </trkpt>
      <trkpt lat="43.01187" lon="2.97739">
        <ele>71.27490234375</ele>
        <time>2011-02-28T14:27:32Z</time>
      </trkpt>
      <trkpt lat="43.01213" lon="2.97744">
        <ele>70.3134765625</ele>
        <time>2011-02-28T14:27:38Z</time>
      </trkpt>
      <trkpt lat="43.01223" lon="2.97741">
        <ele>69.832885742188</ele>
        <time>2011-02-28T14:27:42Z</time>
      </trkpt>
      <trkpt lat="43.01232" lon="2.97739">
        <ele>70.3134765625</ele>
        <time>2011-02-28T14:27:45Z</time>
      </trkpt>
      <trkpt lat="43.01245" lon="2.97751">
        <ele>70.794189453125</ele>
        <time>2011-02-28T14:27:49Z</time>
      </trkpt>
      <trkpt lat="43.01263" lon="2.97761">
        <ele>69.352294921875</ele>
        <time>2011-02-28T14:27:53Z</time>
      </trkpt>
      <trkpt lat="43.01278" lon="2.97754">
        <ele>66.948974609375</ele>
        <time>2011-02-28T14:27:58Z</time>
      </trkpt>
      <trkpt lat="43.0128" lon="2.97755">
        <ele>66.46826171875</ele>
        <time>2011-02-28T14:27:59Z</time>
      </trkpt>
      <trkpt lat="43.01289" lon="2.9775">
        <ele>65.507080078125</ele>
        <time>2011-02-28T14:28:06Z</time>
      </trkpt>
      <trkpt lat="43.0129" lon="2.9774">
        <ele>65.507080078125</ele>
        <time>2011-02-28T14:28:10Z</time>
      </trkpt>
      <trkpt lat="43.01285" lon="2.97731">
        <ele>65.507080078125</ele>
        <time>2011-02-28T14:28:14Z</time>
      </trkpt>
      <trkpt lat="43.01294" lon="2.97722">
        <ele>65.507080078125</ele>
        <time>2011-02-28T14:28:18Z</time>
      </trkpt>
      <trkpt lat="43.013" lon="2.97724">
        <ele>65.987670898438</ele>
        <time>2011-02-28T14:28:23Z</time>
      </trkpt>
      <trkpt lat="43.01305" lon="2.97719">
        <ele>66.46826171875</ele>
        <time>2011-02-28T14:28:25Z</time>
      </trkpt>
      <trkpt lat="43.01309" lon="2.97713">
        <ele>66.948974609375</ele>
        <time>2011-02-28T14:28:27Z</time>
      </trkpt>
      <trkpt lat="43.01324" lon="2.97693">
        <ele>66.46826171875</ele>
        <time>2011-02-28T14:28:32Z</time>
      </trkpt>
      <trkpt lat="43.01329" lon="2.97688">
        <ele>65.987670898438</ele>
        <time>2011-02-28T14:28:34Z</time>
      </trkpt>
      <trkpt lat="43.01338" lon="2.9768">
        <ele>63.103637695312</ele>
        <time>2011-02-28T14:28:40Z</time>
      </trkpt>
      <trkpt lat="43.01348" lon="2.97669">
        <ele>61.661743164062</ele>
        <time>2011-02-28T14:28:45Z</time>
      </trkpt>
      <trkpt lat="43.01354" lon="2.97673">
        <ele>61.181030273438</ele>
        <time>2011-02-28T14:28:47Z</time>
      </trkpt>
      <trkpt lat="43.01384" lon="2.97702">
        <ele>58.777709960938</ele>
        <time>2011-02-28T14:28:54Z</time>
      </trkpt>
      <trkpt lat="43.01388" lon="2.97708">
        <ele>58.297119140625</ele>
        <time>2011-02-28T14:28:55Z</time>
      </trkpt>
      <trkpt lat="43.01402" lon="2.97726">
        <ele>56.855102539062</ele>
        <time>2011-02-28T14:29:00Z</time>
      </trkpt>
      <trkpt lat="43.01404" lon="2.97746">
        <ele>55.893798828125</ele>
        <time>2011-02-28T14:29:04Z</time>
      </trkpt>
      <trkpt lat="43.01406" lon="2.97769">
        <ele>54.932373046875</ele>
        <time>2011-02-28T14:29:07Z</time>
      </trkpt>
      <trkpt lat="43.01411" lon="2.97788">
        <ele>53.490478515625</ele>
        <time>2011-02-28T14:29:10Z</time>
      </trkpt>
      <trkpt lat="43.01424" lon="2.97795">
        <ele>50.606567382812</ele>
        <time>2011-02-28T14:29:14Z</time>
      </trkpt>
      <trkpt lat="43.01429" lon="2.97797">
        <ele>50.1259765625</ele>
        <time>2011-02-28T14:29:15Z</time>
      </trkpt>
      <trkpt lat="43.01454" lon="2.97803">
        <ele>46.76123046875</ele>
        <time>2011-02-28T14:29:20Z</time>
      </trkpt>
      <trkpt lat="43.01467" lon="2.97801">
        <ele>45.799926757812</ele>
        <time>2011-02-28T14:29:23Z</time>
      </trkpt>
      <trkpt lat="43.01473" lon="2.978">
        <ele>45.319213867188</ele>
        <time>2011-02-28T14:29:24Z</time>
      </trkpt>
      <trkpt lat="43.01502" lon="2.9779">
        <ele>43.396606445312</ele>
        <time>2011-02-28T14:29:29Z</time>
      </trkpt>
      <trkpt lat="43.01528" lon="2.97778">
        <ele>41.473999023438</ele>
        <time>2011-02-28T14:29:35Z</time>
      </trkpt>
      <trkpt lat="43.0154" lon="2.97748">
        <ele>40.512817382812</ele>
        <time>2011-02-28T14:29:40Z</time>
      </trkpt>
      <trkpt lat="43.01538" lon="2.97713">
        <ele>39.55126953125</ele>
        <time>2011-02-28T14:29:45Z</time>
      </trkpt>
      <trkpt lat="43.01529" lon="2.97698">
        <ele>39.55126953125</ele>
        <time>2011-02-28T14:29:49Z</time>
      </trkpt>
      <trkpt lat="43.01512" lon="2.97696">
        <ele>40.032104492188</ele>
        <time>2011-02-28T14:30:00Z</time>
      </trkpt>
      <trkpt lat="43.01501" lon="2.97692">
        <ele>40.032104492188</ele>
        <time>2011-02-28T14:30:07Z</time>
      </trkpt>
      <trkpt lat="43.01486" lon="2.97679">
        <ele>40.512817382812</ele>
        <time>2011-02-28T14:30:16Z</time>
      </trkpt>
      <trkpt lat="43.01476" lon="2.97651">
        <ele>39.55126953125</ele>
        <time>2011-02-28T14:30:23Z</time>
      </trkpt>
      <trkpt lat="43.01467" lon="2.97618">
        <ele>38.109375</ele>
        <time>2011-02-28T14:30:30Z</time>
      </trkpt>
      <trkpt lat="43.01454" lon="2.97595">
        <ele>38.109375</ele>
        <time>2011-02-28T14:30:38Z</time>
      </trkpt>
      <trkpt lat="43.01443" lon="2.97574">
        <ele>38.590087890625</ele>
        <time>2011-02-28T14:30:47Z</time>
      </trkpt>
      <trkpt lat="43.01433" lon="2.97552">
        <ele>40.032104492188</ele>
        <time>2011-02-28T14:30:56Z</time>
      </trkpt>
      <trkpt lat="43.01428" lon="2.97525">
        <ele>39.55126953125</ele>
        <time>2011-02-28T14:31:04Z</time>
      </trkpt>
      <trkpt lat="43.01427" lon="2.97498">
        <ele>40.512817382812</ele>
        <time>2011-02-28T14:31:11Z</time>
      </trkpt>
      <trkpt lat="43.01426" lon="2.97466">
        <ele>41.473999023438</ele>
        <time>2011-02-28T14:31:19Z</time>
      </trkpt>
      <trkpt lat="43.01425" lon="2.97446">
        <ele>40.512817382812</ele>
        <time>2011-02-28T14:31:24Z</time>
      </trkpt>
      <trkpt lat="43.01423" lon="2.97435">
        <ele>40.032104492188</ele>
        <time>2011-02-28T14:31:26Z</time>
      </trkpt>
      <trkpt lat="43.01415" lon="2.97395">
        <ele>39.070678710938</ele>
        <time>2011-02-28T14:31:34Z</time>
      </trkpt>
      <trkpt lat="43.01411" lon="2.97373">
        <ele>40.512817382812</ele>
        <time>2011-02-28T14:31:42Z</time>
      </trkpt>
      <trkpt lat="43.01405" lon="2.97375">
        <ele>41.473999023438</ele>
        <time>2011-02-28T14:31:48Z</time>
      </trkpt>
      <trkpt lat="43.01404" lon="2.97377">
        <ele>41.473999023438</ele>
        <time>2011-02-28T14:31:49Z</time>
      </trkpt>
      <trkpt lat="43.01396" lon="2.97392">
        <ele>42.435424804688</ele>
        <time>2011-02-28T14:31:58Z</time>
      </trkpt>
      <trkpt lat="43.01388" lon="2.97401">
        <ele>43.396606445312</ele>
        <time>2011-02-28T14:32:07Z</time>
      </trkpt>
      <trkpt lat="43.01376" lon="2.97407">
        <ele>45.319213867188</ele>
        <time>2011-02-28T14:32:17Z</time>
      </trkpt>
      <trkpt lat="43.01365" lon="2.97405">
        <ele>46.76123046875</ele>
        <time>2011-02-28T14:32:26Z</time>
      </trkpt>
      <trkpt lat="43.0135" lon="2.97403">
        <ele>49.16455078125</ele>
        <time>2011-02-28T14:32:36Z</time>
      </trkpt>
      <trkpt lat="43.01339" lon="2.97402">
        <ele>50.606567382812</ele>
        <time>2011-02-28T14:32:43Z</time>
      </trkpt>
      <trkpt lat="43.01336" lon="2.97403">
        <ele>51.087158203125</ele>
        <time>2011-02-28T14:32:45Z</time>
      </trkpt>
      <trkpt lat="43.01331" lon="2.97402">
        <ele>52.048583984375</ele>
        <time>2011-02-28T14:32:49Z</time>
      </trkpt>
      <trkpt lat="43.01327" lon="2.974">
        <ele>53.009765625</ele>
        <time>2011-02-28T14:32:52Z</time>
      </trkpt>
      <trkpt lat="43.01323" lon="2.97404">
        <ele>53.490478515625</ele>
        <time>2011-02-28T14:32:56Z</time>
      </trkpt>
      <trkpt lat="43.01314" lon="2.97412">
        <ele>54.932373046875</ele>
        <time>2011-02-28T14:33:03Z</time>
      </trkpt>
      <trkpt lat="43.01308" lon="2.97408">
        <ele>56.37451171875</ele>
        <time>2011-02-28T14:33:08Z</time>
      </trkpt>
      <trkpt lat="43.01304" lon="2.97405">
        <ele>56.855102539062</ele>
        <time>2011-02-28T14:33:11Z</time>
      </trkpt>
      <trkpt lat="43.01294" lon="2.97394">
        <ele>58.297119140625</ele>
        <time>2011-02-28T14:33:19Z</time>
      </trkpt>
      <trkpt lat="43.01287" lon="2.97386">
        <ele>59.258422851562</ele>
        <time>2011-02-28T14:33:25Z</time>
      </trkpt>
      <trkpt lat="43.01282" lon="2.9738">
        <ele>60.2197265625</ele>
        <time>2011-02-28T14:33:32Z</time>
      </trkpt>
      <trkpt lat="43.01282" lon="2.97381">
        <ele>61.181030273438</ele>
        <time>2011-02-28T14:33:42Z</time>
      </trkpt>
      <trkpt lat="43.01281" lon="2.9738">
        <ele>61.181030273438</ele>
        <time>2011-02-28T14:33:52Z</time>
      </trkpt>
      <trkpt lat="43.01281" lon="2.97372">
        <ele>61.181030273438</ele>
        <time>2011-02-28T14:33:56Z</time>
      </trkpt>
      <trkpt lat="43.01277" lon="2.97355">
        <ele>61.661743164062</ele>
        <time>2011-02-28T14:34:03Z</time>
      </trkpt>
      <trkpt lat="43.01273" lon="2.9733">
        <ele>62.142333984375</ele>
        <time>2011-02-28T14:34:13Z</time>
      </trkpt>
      <trkpt lat="43.01266" lon="2.97314">
        <ele>62.142333984375</ele>
        <time>2011-02-28T14:34:20Z</time>
      </trkpt>
      <trkpt lat="43.01266" lon="2.97291">
        <ele>63.103637695312</ele>
        <time>2011-02-28T14:34:28Z</time>
      </trkpt>
      <trkpt lat="43.0127" lon="2.97273">
        <ele>62.622924804688</ele>
        <time>2011-02-28T14:34:33Z</time>
      </trkpt>
      <trkpt lat="43.01266" lon="2.97266">
        <ele>62.622924804688</ele>
        <time>2011-02-28T14:34:36Z</time>
      </trkpt>
      <trkpt lat="43.01261" lon="2.97258">
        <ele>63.103637695312</ele>
        <time>2011-02-28T14:34:39Z</time>
      </trkpt>
      <trkpt lat="43.01244" lon="2.97248">
        <ele>64.545654296875</ele>
        <time>2011-02-28T14:34:46Z</time>
      </trkpt>
      <trkpt lat="43.0124" lon="2.97248">
        <ele>65.507080078125</ele>
        <time>2011-02-28T14:34:48Z</time>
      </trkpt>
      <trkpt lat="43.01231" lon="2.97234">
        <ele>66.46826171875</ele>
        <time>2011-02-28T14:34:54Z</time>
      </trkpt>
      <trkpt lat="43.0123" lon="2.97222">
        <ele>67.4296875</ele>
        <time>2011-02-28T14:34:57Z</time>
      </trkpt>
      <trkpt lat="43.0122" lon="2.97214">
        <ele>66.948974609375</ele>
        <time>2011-02-28T14:35:02Z</time>
      </trkpt>
      <trkpt lat="43.01199" lon="2.97208">
        <ele>68.87158203125</ele>
        <time>2011-02-28T14:35:10Z</time>
      </trkpt>
      <trkpt lat="43.01185" lon="2.97205">
        <ele>70.3134765625</ele>
        <time>2011-02-28T14:35:16Z</time>
      </trkpt>
      <trkpt lat="43.01178" lon="2.97196">
        <ele>70.3134765625</ele>
        <time>2011-02-28T14:35:23Z</time>
      </trkpt>
      <trkpt lat="43.01177" lon="2.97195">
        <ele>70.3134765625</ele>
        <time>2011-02-28T14:35:30Z</time>
      </trkpt>
      <trkpt lat="43.01177" lon="2.97195">
        <ele>70.3134765625</ele>
        <time>2011-02-28T14:35:45Z</time>
      </trkpt>
      <trkpt lat="43.01173" lon="2.97187">
        <ele>70.794189453125</ele>
        <time>2011-02-28T14:35:50Z</time>
      </trkpt>
      <trkpt lat="43.01161" lon="2.9718">
        <ele>70.3134765625</ele>
        <time>2011-02-28T14:35:56Z</time>
      </trkpt>
      <trkpt lat="43.01146" lon="2.97173">
        <ele>70.3134765625</ele>
        <time>2011-02-28T14:36:03Z</time>
      </trkpt>
      <trkpt lat="43.01125" lon="2.97168">
        <ele>71.27490234375</ele>
        <time>2011-02-28T14:36:12Z</time>
      </trkpt>
      <trkpt lat="43.01115" lon="2.97164">
        <ele>72.236206054688</ele>
        <time>2011-02-28T14:36:18Z</time>
      </trkpt>
      <trkpt lat="43.01094" lon="2.97169">
        <ele>72.236206054688</ele>
        <time>2011-02-28T14:36:28Z</time>
      </trkpt>
      <trkpt lat="43.01071" lon="2.97183">
        <ele>73.197631835938</ele>
        <time>2011-02-28T14:36:38Z</time>
      </trkpt>
      <trkpt lat="43.01051" lon="2.97202">
        <ele>76.081420898438</ele>
        <time>2011-02-28T14:36:47Z</time>
      </trkpt>
      <trkpt lat="43.01045" lon="2.97223">
        <ele>77.042846679688</ele>
        <time>2011-02-28T14:36:53Z</time>
      </trkpt>
      <trkpt lat="43.01039" lon="2.97257">
        <ele>78.004028320312</ele>
        <time>2011-02-28T14:37:02Z</time>
      </trkpt>
      <trkpt lat="43.01038" lon="2.97291">
        <ele>78.965454101562</ele>
        <time>2011-02-28T14:37:11Z</time>
      </trkpt>
      <trkpt lat="43.01033" lon="2.97333">
        <ele>80.88818359375</ele>
        <time>2011-02-28T14:37:21Z</time>
      </trkpt>
      <trkpt lat="43.01026" lon="2.97382">
        <ele>83.291381835938</ele>
        <time>2011-02-28T14:37:32Z</time>
      </trkpt>
      <trkpt lat="43.01017" lon="2.97414">
        <ele>84.252685546875</ele>
        <time>2011-02-28T14:37:40Z</time>
      </trkpt>
      <trkpt lat="43.00999" lon="2.97447">
        <ele>85.694580078125</ele>
        <time>2011-02-28T14:37:49Z</time>
      </trkpt>
      <trkpt lat="43.00986" lon="2.97466">
        <ele>87.136596679688</ele>
        <time>2011-02-28T14:37:56Z</time>
      </trkpt>
      <trkpt lat="43.00988" lon="2.97473">
        <ele>87.6171875</ele>
        <time>2011-02-28T14:38:00Z</time>
      </trkpt>
      <trkpt lat="43.01" lon="2.9745">
        <ele>86.656005859375</ele>
        <time>2011-02-28T14:38:08Z</time>
      </trkpt>
      <trkpt lat="43.01007" lon="2.97439">
        <ele>86.656005859375</ele>
        <time>2011-02-28T14:38:12Z</time>
      </trkpt>
      <trkpt lat="43.01008" lon="2.97434">
        <ele>86.656005859375</ele>
        <time>2011-02-28T14:38:16Z</time>
      </trkpt>
      <trkpt lat="43.01003" lon="2.97442">
        <ele>87.136596679688</ele>
        <time>2011-02-28T14:38:20Z</time>
      </trkpt>
      <trkpt lat="43.00989" lon="2.9747">
        <ele>88.578735351562</ele>
        <time>2011-02-28T14:38:30Z</time>
      </trkpt>
      <trkpt lat="43.00979" lon="2.97499">
        <ele>88.578735351562</ele>
        <time>2011-02-28T14:38:39Z</time>
      </trkpt>
      <trkpt lat="43.00968" lon="2.97534">
        <ele>89.539916992188</ele>
        <time>2011-02-28T14:38:49Z</time>
      </trkpt>
      <trkpt lat="43.00966" lon="2.97537">
        <ele>89.539916992188</ele>
        <time>2011-02-28T14:38:50Z</time>
      </trkpt>
      <trkpt lat="43.00947" lon="2.97542">
        <ele>90.020629882812</ele>
        <time>2011-02-28T14:38:57Z</time>
      </trkpt>
      <trkpt lat="43.0094" lon="2.97547">
        <ele>90.501342773438</ele>
        <time>2011-02-28T14:39:00Z</time>
      </trkpt>
      <trkpt lat="43.00931" lon="2.97563">
        <ele>90.98193359375</ele>
        <time>2011-02-28T14:39:05Z</time>
      </trkpt>
      <trkpt lat="43.00925" lon="2.97584">
        <ele>91.462524414062</ele>
        <time>2011-02-28T14:39:10Z</time>
      </trkpt>
      <trkpt lat="43.00918" lon="2.97603">
        <ele>90.98193359375</ele>
        <time>2011-02-28T14:39:14Z</time>
      </trkpt>
      <trkpt lat="43.00911" lon="2.97626">
        <ele>90.98193359375</ele>
        <time>2011-02-28T14:39:20Z</time>
      </trkpt>
      <trkpt lat="43.0091" lon="2.97631">
        <ele>90.98193359375</ele>
        <time>2011-02-28T14:39:21Z</time>
      </trkpt>
      <trkpt lat="43.00895" lon="2.97667">
        <ele>91.462524414062</ele>
        <time>2011-02-28T14:39:29Z</time>
      </trkpt>
      <trkpt lat="43.00887" lon="2.97676">
        <ele>91.462524414062</ele>
        <time>2011-02-28T14:39:32Z</time>
      </trkpt>
      <trkpt lat="43.00872" lon="2.97669">
        <ele>91.943237304688</ele>
        <time>2011-02-28T14:39:37Z</time>
      </trkpt>
      <trkpt lat="43.00861" lon="2.97684">
        <ele>93.385131835938</ele>
        <time>2011-02-28T14:39:42Z</time>
      </trkpt>
      <trkpt lat="43.00847" lon="2.97704">
        <ele>93.385131835938</ele>
        <time>2011-02-28T14:39:47Z</time>
      </trkpt>
      <trkpt lat="43.00834" lon="2.97718">
        <ele>94.346557617188</ele>
        <time>2011-02-28T14:39:52Z</time>
      </trkpt>
      <trkpt lat="43.00827" lon="2.97728">
        <ele>94.8271484375</ele>
        <time>2011-02-28T14:39:56Z</time>
      </trkpt>
      <trkpt lat="43.00827" lon="2.97728">
        <ele>95.307739257812</ele>
        <time>2011-02-28T14:40:12Z</time>
      </trkpt>
      <trkpt lat="43.00825" lon="2.97734">
        <ele>94.8271484375</ele>
        <time>2011-02-28T14:40:18Z</time>
      </trkpt>
      <trkpt lat="43.00818" lon="2.97756">
        <ele>95.307739257812</ele>
        <time>2011-02-28T14:40:25Z</time>
      </trkpt>
      <trkpt lat="43.00807" lon="2.97773">
        <ele>95.307739257812</ele>
        <time>2011-02-28T14:40:31Z</time>
      </trkpt>
      <trkpt lat="43.00799" lon="2.97786">
        <ele>95.307739257812</ele>
        <time>2011-02-28T14:40:35Z</time>
      </trkpt>
      <trkpt lat="43.00791" lon="2.97791">
        <ele>95.307739257812</ele>
        <time>2011-02-28T14:40:39Z</time>
      </trkpt>
      <trkpt lat="43.0079" lon="2.97793">
        <ele>95.307739257812</ele>
        <time>2011-02-28T14:40:40Z</time>
      </trkpt>
      <trkpt lat="43.00781" lon="2.97812">
        <ele>94.346557617188</ele>
        <time>2011-02-28T14:40:46Z</time>
      </trkpt>
      <trkpt lat="43.00769" lon="2.97825">
        <ele>94.346557617188</ele>
        <time>2011-02-28T14:40:51Z</time>
      </trkpt>
      <trkpt lat="43.00771" lon="2.97837">
        <ele>93.865844726562</ele>
        <time>2011-02-28T14:40:55Z</time>
      </trkpt>
      <trkpt lat="43.0079" lon="2.97852">
        <ele>92.904541015625</ele>
        <time>2011-02-28T14:41:02Z</time>
      </trkpt>
      <trkpt lat="43.00788" lon="2.97869">
        <ele>91.462524414062</ele>
        <time>2011-02-28T14:41:08Z</time>
      </trkpt>
      <trkpt lat="43.00775" lon="2.97887">
        <ele>88.098022460938</ele>
        <time>2011-02-28T14:41:14Z</time>
      </trkpt>
      <trkpt lat="43.00774" lon="2.9789">
        <ele>87.6171875</ele>
        <time>2011-02-28T14:41:15Z</time>
      </trkpt>
      <trkpt lat="43.00771" lon="2.97919">
        <ele>81.849365234375</ele>
        <time>2011-02-28T14:41:20Z</time>
      </trkpt>
      <trkpt lat="43.00772" lon="2.9794">
        <ele>77.5234375</ele>
        <time>2011-02-28T14:41:23Z</time>
      </trkpt>
      <trkpt lat="43.00775" lon="2.97968">
        <ele>70.794189453125</ele>
        <time>2011-02-28T14:41:27Z</time>
      </trkpt>
      <trkpt lat="43.00782" lon="2.98005">
        <ele>64.065063476562</ele>
        <time>2011-02-28T14:41:32Z</time>
      </trkpt>
      <trkpt lat="43.0078" lon="2.98021">
        <ele>61.181030273438</ele>
        <time>2011-02-28T14:41:34Z</time>
      </trkpt>
      <trkpt lat="43.00771" lon="2.98039">
        <ele>55.893798828125</ele>
        <time>2011-02-28T14:41:38Z</time>
      </trkpt>
      <trkpt lat="43.00755" lon="2.98062">
        <ele>52.048583984375</ele>
        <time>2011-02-28T14:41:42Z</time>
      </trkpt>
      <trkpt lat="43.00748" lon="2.98081">
        <ele>49.645263671875</ele>
        <time>2011-02-28T14:41:45Z</time>
      </trkpt>
      <trkpt lat="43.00746" lon="2.98096">
        <ele>48.203369140625</ele>
        <time>2011-02-28T14:41:47Z</time>
      </trkpt>
      <trkpt lat="43.00739" lon="2.98113">
        <ele>45.319213867188</ele>
        <time>2011-02-28T14:41:52Z</time>
      </trkpt>
      <trkpt lat="43.00736" lon="2.98128">
        <ele>41.954711914062</ele>
        <time>2011-02-28T14:41:57Z</time>
      </trkpt>
      <trkpt lat="43.00737" lon="2.98139">
        <ele>39.55126953125</ele>
        <time>2011-02-28T14:42:00Z</time>
      </trkpt>
      <trkpt lat="43.00745" lon="2.98142">
        <ele>37.628662109375</ele>
        <time>2011-02-28T14:42:04Z</time>
      </trkpt>
      <trkpt lat="43.00755" lon="2.98142">
        <ele>35.225463867188</ele>
        <time>2011-02-28T14:42:07Z</time>
      </trkpt>
      <trkpt lat="43.00758" lon="2.98141">
        <ele>34.26416015625</ele>
        <time>2011-02-28T14:42:09Z</time>
      </trkpt>
      <trkpt lat="43.00765" lon="2.98146">
        <ele>30.899536132812</ele>
        <time>2011-02-28T14:42:16Z</time>
      </trkpt>
      <trkpt lat="43.00764" lon="2.98146">
        <ele>29.938110351562</ele>
        <time>2011-02-28T14:42:22Z</time>
      </trkpt>
      <trkpt lat="43.00764" lon="2.98146">
        <ele>29.45751953125</ele>
        <time>2011-02-28T14:42:26Z</time>
      </trkpt>
      <trkpt lat="43.00762" lon="2.98148">
        <ele>29.45751953125</ele>
        <time>2011-02-28T14:42:28Z</time>
      </trkpt>
      <trkpt lat="43.00751" lon="2.98161">
        <ele>28.496215820312</ele>
        <time>2011-02-28T14:42:34Z</time>
      </trkpt>
      <trkpt lat="43.00746" lon="2.98172">
        <ele>28.496215820312</ele>
        <time>2011-02-28T14:42:39Z</time>
      </trkpt>
      <trkpt lat="43.00736" lon="2.98174">
        <ele>28.015502929688</ele>
        <time>2011-02-28T14:42:43Z</time>
      </trkpt>
      <trkpt lat="43.00728" lon="2.98176">
        <ele>27.534912109375</ele>
        <time>2011-02-28T14:42:47Z</time>
      </trkpt>
      <trkpt lat="43.00733" lon="2.9819">
        <ele>27.054321289062</ele>
        <time>2011-02-28T14:42:51Z</time>
      </trkpt>
      <trkpt lat="43.00742" lon="2.98205">
        <ele>28.015502929688</ele>
        <time>2011-02-28T14:42:57Z</time>
      </trkpt>
      <trkpt lat="43.00742" lon="2.98226">
        <ele>28.496215820312</ele>
        <time>2011-02-28T14:43:02Z</time>
      </trkpt>
      <trkpt lat="43.00743" lon="2.9824">
        <ele>28.976928710938</ele>
        <time>2011-02-28T14:43:05Z</time>
      </trkpt>
      <trkpt lat="43.00747" lon="2.98261">
        <ele>30.418823242188</ele>
        <time>2011-02-28T14:43:10Z</time>
      </trkpt>
      <trkpt lat="43.00759" lon="2.98266">
        <ele>31.380126953125</ele>
        <time>2011-02-28T14:43:14Z</time>
      </trkpt>
      <trkpt lat="43.00766" lon="2.98268">
        <ele>32.341552734375</ele>
        <time>2011-02-28T14:43:16Z</time>
      </trkpt>
      <trkpt lat="43.00771" lon="2.9827">
        <ele>33.302856445312</ele>
        <time>2011-02-28T14:43:18Z</time>
      </trkpt>
      <trkpt lat="43.00777" lon="2.98285">
        <ele>33.783447265625</ele>
        <time>2011-02-28T14:43:22Z</time>
      </trkpt>
      <trkpt lat="43.00779" lon="2.98298">
        <ele>34.744873046875</ele>
        <time>2011-02-28T14:43:27Z</time>
      </trkpt>
      <trkpt lat="43.00784" lon="2.98301">
        <ele>35.7060546875</ele>
        <time>2011-02-28T14:43:30Z</time>
      </trkpt>
      <trkpt lat="43.0079" lon="2.98317">
        <ele>38.109375</ele>
        <time>2011-02-28T14:43:35Z</time>
      </trkpt>
      <trkpt lat="43.00791" lon="2.98342">
        <ele>38.590087890625</ele>
        <time>2011-02-28T14:43:39Z</time>
      </trkpt>
      <trkpt lat="43.00794" lon="2.98363">
        <ele>38.590087890625</ele>
        <time>2011-02-28T14:43:42Z</time>
      </trkpt>
      <trkpt lat="43.00793" lon="2.98393">
        <ele>38.109375</ele>
        <time>2011-02-28T14:43:46Z</time>
      </trkpt>
      <trkpt lat="43.00794" lon="2.98422">
        <ele>35.225463867188</ele>
        <time>2011-02-28T14:43:51Z</time>
      </trkpt>
      <trkpt lat="43.00803" lon="2.98423">
        <ele>33.783447265625</ele>
        <time>2011-02-28T14:43:56Z</time>
      </trkpt>
      <trkpt lat="43.0081" lon="2.98417">
        <ele>31.380126953125</ele>
        <time>2011-02-28T14:44:06Z</time>
      </trkpt>
      <trkpt lat="43.00816" lon="2.98412">
        <ele>30.899536132812</ele>
        <time>2011-02-28T14:44:10Z</time>
      </trkpt>
      <trkpt lat="43.00825" lon="2.98405">
        <ele>31.860717773438</ele>
        <time>2011-02-28T14:44:15Z</time>
      </trkpt>
      <trkpt lat="43.00828" lon="2.98401">
        <ele>32.341552734375</ele>
        <time>2011-02-28T14:44:17Z</time>
      </trkpt>
      <trkpt lat="43.00835" lon="2.98408">
        <ele>35.7060546875</ele>
        <time>2011-02-28T14:44:24Z</time>
      </trkpt>
      <trkpt lat="43.00845" lon="2.98408">
        <ele>38.109375</ele>
        <time>2011-02-28T14:44:30Z</time>
      </trkpt>
      <trkpt lat="43.00857" lon="2.9841">
        <ele>40.512817382812</ele>
        <time>2011-02-28T14:44:36Z</time>
      </trkpt>
      <trkpt lat="43.00864" lon="2.98415">
        <ele>42.435424804688</ele>
        <time>2011-02-28T14:44:41Z</time>
      </trkpt>
      <trkpt lat="43.00875" lon="2.98421">
        <ele>44.358032226562</ele>
        <time>2011-02-28T14:44:47Z</time>
      </trkpt>
      <trkpt lat="43.00876" lon="2.98422">
        <ele>43.877319335938</ele>
        <time>2011-02-28T14:44:52Z</time>
      </trkpt>
      <trkpt lat="43.00876" lon="2.98416">
        <ele>44.358032226562</ele>
        <time>2011-02-28T14:44:56Z</time>
      </trkpt>
      <trkpt lat="43.00884" lon="2.98418">
        <ele>43.396606445312</ele>
        <time>2011-02-28T14:45:01Z</time>
      </trkpt>
      <trkpt lat="43.00885" lon="2.98421">
        <ele>42.435424804688</ele>
        <time>2011-02-28T14:45:05Z</time>
      </trkpt>
      <trkpt lat="43.00886" lon="2.98424">
        <ele>42.435424804688</ele>
        <time>2011-02-28T14:45:17Z</time>
      </trkpt>
      <trkpt lat="43.00884" lon="2.98436">
        <ele>41.954711914062</ele>
        <time>2011-02-28T14:45:21Z</time>
      </trkpt>
      <trkpt lat="43.00881" lon="2.98439">
        <ele>40.993408203125</ele>
        <time>2011-02-28T14:45:23Z</time>
      </trkpt>
      <trkpt lat="43.00875" lon="2.98454">
        <ele>40.512817382812</ele>
        <time>2011-02-28T14:45:28Z</time>
      </trkpt>
      <trkpt lat="43.00871" lon="2.98472">
        <ele>40.512817382812</ele>
        <time>2011-02-28T14:45:33Z</time>
      </trkpt>
      <trkpt lat="43.00876" lon="2.98485">
        <ele>40.993408203125</ele>
        <time>2011-02-28T14:45:37Z</time>
      </trkpt>
      <trkpt lat="43.00883" lon="2.98486">
        <ele>41.954711914062</ele>
        <time>2011-02-28T14:45:41Z</time>
      </trkpt>
      <trkpt lat="43.00887" lon="2.98488">
        <ele>42.435424804688</ele>
        <time>2011-02-28T14:45:43Z</time>
      </trkpt>
      <trkpt lat="43.00898" lon="2.9849">
        <ele>44.358032226562</ele>
        <time>2011-02-28T14:45:48Z</time>
      </trkpt>
      <trkpt lat="43.009" lon="2.985">
        <ele>44.838623046875</ele>
        <time>2011-02-28T14:45:53Z</time>
      </trkpt>
      <trkpt lat="43.00895" lon="2.98518">
        <ele>45.319213867188</ele>
        <time>2011-02-28T14:45:57Z</time>
      </trkpt>
      <trkpt lat="43.00896" lon="2.98527">
        <ele>44.838623046875</ele>
        <time>2011-02-28T14:45:59Z</time>
      </trkpt>
      <trkpt lat="43.00902" lon="2.98548">
        <ele>41.473999023438</ele>
        <time>2011-02-28T14:46:07Z</time>
      </trkpt>
      <trkpt lat="43.00902" lon="2.98548">
        <ele>40.993408203125</ele>
        <time>2011-02-28T14:46:13Z</time>
      </trkpt>
      <trkpt lat="43.00902" lon="2.98548">
        <ele>40.993408203125</ele>
        <time>2011-02-28T14:46:26Z</time>
      </trkpt>
      <trkpt lat="43.00902" lon="2.98558">
        <ele>40.512817382812</ele>
        <time>2011-02-28T14:46:33Z</time>
      </trkpt>
      <trkpt lat="43.00896" lon="2.98578">
        <ele>39.070678710938</ele>
        <time>2011-02-28T14:46:38Z</time>
      </trkpt>
      <trkpt lat="43.00885" lon="2.98595">
        <ele>35.7060546875</ele>
        <time>2011-02-28T14:46:41Z</time>
      </trkpt>
      <trkpt lat="43.00877" lon="2.98612">
        <ele>32.822265625</ele>
        <time>2011-02-28T14:46:44Z</time>
      </trkpt>
      <trkpt lat="43.00873" lon="2.98619">
        <ele>31.380126953125</ele>
        <time>2011-02-28T14:46:46Z</time>
      </trkpt>
      <trkpt lat="43.00878" lon="2.98627">
        <ele>29.45751953125</ele>
        <time>2011-02-28T14:46:50Z</time>
      </trkpt>
      <trkpt lat="43.00887" lon="2.9864">
        <ele>29.938110351562</ele>
        <time>2011-02-28T14:46:56Z</time>
      </trkpt>
      <trkpt lat="43.0089" lon="2.98641">
        <ele>30.418823242188</ele>
        <time>2011-02-28T14:46:57Z</time>
      </trkpt>
      <trkpt lat="43.00906" lon="2.9864">
        <ele>33.783447265625</ele>
        <time>2011-02-28T14:47:04Z</time>
      </trkpt>
      <trkpt lat="43.00908" lon="2.98637">
        <ele>36.186767578125</ele>
        <time>2011-02-28T14:47:08Z</time>
      </trkpt>
      <trkpt lat="43.00909" lon="2.98637">
        <ele>38.109375</ele>
        <time>2011-02-28T14:47:14Z</time>
      </trkpt>
      <trkpt lat="43.0091" lon="2.98639">
        <ele>39.070678710938</ele>
        <time>2011-02-28T14:47:18Z</time>
      </trkpt>
      <trkpt lat="43.00912" lon="2.98639">
        <ele>39.55126953125</ele>
        <time>2011-02-28T14:47:20Z</time>
      </trkpt>
      <trkpt lat="43.00915" lon="2.98641">
        <ele>40.032104492188</ele>
        <time>2011-02-28T14:47:27Z</time>
      </trkpt>
      <trkpt lat="43.00915" lon="2.98641">
        <ele>40.512817382812</ele>
        <time>2011-02-28T14:47:47Z</time>
      </trkpt>
      <trkpt lat="43.00915" lon="2.98641">
        <ele>40.512817382812</ele>
        <time>2011-02-28T14:48:00Z</time>
      </trkpt>
      <trkpt lat="43.00915" lon="2.98641">
        <ele>40.512817382812</ele>
        <time>2011-02-28T14:48:06Z</time>
      </trkpt>
      <trkpt lat="43.00916" lon="2.98642">
        <ele>40.512817382812</ele>
        <time>2011-02-28T14:48:08Z</time>
      </trkpt>
      <trkpt lat="43.00923" lon="2.98646">
        <ele>40.993408203125</ele>
        <time>2011-02-28T14:48:14Z</time>
      </trkpt>
      <trkpt lat="43.00926" lon="2.98647">
        <ele>41.473999023438</ele>
        <time>2011-02-28T14:48:16Z</time>
      </trkpt>
      <trkpt lat="43.00934" lon="2.98652">
        <ele>43.396606445312</ele>
        <time>2011-02-28T14:48:22Z</time>
      </trkpt>
      <trkpt lat="43.00947" lon="2.98659">
        <ele>46.76123046875</ele>
        <time>2011-02-28T14:48:31Z</time>
      </trkpt>
      <trkpt lat="43.00951" lon="2.98648">
        <ele>51.087158203125</ele>
        <time>2011-02-28T14:48:38Z</time>
      </trkpt>
      <trkpt lat="43.00952" lon="2.98646">
        <ele>51.56787109375</ele>
        <time>2011-02-28T14:48:39Z</time>
      </trkpt>
      <trkpt lat="43.00959" lon="2.98633">
        <ele>51.087158203125</ele>
        <time>2011-02-28T14:48:46Z</time>
      </trkpt>
      <trkpt lat="43.0097" lon="2.98619">
        <ele>50.606567382812</ele>
        <time>2011-02-28T14:48:55Z</time>
      </trkpt>
      <trkpt lat="43.00978" lon="2.98613">
        <ele>49.16455078125</ele>
        <time>2011-02-28T14:49:01Z</time>
      </trkpt>
      <trkpt lat="43.00979" lon="2.98612">
        <ele>49.16455078125</ele>
        <time>2011-02-28T14:49:02Z</time>
      </trkpt>
      <trkpt lat="43.00983" lon="2.98618">
        <ele>50.606567382812</ele>
        <time>2011-02-28T14:49:08Z</time>
      </trkpt>
      <trkpt lat="43.00982" lon="2.98624">
        <ele>51.087158203125</ele>
        <time>2011-02-28T14:49:10Z</time>
      </trkpt>
      <trkpt lat="43.00977" lon="2.98644">
        <ele>51.087158203125</ele>
        <time>2011-02-28T14:49:16Z</time>
      </trkpt>
      <trkpt lat="43.00985" lon="2.98657">
        <ele>51.56787109375</ele>
        <time>2011-02-28T14:49:21Z</time>
      </trkpt>
      <trkpt lat="43.0099" lon="2.98651">
        <ele>52.529174804688</ele>
        <time>2011-02-28T14:49:24Z</time>
      </trkpt>
      <trkpt lat="43.01" lon="2.98631">
        <ele>53.009765625</ele>
        <time>2011-02-28T14:49:33Z</time>
      </trkpt>
      <trkpt lat="43.01003" lon="2.98623">
        <ele>53.009765625</ele>
        <time>2011-02-28T14:49:38Z</time>
      </trkpt>
      <trkpt lat="43.01008" lon="2.98622">
        <ele>54.451782226562</ele>
        <time>2011-02-28T14:49:43Z</time>
      </trkpt>
      <trkpt lat="43.01007" lon="2.98621">
        <ele>54.451782226562</ele>
        <time>2011-02-28T14:49:49Z</time>
      </trkpt>
      <trkpt lat="43.01008" lon="2.98622">
        <ele>54.932373046875</ele>
        <time>2011-02-28T14:49:50Z</time>
      </trkpt>
      <trkpt lat="43.01009" lon="2.98639">
        <ele>54.932373046875</ele>
        <time>2011-02-28T14:49:58Z</time>
      </trkpt>
      <trkpt lat="43.01012" lon="2.98655">
        <ele>56.37451171875</ele>
        <time>2011-02-28T14:50:04Z</time>
      </trkpt>
      <trkpt lat="43.01017" lon="2.98679">
        <ele>58.777709960938</ele>
        <time>2011-02-28T14:50:14Z</time>
      </trkpt>
      <trkpt lat="43.01025" lon="2.98703">
        <ele>60.700317382812</ele>
        <time>2011-02-28T14:50:24Z</time>
      </trkpt>
      <trkpt lat="43.01026" lon="2.98708">
        <ele>60.700317382812</ele>
        <time>2011-02-28T14:50:26Z</time>
      </trkpt>
      <trkpt lat="43.01027" lon="2.98721">
        <ele>61.661743164062</ele>
        <time>2011-02-28T14:50:32Z</time>
      </trkpt>
      <trkpt lat="43.01035" lon="2.98721">
        <ele>62.142333984375</ele>
        <time>2011-02-28T14:50:38Z</time>
      </trkpt>
      <trkpt lat="43.01044" lon="2.98713">
        <ele>62.622924804688</ele>
        <time>2011-02-28T14:50:46Z</time>
      </trkpt>
      <trkpt lat="43.01046" lon="2.9871">
        <ele>62.622924804688</ele>
        <time>2011-02-28T14:50:48Z</time>
      </trkpt>
      <trkpt lat="43.01057" lon="2.98701">
        <ele>65.987670898438</ele>
        <time>2011-02-28T14:50:58Z</time>
      </trkpt>
      <trkpt lat="43.0106" lon="2.98698">
        <ele>66.46826171875</ele>
        <time>2011-02-28T14:51:04Z</time>
      </trkpt>
      <trkpt lat="43.0106" lon="2.98698">
        <ele>66.46826171875</ele>
        <time>2011-02-28T14:51:07Z</time>
      </trkpt>
      <trkpt lat="43.01061" lon="2.98698">
        <ele>66.948974609375</ele>
        <time>2011-02-28T14:51:09Z</time>
      </trkpt>
      <trkpt lat="43.01072" lon="2.98684">
        <ele>66.948974609375</ele>
        <time>2011-02-28T14:51:18Z</time>
      </trkpt>
      <trkpt lat="43.01086" lon="2.98671">
        <ele>68.390869140625</ele>
        <time>2011-02-28T14:51:27Z</time>
      </trkpt>
      <trkpt lat="43.01096" lon="2.98659">
        <ele>68.87158203125</ele>
        <time>2011-02-28T14:51:35Z</time>
      </trkpt>
      <trkpt lat="43.01113" lon="2.98649">
        <ele>68.390869140625</ele>
        <time>2011-02-28T14:51:45Z</time>
      </trkpt>
      <trkpt lat="43.01129" lon="2.98642">
        <ele>67.910278320312</ele>
        <time>2011-02-28T14:51:54Z</time>
      </trkpt>
      <trkpt lat="43.01131" lon="2.98641">
        <ele>68.390869140625</ele>
        <time>2011-02-28T14:51:56Z</time>
      </trkpt>
      <trkpt lat="43.01135" lon="2.98643">
        <ele>67.910278320312</ele>
        <time>2011-02-28T14:51:59Z</time>
      </trkpt>
      <trkpt lat="43.01134" lon="2.98655">
        <ele>65.507080078125</ele>
        <time>2011-02-28T14:52:04Z</time>
      </trkpt>
      <trkpt lat="43.01141" lon="2.98665">
        <ele>64.545654296875</ele>
        <time>2011-02-28T14:52:09Z</time>
      </trkpt>
      <trkpt lat="43.01143" lon="2.9867">
        <ele>64.545654296875</ele>
        <time>2011-02-28T14:52:15Z</time>
      </trkpt>
      <trkpt lat="43.01143" lon="2.9867">
        <ele>64.545654296875</ele>
        <time>2011-02-28T14:52:26Z</time>
      </trkpt>
      <trkpt lat="43.01142" lon="2.98687">
        <ele>63.584350585938</ele>
        <time>2011-02-28T14:52:31Z</time>
      </trkpt>
      <trkpt lat="43.01141" lon="2.98724">
        <ele>61.181030273438</ele>
        <time>2011-02-28T14:52:37Z</time>
      </trkpt>
      <trkpt lat="43.01137" lon="2.98741">
        <ele>60.2197265625</ele>
        <time>2011-02-28T14:52:41Z</time>
      </trkpt>
      <trkpt lat="43.01139" lon="2.98744">
        <ele>60.2197265625</ele>
        <time>2011-02-28T14:52:42Z</time>
      </trkpt>
      <trkpt lat="43.01145" lon="2.98768">
        <ele>58.777709960938</ele>
        <time>2011-02-28T14:52:47Z</time>
      </trkpt>
      <trkpt lat="43.01144" lon="2.98797">
        <ele>57.816528320312</ele>
        <time>2011-02-28T14:52:52Z</time>
      </trkpt>
      <trkpt lat="43.01143" lon="2.98812">
        <ele>54.451782226562</ele>
        <time>2011-02-28T14:52:56Z</time>
      </trkpt>
      <trkpt lat="43.01144" lon="2.98833">
        <ele>48.683959960938</ele>
        <time>2011-02-28T14:53:02Z</time>
      </trkpt>
      <trkpt lat="43.01142" lon="2.98838">
        <ele>47.722534179688</ele>
        <time>2011-02-28T14:53:03Z</time>
      </trkpt>
      <trkpt lat="43.01138" lon="2.98846">
        <ele>45.799926757812</ele>
        <time>2011-02-28T14:53:05Z</time>
      </trkpt>
      <trkpt lat="43.01136" lon="2.98873">
        <ele>41.473999023438</ele>
        <time>2011-02-28T14:53:09Z</time>
      </trkpt>
      <trkpt lat="43.01125" lon="2.98891">
        <ele>38.590087890625</ele>
        <time>2011-02-28T14:53:13Z</time>
      </trkpt>
      <trkpt lat="43.01125" lon="2.98914">
        <ele>36.66748046875</ele>
        <time>2011-02-28T14:53:16Z</time>
      </trkpt>
      <trkpt lat="43.01119" lon="2.98933">
        <ele>36.186767578125</ele>
        <time>2011-02-28T14:53:20Z</time>
      </trkpt>
      <trkpt lat="43.01115" lon="2.98958">
        <ele>37.148071289062</ele>
        <time>2011-02-28T14:53:25Z</time>
      </trkpt>
      <trkpt lat="43.01112" lon="2.98979">
        <ele>38.109375</ele>
        <time>2011-02-28T14:53:30Z</time>
      </trkpt>
      <trkpt lat="43.01104" lon="2.99007">
        <ele>37.628662109375</ele>
        <time>2011-02-28T14:53:36Z</time>
      </trkpt>
      <trkpt lat="43.01116" lon="2.99032">
        <ele>34.26416015625</ele>
        <time>2011-02-28T14:53:42Z</time>
      </trkpt>
      <trkpt lat="43.01119" lon="2.99034">
        <ele>33.783447265625</ele>
        <time>2011-02-28T14:53:43Z</time>
      </trkpt>
      <trkpt lat="43.01125" lon="2.99048">
        <ele>30.899536132812</ele>
        <time>2011-02-28T14:53:48Z</time>
      </trkpt>
      <trkpt lat="43.01131" lon="2.99058">
        <ele>29.938110351562</ele>
        <time>2011-02-28T14:53:50Z</time>
      </trkpt>
      <trkpt lat="43.01133" lon="2.99069">
        <ele>28.496215820312</ele>
        <time>2011-02-28T14:53:52Z</time>
      </trkpt>
      <trkpt lat="43.01132" lon="2.99078">
        <ele>25.131713867188</ele>
        <time>2011-02-28T14:53:58Z</time>
      </trkpt>
      <trkpt lat="43.01132" lon="2.99078">
        <ele>24.170288085938</ele>
        <time>2011-02-28T14:54:05Z</time>
      </trkpt>
      <trkpt lat="43.01132" lon="2.99076">
        <ele>24.170288085938</ele>
        <time>2011-02-28T14:54:07Z</time>
      </trkpt>
      <trkpt lat="43.01134" lon="2.99071">
        <ele>25.131713867188</ele>
        <time>2011-02-28T14:54:15Z</time>
      </trkpt>
      <trkpt lat="43.01134" lon="2.99071">
        <ele>25.131713867188</ele>
        <time>2011-02-28T14:54:22Z</time>
      </trkpt>
      <trkpt lat="43.01134" lon="2.99071">
        <ele>25.131713867188</ele>
        <time>2011-02-28T14:54:25Z</time>
      </trkpt>
      <trkpt lat="43.01132" lon="2.99077">
        <ele>25.131713867188</ele>
        <time>2011-02-28T14:54:31Z</time>
      </trkpt>
      <trkpt lat="43.01132" lon="2.99077">
        <ele>24.651000976562</ele>
        <time>2011-02-28T14:54:46Z</time>
      </trkpt>
      <trkpt lat="43.01133" lon="2.99076">
        <ele>23.689575195312</ele>
        <time>2011-02-28T14:54:54Z</time>
      </trkpt>
      <trkpt lat="43.01132" lon="2.99076">
        <ele>23.689575195312</ele>
        <time>2011-02-28T14:54:58Z</time>
      </trkpt>
      <trkpt lat="43.01126" lon="2.99084">
        <ele>21.286376953125</ele>
        <time>2011-02-28T14:55:02Z</time>
      </trkpt>
      <trkpt lat="43.01126" lon="2.99084">
        <ele>19.844360351562</ele>
        <time>2011-02-28T14:55:14Z</time>
      </trkpt>
      <trkpt lat="43.01126" lon="2.99084">
        <ele>19.844360351562</ele>
        <time>2011-02-28T14:55:43Z</time>
      </trkpt>
      <trkpt lat="43.01126" lon="2.99085">
        <ele>19.844360351562</ele>
        <time>2011-02-28T14:56:11Z</time>
      </trkpt>
      <trkpt lat="43.01128" lon="2.99087">
        <ele>19.844360351562</ele>
        <time>2011-02-28T14:56:18Z</time>
      </trkpt>
      <trkpt lat="43.01132" lon="2.99092">
        <ele>20.324951171875</ele>
        <time>2011-02-28T14:56:27Z</time>
      </trkpt>
      <trkpt lat="43.01142" lon="2.99097">
        <ele>20.324951171875</ele>
        <time>2011-02-28T14:56:32Z</time>
      </trkpt>
      <trkpt lat="43.01144" lon="2.99102">
        <ele>18.883056640625</ele>
        <time>2011-02-28T14:56:36Z</time>
      </trkpt>
      <trkpt lat="43.01132" lon="2.99117">
        <ele>16.96044921875</ele>
        <time>2011-02-28T14:56:44Z</time>
      </trkpt>
      <trkpt lat="43.01117" lon="2.9914">
        <ele>16.96044921875</ele>
        <time>2011-02-28T14:56:51Z</time>
      </trkpt>
      <trkpt lat="43.01094" lon="2.99169">
        <ele>18.883056640625</ele>
        <time>2011-02-28T14:57:03Z</time>
      </trkpt>
      <trkpt lat="43.01083" lon="2.99183">
        <ele>19.844360351562</ele>
        <time>2011-02-28T14:57:13Z</time>
      </trkpt>
      <trkpt lat="43.01072" lon="2.99198">
        <ele>21.286376953125</ele>
        <time>2011-02-28T14:57:23Z</time>
      </trkpt>
      <trkpt lat="43.01062" lon="2.99208">
        <ele>23.208984375</ele>
        <time>2011-02-28T14:57:32Z</time>
      </trkpt>
      <trkpt lat="43.0105" lon="2.99215">
        <ele>25.6123046875</ele>
        <time>2011-02-28T14:57:43Z</time>
      </trkpt>
      <trkpt lat="43.01043" lon="2.9922">
        <ele>27.534912109375</ele>
        <time>2011-02-28T14:57:50Z</time>
      </trkpt>
      <trkpt lat="43.01035" lon="2.99223">
        <ele>28.496215820312</ele>
        <time>2011-02-28T14:57:58Z</time>
      </trkpt>
      <trkpt lat="43.01028" lon="2.99229">
        <ele>30.418823242188</ele>
        <time>2011-02-28T14:58:05Z</time>
      </trkpt>
      <trkpt lat="43.01021" lon="2.99235">
        <ele>31.380126953125</ele>
        <time>2011-02-28T14:58:13Z</time>
      </trkpt>
      <trkpt lat="43.01013" lon="2.99243">
        <ele>33.302856445312</ele>
        <time>2011-02-28T14:58:21Z</time>
      </trkpt>
      <trkpt lat="43.01011" lon="2.99252">
        <ele>35.225463867188</ele>
        <time>2011-02-28T14:58:28Z</time>
      </trkpt>
      <trkpt lat="43.01014" lon="2.99272">
        <ele>37.628662109375</ele>
        <time>2011-02-28T14:58:39Z</time>
      </trkpt>
      <trkpt lat="43.01014" lon="2.99282">
        <ele>40.032104492188</ele>
        <time>2011-02-28T14:58:45Z</time>
      </trkpt>
      <trkpt lat="43.01006" lon="2.99294">
        <ele>41.954711914062</ele>
        <time>2011-02-28T14:58:55Z</time>
      </trkpt>
      <trkpt lat="43.01004" lon="2.99296">
        <ele>42.435424804688</ele>
        <time>2011-02-28T14:58:57Z</time>
      </trkpt>
      <trkpt lat="43.00999" lon="2.99299">
        <ele>42.916015625</ele>
        <time>2011-02-28T14:59:01Z</time>
      </trkpt>
      <trkpt lat="43.00987" lon="2.99305">
        <ele>44.358032226562</ele>
        <time>2011-02-28T14:59:11Z</time>
      </trkpt>
      <trkpt lat="43.00977" lon="2.99309">
        <ele>45.319213867188</ele>
        <time>2011-02-28T14:59:19Z</time>
      </trkpt>
      <trkpt lat="43.00966" lon="2.99314">
        <ele>47.722534179688</ele>
        <time>2011-02-28T14:59:28Z</time>
      </trkpt>
      <trkpt lat="43.00953" lon="2.99319">
        <ele>49.16455078125</ele>
        <time>2011-02-28T14:59:38Z</time>
      </trkpt>
      <trkpt lat="43.00943" lon="2.99325">
        <ele>49.645263671875</ele>
        <time>2011-02-28T14:59:47Z</time>
      </trkpt>
      <trkpt lat="43.00931" lon="2.99331">
        <ele>52.048583984375</ele>
        <time>2011-02-28T14:59:57Z</time>
      </trkpt>
      <trkpt lat="43.00915" lon="2.99338">
        <ele>53.009765625</ele>
        <time>2011-02-28T15:00:09Z</time>
      </trkpt>
      <trkpt lat="43.00903" lon="2.99345">
        <ele>53.490478515625</ele>
        <time>2011-02-28T15:00:19Z</time>
      </trkpt>
      <trkpt lat="43.009" lon="2.99347">
        <ele>53.490478515625</ele>
        <time>2011-02-28T15:00:21Z</time>
      </trkpt>
      <trkpt lat="43.00889" lon="2.99355">
        <ele>54.932373046875</ele>
        <time>2011-02-28T15:00:30Z</time>
      </trkpt>
      <trkpt lat="43.0088" lon="2.99359">
        <ele>56.37451171875</ele>
        <time>2011-02-28T15:00:37Z</time>
      </trkpt>
      <trkpt lat="43.00868" lon="2.99365">
        <ele>58.297119140625</ele>
        <time>2011-02-28T15:00:46Z</time>
      </trkpt>
      <trkpt lat="43.00865" lon="2.99368">
        <ele>59.258422851562</ele>
        <time>2011-02-28T15:00:49Z</time>
      </trkpt>
      <trkpt lat="43.00866" lon="2.99383">
        <ele>62.142333984375</ele>
        <time>2011-02-28T15:00:58Z</time>
      </trkpt>
      <trkpt lat="43.00867" lon="2.99399">
        <ele>65.507080078125</ele>
        <time>2011-02-28T15:01:07Z</time>
      </trkpt>
      <trkpt lat="43.00867" lon="2.9941">
        <ele>66.46826171875</ele>
        <time>2011-02-28T15:01:13Z</time>
      </trkpt>
      <trkpt lat="43.00866" lon="2.99427">
        <ele>68.390869140625</ele>
        <time>2011-02-28T15:01:22Z</time>
      </trkpt>
      <trkpt lat="43.00867" lon="2.99435">
        <ele>69.832885742188</ele>
        <time>2011-02-28T15:01:26Z</time>
      </trkpt>
      <trkpt lat="43.0087" lon="2.99443">
        <ele>71.27490234375</ele>
        <time>2011-02-28T15:01:31Z</time>
      </trkpt>
      <trkpt lat="43.00874" lon="2.99454">
        <ele>72.716918945312</ele>
        <time>2011-02-28T15:01:37Z</time>
      </trkpt>
      <trkpt lat="43.00875" lon="2.99467">
        <ele>74.158813476562</ele>
        <time>2011-02-28T15:01:46Z</time>
      </trkpt>
      <trkpt lat="43.00873" lon="2.99467">
        <ele>74.639526367188</ele>
        <time>2011-02-28T15:01:51Z</time>
      </trkpt>
      <trkpt lat="43.00873" lon="2.99467">
        <ele>74.639526367188</ele>
        <time>2011-02-28T15:01:53Z</time>
      </trkpt>
      <trkpt lat="43.0086" lon="2.99461">
        <ele>75.600830078125</ele>
        <time>2011-02-28T15:02:02Z</time>
      </trkpt>
      <trkpt lat="43.00858" lon="2.99461">
        <ele>75.600830078125</ele>
        <time>2011-02-28T15:02:04Z</time>
      </trkpt>
      <trkpt lat="43.00846" lon="2.9945">
        <ele>77.042846679688</ele>
        <time>2011-02-28T15:02:13Z</time>
      </trkpt>
      <trkpt lat="43.00836" lon="2.99441">
        <ele>77.5234375</ele>
        <time>2011-02-28T15:02:21Z</time>
      </trkpt>
      <trkpt lat="43.00824" lon="2.99425">
        <ele>78.004028320312</ele>
        <time>2011-02-28T15:02:31Z</time>
      </trkpt>
      <trkpt lat="43.00814" lon="2.99414">
        <ele>79.446044921875</ele>
        <time>2011-02-28T15:02:39Z</time>
      </trkpt>
      <trkpt lat="43.00813" lon="2.99413">
        <ele>79.446044921875</ele>
        <time>2011-02-28T15:02:40Z</time>
      </trkpt>
      <trkpt lat="43.00806" lon="2.9941">
        <ele>80.407470703125</ele>
        <time>2011-02-28T15:02:44Z</time>
      </trkpt>
      <trkpt lat="43.00802" lon="2.99413">
        <ele>80.88818359375</ele>
        <time>2011-02-28T15:02:48Z</time>
      </trkpt>
      <trkpt lat="43.00806" lon="2.99417">
        <ele>81.368774414062</ele>
        <time>2011-02-28T15:02:52Z</time>
      </trkpt>
      <trkpt lat="43.00822" lon="2.99438">
        <ele>79.926635742188</ele>
        <time>2011-02-28T15:02:59Z</time>
      </trkpt>
      <trkpt lat="43.00834" lon="2.99453">
        <ele>78.965454101562</ele>
        <time>2011-02-28T15:03:02Z</time>
      </trkpt>
      <trkpt lat="43.00843" lon="2.99463">
        <ele>78.484741210938</ele>
        <time>2011-02-28T15:03:04Z</time>
      </trkpt>
      <trkpt lat="43.00864" lon="2.99482">
        <ele>76.562133789062</ele>
        <time>2011-02-28T15:03:08Z</time>
      </trkpt>
      <trkpt lat="43.00883" lon="2.9949">
        <ele>74.158813476562</ele>
        <time>2011-02-28T15:03:13Z</time>
      </trkpt>
      <trkpt lat="43.00884" lon="2.99491">
        <ele>73.67822265625</ele>
        <time>2011-02-28T15:03:14Z</time>
      </trkpt>
      <trkpt lat="43.00886" lon="2.9949">
        <ele>73.197631835938</ele>
        <time>2011-02-28T15:03:20Z</time>
      </trkpt>
      <trkpt lat="43.00876" lon="2.99487">
        <ele>74.158813476562</ele>
        <time>2011-02-28T15:03:26Z</time>
      </trkpt>
      <trkpt lat="43.0086" lon="2.99477">
        <ele>76.081420898438</ele>
        <time>2011-02-28T15:03:34Z</time>
      </trkpt>
      <trkpt lat="43.00844" lon="2.99463">
        <ele>77.5234375</ele>
        <time>2011-02-28T15:03:43Z</time>
      </trkpt>
      <trkpt lat="43.00835" lon="2.99454">
        <ele>78.965454101562</ele>
        <time>2011-02-28T15:03:49Z</time>
      </trkpt>
      <trkpt lat="43.00826" lon="2.99441">
        <ele>79.446044921875</ele>
        <time>2011-02-28T15:03:56Z</time>
      </trkpt>
      <trkpt lat="43.00814" lon="2.99425">
        <ele>80.407470703125</ele>
        <time>2011-02-28T15:04:04Z</time>
      </trkpt>
      <trkpt lat="43.00802" lon="2.99413">
        <ele>81.368774414062</ele>
        <time>2011-02-28T15:04:11Z</time>
      </trkpt>
      <trkpt lat="43.00785" lon="2.99413">
        <ele>81.368774414062</ele>
        <time>2011-02-28T15:04:18Z</time>
      </trkpt>
      <trkpt lat="43.00763" lon="2.99427">
        <ele>81.368774414062</ele>
        <time>2011-02-28T15:04:27Z</time>
      </trkpt>
      <trkpt lat="43.00734" lon="2.99445">
        <ele>81.849365234375</ele>
        <time>2011-02-28T15:04:37Z</time>
      </trkpt>
      <trkpt lat="43.00709" lon="2.99464">
        <ele>81.849365234375</ele>
        <time>2011-02-28T15:04:46Z</time>
      </trkpt>
      <trkpt lat="43.00682" lon="2.99487">
        <ele>82.810791015625</ele>
        <time>2011-02-28T15:04:56Z</time>
      </trkpt>
      <trkpt lat="43.00667" lon="2.99516">
        <ele>81.849365234375</ele>
        <time>2011-02-28T15:05:04Z</time>
      </trkpt>
      <trkpt lat="43.00651" lon="2.9952">
        <ele>82.330078125</ele>
        <time>2011-02-28T15:05:09Z</time>
      </trkpt>
      <trkpt lat="43.00625" lon="2.99518">
        <ele>81.849365234375</ele>
        <time>2011-02-28T15:05:17Z</time>
      </trkpt>
      <trkpt lat="43.00607" lon="2.99531">
        <ele>82.330078125</ele>
        <time>2011-02-28T15:05:24Z</time>
      </trkpt>
      <trkpt lat="43.0059" lon="2.99557">
        <ele>83.291381835938</ele>
        <time>2011-02-28T15:05:34Z</time>
      </trkpt>
      <trkpt lat="43.00581" lon="2.99583">
        <ele>84.7333984375</ele>
        <time>2011-02-28T15:05:43Z</time>
      </trkpt>
      <trkpt lat="43.00574" lon="2.99609">
        <ele>85.213989257812</ele>
        <time>2011-02-28T15:05:52Z</time>
      </trkpt>
      <trkpt lat="43.00562" lon="2.99632">
        <ele>87.136596679688</ele>
        <time>2011-02-28T15:06:01Z</time>
      </trkpt>
      <trkpt lat="43.00556" lon="2.99656">
        <ele>88.098022460938</ele>
        <time>2011-02-28T15:06:09Z</time>
      </trkpt>
      <trkpt lat="43.00555" lon="2.9968">
        <ele>89.059326171875</ele>
        <time>2011-02-28T15:06:18Z</time>
      </trkpt>
      <trkpt lat="43.00545" lon="2.99704">
        <ele>89.539916992188</ele>
        <time>2011-02-28T15:06:28Z</time>
      </trkpt>
      <trkpt lat="43.00542" lon="2.99724">
        <ele>91.943237304688</ele>
        <time>2011-02-28T15:06:36Z</time>
      </trkpt>
      <trkpt lat="43.00542" lon="2.9974">
        <ele>92.423950195312</ele>
        <time>2011-02-28T15:06:42Z</time>
      </trkpt>
      <trkpt lat="43.00542" lon="2.99769">
        <ele>92.904541015625</ele>
        <time>2011-02-28T15:06:52Z</time>
      </trkpt>
      <trkpt lat="43.00551" lon="2.99797">
        <ele>92.423950195312</ele>
        <time>2011-02-28T15:07:02Z</time>
      </trkpt>
      <trkpt lat="43.00561" lon="2.99816">
        <ele>93.865844726562</ele>
        <time>2011-02-28T15:07:11Z</time>
      </trkpt>
      <trkpt lat="43.00569" lon="2.99831">
        <ele>94.8271484375</ele>
        <time>2011-02-28T15:07:20Z</time>
      </trkpt>
      <trkpt lat="43.00575" lon="2.99845">
        <ele>95.307739257812</ele>
        <time>2011-02-28T15:07:29Z</time>
      </trkpt>
      <trkpt lat="43.00583" lon="2.99861">
        <ele>96.749877929688</ele>
        <time>2011-02-28T15:07:38Z</time>
      </trkpt>
      <trkpt lat="43.00587" lon="2.99879">
        <ele>98.19189453125</ele>
        <time>2011-02-28T15:07:46Z</time>
      </trkpt>
      <trkpt lat="43.00593" lon="2.99897">
        <ele>98.672485351562</ele>
        <time>2011-02-28T15:07:55Z</time>
      </trkpt>
      <trkpt lat="43.00598" lon="2.99915">
        <ele>99.153076171875</ele>
        <time>2011-02-28T15:08:04Z</time>
      </trkpt>
      <trkpt lat="43.00606" lon="2.99936">
        <ele>101.07568359375</ele>
        <time>2011-02-28T15:08:14Z</time>
      </trkpt>
      <trkpt lat="43.00615" lon="2.99948">
        <ele>103.47900390625</ele>
        <time>2011-02-28T15:08:22Z</time>
      </trkpt>
      <trkpt lat="43.00625" lon="2.99959">
        <ele>104.92102050781</ele>
        <time>2011-02-28T15:08:30Z</time>
      </trkpt>
      <trkpt lat="43.00634" lon="2.99971">
        <ele>106.36303710938</ele>
        <time>2011-02-28T15:08:38Z</time>
      </trkpt>
      <trkpt lat="43.00647" lon="2.99985">
        <ele>106.84362792969</ele>
        <time>2011-02-28T15:08:49Z</time>
      </trkpt>
      <trkpt lat="43.00661" lon="2.99996">
        <ele>107.80505371094</ele>
        <time>2011-02-28T15:08:59Z</time>
      </trkpt>
      <trkpt lat="43.00676" lon="3.00015">
        <ele>108.76623535156</ele>
        <time>2011-02-28T15:09:09Z</time>
      </trkpt>
      <trkpt lat="43.00694" lon="3.00039">
        <ele>109.72766113281</ele>
        <time>2011-02-28T15:09:19Z</time>
      </trkpt>
      <trkpt lat="43.00711" lon="3.00045">
        <ele>110.68884277344</ele>
        <time>2011-02-28T15:09:26Z</time>
      </trkpt>
      <trkpt lat="43.00739" lon="3.00047">
        <ele>111.16955566406</ele>
        <time>2011-02-28T15:09:36Z</time>
      </trkpt>
      <trkpt lat="43.00748" lon="3.00065">
        <ele>112.13098144531</ele>
        <time>2011-02-28T15:09:42Z</time>
      </trkpt>
      <trkpt lat="43.00762" lon="3.00082">
        <ele>112.61157226562</ele>
        <time>2011-02-28T15:09:49Z</time>
      </trkpt>
      <trkpt lat="43.00773" lon="3.001">
        <ele>112.13098144531</ele>
        <time>2011-02-28T15:09:57Z</time>
      </trkpt>
      <trkpt lat="43.00781" lon="3.00119">
        <ele>113.09228515625</ele>
        <time>2011-02-28T15:10:05Z</time>
      </trkpt>
      <trkpt lat="43.00789" lon="3.0014">
        <ele>114.05358886719</ele>
        <time>2011-02-28T15:10:13Z</time>
      </trkpt>
      <trkpt lat="43.00793" lon="3.0016">
        <ele>115.01489257812</ele>
        <time>2011-02-28T15:10:20Z</time>
      </trkpt>
      <trkpt lat="43.00796" lon="3.00178">
        <ele>116.45678710938</ele>
        <time>2011-02-28T15:10:27Z</time>
      </trkpt>
      <trkpt lat="43.00798" lon="3.00194">
        <ele>116.9375</ele>
        <time>2011-02-28T15:10:33Z</time>
      </trkpt>
      <trkpt lat="43.00797" lon="3.00218">
        <ele>117.89880371094</ele>
        <time>2011-02-28T15:10:41Z</time>
      </trkpt>
      <trkpt lat="43.00795" lon="3.00249">
        <ele>118.86010742188</ele>
        <time>2011-02-28T15:10:51Z</time>
      </trkpt>
      <trkpt lat="43.00795" lon="3.00275">
        <ele>119.82141113281</ele>
        <time>2011-02-28T15:10:59Z</time>
      </trkpt>
      <trkpt lat="43.00794" lon="3.00289">
        <ele>121.26354980469</ele>
        <time>2011-02-28T15:11:04Z</time>
      </trkpt>
      <trkpt lat="43.00807" lon="3.00306">
        <ele>122.70544433594</ele>
        <time>2011-02-28T15:11:13Z</time>
      </trkpt>
      <trkpt lat="43.00819" lon="3.00319">
        <ele>123.66674804688</ele>
        <time>2011-02-28T15:11:20Z</time>
      </trkpt>
      <trkpt lat="43.00823" lon="3.0034">
        <ele>124.62805175781</ele>
        <time>2011-02-28T15:11:27Z</time>
      </trkpt>
      <trkpt lat="43.00832" lon="3.00361">
        <ele>125.10876464844</ele>
        <time>2011-02-28T15:11:36Z</time>
      </trkpt>
      <trkpt lat="43.00847" lon="3.00377">
        <ele>126.06994628906</ele>
        <time>2011-02-28T15:11:45Z</time>
      </trkpt>
      <trkpt lat="43.00858" lon="3.00385">
        <ele>126.55065917969</ele>
        <time>2011-02-28T15:11:53Z</time>
      </trkpt>
      <trkpt lat="43.00858" lon="3.00385">
        <ele>126.55065917969</ele>
        <time>2011-02-28T15:12:01Z</time>
      </trkpt>
      <trkpt lat="43.00859" lon="3.00386">
        <ele>126.55065917969</ele>
        <time>2011-02-28T15:12:17Z</time>
      </trkpt>
      <trkpt lat="43.00872" lon="3.004">
        <ele>126.55065917969</ele>
        <time>2011-02-28T15:12:26Z</time>
      </trkpt>
      <trkpt lat="43.00878" lon="3.00402">
        <ele>126.06994628906</ele>
        <time>2011-02-28T15:12:29Z</time>
      </trkpt>
      <trkpt lat="43.00882" lon="3.00402">
        <ele>125.58935546875</ele>
        <time>2011-02-28T15:12:34Z</time>
      </trkpt>
      <trkpt lat="43.00884" lon="3.004">
        <ele>126.06994628906</ele>
        <time>2011-02-28T15:12:58Z</time>
      </trkpt>
      <trkpt lat="43.00892" lon="3.00381">
        <ele>125.58935546875</ele>
        <time>2011-02-28T15:13:06Z</time>
      </trkpt>
      <trkpt lat="43.00895" lon="3.00377">
        <ele>125.58935546875</ele>
        <time>2011-02-28T15:13:07Z</time>
      </trkpt>
      <trkpt lat="43.00905" lon="3.00365">
        <ele>125.10876464844</ele>
        <time>2011-02-28T15:13:10Z</time>
      </trkpt>
      <trkpt lat="43.00919" lon="3.00351">
        <ele>124.14733886719</ele>
        <time>2011-02-28T15:13:13Z</time>
      </trkpt>
      <trkpt lat="43.0094" lon="3.00324">
        <ele>121.744140625</ele>
        <time>2011-02-28T15:13:18Z</time>
      </trkpt>
      <trkpt lat="43.00957" lon="3.00278">
        <ele>115.49560546875</ele>
        <time>2011-02-28T15:13:24Z</time>
      </trkpt>
      <trkpt lat="43.00959" lon="3.00255">
        <ele>112.61157226562</ele>
        <time>2011-02-28T15:13:26Z</time>
      </trkpt>
      <trkpt lat="43.00964" lon="3.00161">
        <ele>105.40173339844</ele>
        <time>2011-02-28T15:13:33Z</time>
      </trkpt>
      <trkpt lat="43.00964" lon="3.00147">
        <ele>104.4404296875</ele>
        <time>2011-02-28T15:13:34Z</time>
      </trkpt>
      <trkpt lat="43.00962" lon="3.0011">
        <ele>101.55639648438</ele>
        <time>2011-02-28T15:13:38Z</time>
      </trkpt>
      <trkpt lat="43.00977" lon="3.00076">
        <ele>96.749877929688</ele>
        <time>2011-02-28T15:13:44Z</time>
      </trkpt>
      <trkpt lat="43.0099" lon="3.00053">
        <ele>94.8271484375</ele>
        <time>2011-02-28T15:13:48Z</time>
      </trkpt>
      <trkpt lat="43.00999" lon="3.00035">
        <ele>93.385131835938</ele>
        <time>2011-02-28T15:13:51Z</time>
      </trkpt>
      <trkpt lat="43.0101" lon="2.99997">
        <ele>91.462524414062</ele>
        <time>2011-02-28T15:13:56Z</time>
      </trkpt>
      <trkpt lat="43.01025" lon="2.99963">
        <ele>88.578735351562</ele>
        <time>2011-02-28T15:14:01Z</time>
      </trkpt>
      <trkpt lat="43.01031" lon="2.99933">
        <ele>86.656005859375</ele>
        <time>2011-02-28T15:14:05Z</time>
      </trkpt>
      <trkpt lat="43.01036" lon="2.9992">
        <ele>85.694580078125</ele>
        <time>2011-02-28T15:14:07Z</time>
      </trkpt>
      <trkpt lat="43.01052" lon="2.99888">
        <ele>83.77197265625</ele>
        <time>2011-02-28T15:14:12Z</time>
      </trkpt>
      <trkpt lat="43.01066" lon="2.9987">
        <ele>82.810791015625</ele>
        <time>2011-02-28T15:14:17Z</time>
      </trkpt>
      <trkpt lat="43.01063" lon="2.99863">
        <ele>83.291381835938</ele>
        <time>2011-02-28T15:14:20Z</time>
      </trkpt>
      <trkpt lat="43.01054" lon="2.99853">
        <ele>83.77197265625</ele>
        <time>2011-02-28T15:14:24Z</time>
      </trkpt>
      <trkpt lat="43.01045" lon="2.99836">
        <ele>84.252685546875</ele>
        <time>2011-02-28T15:14:29Z</time>
      </trkpt>
      <trkpt lat="43.01034" lon="2.99825">
        <ele>83.77197265625</ele>
        <time>2011-02-28T15:14:33Z</time>
      </trkpt>
      <trkpt lat="43.01031" lon="2.99808">
        <ele>83.291381835938</ele>
        <time>2011-02-28T15:14:38Z</time>
      </trkpt>
      <trkpt lat="43.01031" lon="2.99781">
        <ele>81.849365234375</ele>
        <time>2011-02-28T15:14:44Z</time>
      </trkpt>
      <trkpt lat="43.01041" lon="2.99767">
        <ele>81.849365234375</ele>
        <time>2011-02-28T15:14:49Z</time>
      </trkpt>
      <trkpt lat="43.01042" lon="2.99765">
        <ele>81.849365234375</ele>
        <time>2011-02-28T15:14:50Z</time>
      </trkpt>
      <trkpt lat="43.01052" lon="2.99748">
        <ele>82.330078125</ele>
        <time>2011-02-28T15:14:56Z</time>
      </trkpt>
      <trkpt lat="43.01053" lon="2.99727">
        <ele>81.368774414062</ele>
        <time>2011-02-28T15:15:02Z</time>
      </trkpt>
      <trkpt lat="43.01052" lon="2.99723">
        <ele>81.368774414062</ele>
        <time>2011-02-28T15:15:03Z</time>
      </trkpt>
      <trkpt lat="43.01059" lon="2.99702">
        <ele>79.446044921875</ele>
        <time>2011-02-28T15:15:10Z</time>
      </trkpt>
      <trkpt lat="43.0106" lon="2.99685">
        <ele>76.562133789062</ele>
        <time>2011-02-28T15:15:16Z</time>
      </trkpt>
      <trkpt lat="43.01064" lon="2.99673">
        <ele>73.197631835938</ele>
        <time>2011-02-28T15:15:21Z</time>
      </trkpt>
      <trkpt lat="43.01067" lon="2.99658">
        <ele>69.352294921875</ele>
        <time>2011-02-28T15:15:27Z</time>
      </trkpt>
      <trkpt lat="43.01075" lon="2.9966">
        <ele>67.4296875</ele>
        <time>2011-02-28T15:15:30Z</time>
      </trkpt>
      <trkpt lat="43.01081" lon="2.99664">
        <ele>65.507080078125</ele>
        <time>2011-02-28T15:15:32Z</time>
      </trkpt>
      <trkpt lat="43.01094" lon="2.99654">
        <ele>60.2197265625</ele>
        <time>2011-02-28T15:15:37Z</time>
      </trkpt>
      <trkpt lat="43.01106" lon="2.99658">
        <ele>55.4130859375</ele>
        <time>2011-02-28T15:15:41Z</time>
      </trkpt>
      <trkpt lat="43.01118" lon="2.99662">
        <ele>52.048583984375</ele>
        <time>2011-02-28T15:15:44Z</time>
      </trkpt>
      <trkpt lat="43.01123" lon="2.99669">
        <ele>49.16455078125</ele>
        <time>2011-02-28T15:15:48Z</time>
      </trkpt>
      <trkpt lat="43.01123" lon="2.99675">
        <ele>49.16455078125</ele>
        <time>2011-02-28T15:15:49Z</time>
      </trkpt>
      <trkpt lat="43.01126" lon="2.99689">
        <ele>48.683959960938</ele>
        <time>2011-02-28T15:15:51Z</time>
      </trkpt>
      <trkpt lat="43.01129" lon="2.99711">
        <ele>49.16455078125</ele>
        <time>2011-02-28T15:15:55Z</time>
      </trkpt>
      <trkpt lat="43.01131" lon="2.99738">
        <ele>50.1259765625</ele>
        <time>2011-02-28T15:16:00Z</time>
      </trkpt>
      <trkpt lat="43.01131" lon="2.99747">
        <ele>51.56787109375</ele>
        <time>2011-02-28T15:16:05Z</time>
      </trkpt>
      <trkpt lat="43.01136" lon="2.99761">
        <ele>53.009765625</ele>
        <time>2011-02-28T15:16:10Z</time>
      </trkpt>
      <trkpt lat="43.01139" lon="2.99772">
        <ele>53.490478515625</ele>
        <time>2011-02-28T15:16:14Z</time>
      </trkpt>
      <trkpt lat="43.01139" lon="2.99774">
        <ele>53.97119140625</ele>
        <time>2011-02-28T15:16:15Z</time>
      </trkpt>
      <trkpt lat="43.01145" lon="2.99792">
        <ele>53.97119140625</ele>
        <time>2011-02-28T15:16:20Z</time>
      </trkpt>
      <trkpt lat="43.01151" lon="2.99813">
        <ele>53.97119140625</ele>
        <time>2011-02-28T15:16:25Z</time>
      </trkpt>
      <trkpt lat="43.01152" lon="2.99821">
        <ele>53.97119140625</ele>
        <time>2011-02-28T15:16:27Z</time>
      </trkpt>
      <trkpt lat="43.01156" lon="2.99848">
        <ele>54.932373046875</ele>
        <time>2011-02-28T15:16:32Z</time>
      </trkpt>
      <trkpt lat="43.01157" lon="2.99866">
        <ele>55.4130859375</ele>
        <time>2011-02-28T15:16:35Z</time>
      </trkpt>
      <trkpt lat="43.01163" lon="2.99888">
        <ele>53.97119140625</ele>
        <time>2011-02-28T15:16:40Z</time>
      </trkpt>
      <trkpt lat="43.01171" lon="2.99889">
        <ele>53.490478515625</ele>
        <time>2011-02-28T15:16:42Z</time>
      </trkpt>
      <trkpt lat="43.01203" lon="2.99897">
        <ele>49.645263671875</ele>
        <time>2011-02-28T15:16:48Z</time>
      </trkpt>
      <trkpt lat="43.01206" lon="2.99898">
        <ele>48.683959960938</ele>
        <time>2011-02-28T15:16:49Z</time>
      </trkpt>
      <trkpt lat="43.01226" lon="2.99895">
        <ele>45.319213867188</ele>
        <time>2011-02-28T15:16:53Z</time>
      </trkpt>
      <trkpt lat="43.01251" lon="2.99907">
        <ele>40.993408203125</ele>
        <time>2011-02-28T15:16:59Z</time>
      </trkpt>
      <trkpt lat="43.01256" lon="2.9991">
        <ele>40.032104492188</ele>
        <time>2011-02-28T15:17:00Z</time>
      </trkpt>
      <trkpt lat="43.01267" lon="2.99919">
        <ele>38.590087890625</ele>
        <time>2011-02-28T15:17:02Z</time>
      </trkpt>
      <trkpt lat="43.01292" lon="2.99934">
        <ele>34.744873046875</ele>
        <time>2011-02-28T15:17:07Z</time>
      </trkpt>
      <trkpt lat="43.01314" lon="2.99939">
        <ele>31.380126953125</ele>
        <time>2011-02-28T15:17:11Z</time>
      </trkpt>
      <trkpt lat="43.01334" lon="2.99925">
        <ele>28.976928710938</ele>
        <time>2011-02-28T15:17:15Z</time>
      </trkpt>
      <trkpt lat="43.01351" lon="2.99916">
        <ele>25.131713867188</ele>
        <time>2011-02-28T15:17:19Z</time>
      </trkpt>
      <trkpt lat="43.01355" lon="2.99919">
        <ele>23.208984375</ele>
        <time>2011-02-28T15:17:22Z</time>
      </trkpt>
      <trkpt lat="43.01364" lon="2.99922">
        <ele>22.24755859375</ele>
        <time>2011-02-28T15:17:26Z</time>
      </trkpt>
      <trkpt lat="43.01364" lon="2.99922">
        <ele>22.24755859375</ele>
        <time>2011-02-28T15:17:34Z</time>
      </trkpt>
      <trkpt lat="43.01364" lon="2.99922">
        <ele>22.24755859375</ele>
        <time>2011-02-28T15:17:44Z</time>
      </trkpt>
      <trkpt lat="43.01377" lon="2.99918">
        <ele>22.24755859375</ele>
        <time>2011-02-28T15:17:50Z</time>
      </trkpt>
      <trkpt lat="43.01394" lon="2.99914">
        <ele>21.286376953125</ele>
        <time>2011-02-28T15:17:56Z</time>
      </trkpt>
      <trkpt lat="43.0141" lon="2.99918">
        <ele>21.286376953125</ele>
        <time>2011-02-28T15:18:02Z</time>
      </trkpt>
      <trkpt lat="43.01413" lon="2.99918">
        <ele>21.286376953125</ele>
        <time>2011-02-28T15:18:03Z</time>
      </trkpt>
      <trkpt lat="43.01421" lon="2.99941">
        <ele>23.689575195312</ele>
        <time>2011-02-28T15:18:10Z</time>
      </trkpt>
      <trkpt lat="43.0142" lon="2.99967">
        <ele>26.573608398438</ele>
        <time>2011-02-28T15:18:16Z</time>
      </trkpt>
      <trkpt lat="43.0142" lon="2.9997">
        <ele>27.054321289062</ele>
        <time>2011-02-28T15:18:17Z</time>
      </trkpt>
      <trkpt lat="43.01429" lon="2.99968">
        <ele>27.054321289062</ele>
        <time>2011-02-28T15:18:22Z</time>
      </trkpt>
      <trkpt lat="43.01442" lon="2.99967">
        <ele>25.6123046875</ele>
        <time>2011-02-28T15:18:26Z</time>
      </trkpt>
      <trkpt lat="43.01447" lon="2.99963">
        <ele>24.651000976562</ele>
        <time>2011-02-28T15:18:28Z</time>
      </trkpt>
      <trkpt lat="43.01453" lon="2.9997">
        <ele>21.766967773438</ele>
        <time>2011-02-28T15:18:34Z</time>
      </trkpt>
      <trkpt lat="43.01463" lon="2.99974">
        <ele>18.883056640625</ele>
        <time>2011-02-28T15:18:38Z</time>
      </trkpt>
      <trkpt lat="43.01477" lon="2.99958">
        <ele>16.96044921875</ele>
        <time>2011-02-28T15:18:42Z</time>
      </trkpt>
      <trkpt lat="43.01485" lon="2.99959">
        <ele>15.518432617188</ele>
        <time>2011-02-28T15:18:45Z</time>
      </trkpt>
      <trkpt lat="43.01486" lon="2.99963">
        <ele>14.557006835938</ele>
        <time>2011-02-28T15:18:50Z</time>
      </trkpt>
      <trkpt lat="43.01486" lon="2.99962">
        <ele>14.557006835938</ele>
        <time>2011-02-28T15:19:00Z</time>
      </trkpt>
      <trkpt lat="43.01482" lon="2.99956">
        <ele>14.557006835938</ele>
        <time>2011-02-28T15:19:06Z</time>
      </trkpt>
      <trkpt lat="43.01471" lon="2.99965">
        <ele>16.96044921875</ele>
        <time>2011-02-28T15:19:12Z</time>
      </trkpt>
      <trkpt lat="43.01469" lon="2.99968">
        <ele>19.36376953125</ele>
        <time>2011-02-28T15:19:16Z</time>
      </trkpt>
      <trkpt lat="43.01468" lon="2.99967">
        <ele>21.766967773438</ele>
        <time>2011-02-28T15:19:35Z</time>
      </trkpt>
      <trkpt lat="43.01468" lon="2.99967">
        <ele>21.766967773438</ele>
        <time>2011-02-28T15:19:37Z</time>
      </trkpt>
      <trkpt lat="43.01476" lon="2.99959">
        <ele>21.766967773438</ele>
        <time>2011-02-28T15:19:43Z</time>
      </trkpt>
      <trkpt lat="43.01487" lon="2.99956">
        <ele>22.728271484375</ele>
        <time>2011-02-28T15:19:49Z</time>
      </trkpt>
      <trkpt lat="43.01488" lon="2.99951">
        <ele>22.24755859375</ele>
        <time>2011-02-28T15:19:52Z</time>
      </trkpt>
      <trkpt lat="43.01484" lon="2.99933">
        <ele>19.844360351562</ele>
        <time>2011-02-28T15:20:00Z</time>
      </trkpt>
      <trkpt lat="43.01474" lon="2.99919">
        <ele>17.921752929688</ele>
        <time>2011-02-28T15:20:07Z</time>
      </trkpt>
      <trkpt lat="43.01463" lon="2.99914">
        <ele>16.479736328125</ele>
        <time>2011-02-28T15:20:13Z</time>
      </trkpt>
      <trkpt lat="43.01459" lon="2.99914">
        <ele>15.9990234375</ele>
        <time>2011-02-28T15:20:17Z</time>
      </trkpt>
      <trkpt lat="43.01465" lon="2.99916">
        <ele>15.037719726562</ele>
        <time>2011-02-28T15:20:22Z</time>
      </trkpt>
      <trkpt lat="43.01475" lon="2.99918">
        <ele>14.076416015625</ele>
        <time>2011-02-28T15:20:30Z</time>
      </trkpt>
      <trkpt lat="43.01474" lon="2.99918">
        <ele>13.595825195312</ele>
        <time>2011-02-28T15:20:35Z</time>
      </trkpt>
      <trkpt lat="43.01466" lon="2.99916">
        <ele>13.115112304688</ele>
        <time>2011-02-28T15:20:40Z</time>
      </trkpt>
      <trkpt lat="43.01449" lon="2.99916">
        <ele>12.634399414062</ele>
        <time>2011-02-28T15:20:49Z</time>
      </trkpt>
      <trkpt lat="43.01443" lon="2.99915">
        <ele>12.634399414062</ele>
        <time>2011-02-28T15:20:53Z</time>
      </trkpt>
      <trkpt lat="43.01436" lon="2.99896">
        <ele>13.115112304688</ele>
        <time>2011-02-28T15:21:01Z</time>
      </trkpt>
      <trkpt lat="43.01429" lon="2.9987">
        <ele>13.115112304688</ele>
        <time>2011-02-28T15:21:10Z</time>
      </trkpt>
      <trkpt lat="43.01415" lon="2.99843">
        <ele>13.115112304688</ele>
        <time>2011-02-28T15:21:18Z</time>
      </trkpt>
      <trkpt lat="43.01401" lon="2.99813">
        <ele>13.115112304688</ele>
        <time>2011-02-28T15:21:26Z</time>
      </trkpt>
      <trkpt lat="43.01397" lon="2.99783">
        <ele>12.634399414062</ele>
        <time>2011-02-28T15:21:34Z</time>
      </trkpt>
      <trkpt lat="43.01398" lon="2.99751">
        <ele>12.15380859375</ele>
        <time>2011-02-28T15:21:41Z</time>
      </trkpt>
      <trkpt lat="43.01392" lon="2.99728">
        <ele>13.115112304688</ele>
        <time>2011-02-28T15:21:47Z</time>
      </trkpt>
      <trkpt lat="43.0138" lon="2.9972">
        <ele>13.115112304688</ele>
        <time>2011-02-28T15:21:52Z</time>
      </trkpt>
      <trkpt lat="43.01357" lon="2.99715">
        <ele>13.595825195312</ele>
        <time>2011-02-28T15:22:00Z</time>
      </trkpt>
      <trkpt lat="43.01348" lon="2.99697">
        <ele>14.076416015625</ele>
        <time>2011-02-28T15:22:06Z</time>
      </trkpt>
      <trkpt lat="43.01342" lon="2.99682">
        <ele>14.076416015625</ele>
        <time>2011-02-28T15:22:12Z</time>
      </trkpt>
      <trkpt lat="43.01336" lon="2.99668">
        <ele>13.595825195312</ele>
        <time>2011-02-28T15:22:17Z</time>
      </trkpt>
      <trkpt lat="43.01332" lon="2.99659">
        <ele>13.595825195312</ele>
        <time>2011-02-28T15:22:20Z</time>
      </trkpt>
      <trkpt lat="43.01327" lon="2.99632">
        <ele>14.557006835938</ele>
        <time>2011-02-28T15:22:27Z</time>
      </trkpt>
      <trkpt lat="43.01331" lon="2.99601">
        <ele>15.518432617188</ele>
        <time>2011-02-28T15:22:34Z</time>
      </trkpt>
      <trkpt lat="43.0133" lon="2.99578">
        <ele>15.9990234375</ele>
        <time>2011-02-28T15:22:40Z</time>
      </trkpt>
      <trkpt lat="43.01329" lon="2.99567">
        <ele>15.518432617188</ele>
        <time>2011-02-28T15:22:45Z</time>
      </trkpt>
      <trkpt lat="43.01326" lon="2.99557">
        <ele>15.518432617188</ele>
        <time>2011-02-28T15:22:50Z</time>
      </trkpt>
      <trkpt lat="43.01321" lon="2.99551">
        <ele>15.518432617188</ele>
        <time>2011-02-28T15:22:54Z</time>
      </trkpt>
      <trkpt lat="43.01303" lon="2.99545">
        <ele>15.037719726562</ele>
        <time>2011-02-28T15:23:02Z</time>
      </trkpt>
      <trkpt lat="43.01283" lon="2.99533">
        <ele>15.037719726562</ele>
        <time>2011-02-28T15:23:11Z</time>
      </trkpt>
      <trkpt lat="43.01264" lon="2.99519">
        <ele>15.9990234375</ele>
        <time>2011-02-28T15:23:20Z</time>
      </trkpt>
      <trkpt lat="43.01256" lon="2.99498">
        <ele>16.479736328125</ele>
        <time>2011-02-28T15:23:27Z</time>
      </trkpt>
      <trkpt lat="43.01256" lon="2.99473">
        <ele>16.96044921875</ele>
        <time>2011-02-28T15:23:34Z</time>
      </trkpt>
      <trkpt lat="43.01254" lon="2.99446">
        <ele>17.921752929688</ele>
        <time>2011-02-28T15:23:42Z</time>
      </trkpt>
      <trkpt lat="43.0125" lon="2.99426">
        <ele>19.36376953125</ele>
        <time>2011-02-28T15:23:49Z</time>
      </trkpt>
      <trkpt lat="43.01242" lon="2.99407">
        <ele>19.844360351562</ele>
        <time>2011-02-28T15:23:57Z</time>
      </trkpt>
      <trkpt lat="43.01237" lon="2.99393">
        <ele>20.8056640625</ele>
        <time>2011-02-28T15:24:04Z</time>
      </trkpt>
      <trkpt lat="43.01234" lon="2.99387">
        <ele>21.766967773438</ele>
        <time>2011-02-28T15:24:08Z</time>
      </trkpt>
      <trkpt lat="43.01224" lon="2.9937">
        <ele>24.651000976562</ele>
        <time>2011-02-28T15:24:17Z</time>
      </trkpt>
      <trkpt lat="43.01222" lon="2.99363">
        <ele>26.573608398438</ele>
        <time>2011-02-28T15:24:20Z</time>
      </trkpt>
      <trkpt lat="43.0122" lon="2.99351">
        <ele>28.976928710938</ele>
        <time>2011-02-28T15:24:26Z</time>
      </trkpt>
      <trkpt lat="43.01224" lon="2.99348">
        <ele>29.938110351562</ele>
        <time>2011-02-28T15:24:29Z</time>
      </trkpt>
      <trkpt lat="43.01233" lon="2.99343">
        <ele>31.860717773438</ele>
        <time>2011-02-28T15:24:34Z</time>
      </trkpt>
      <trkpt lat="43.01237" lon="2.9934">
        <ele>33.302856445312</ele>
        <time>2011-02-28T15:24:38Z</time>
      </trkpt>
      <trkpt lat="43.01246" lon="2.99321">
        <ele>32.822265625</ele>
        <time>2011-02-28T15:24:45Z</time>
      </trkpt>
      <trkpt lat="43.01261" lon="2.99305">
        <ele>33.302856445312</ele>
        <time>2011-02-28T15:24:52Z</time>
      </trkpt>
      <trkpt lat="43.01278" lon="2.99286">
        <ele>34.744873046875</ele>
        <time>2011-02-28T15:24:58Z</time>
      </trkpt>
      <trkpt lat="43.01284" lon="2.99278">
        <ele>34.744873046875</ele>
        <time>2011-02-28T15:25:01Z</time>
      </trkpt>
      <trkpt lat="43.01289" lon="2.99263">
        <ele>35.225463867188</ele>
        <time>2011-02-28T15:25:08Z</time>
      </trkpt>
      <trkpt lat="43.01292" lon="2.99258">
        <ele>35.7060546875</ele>
        <time>2011-02-28T15:25:11Z</time>
      </trkpt>
      <trkpt lat="43.013" lon="2.99259">
        <ele>34.26416015625</ele>
        <time>2011-02-28T15:25:17Z</time>
      </trkpt>
      <trkpt lat="43.0132" lon="2.99263">
        <ele>27.054321289062</ele>
        <time>2011-02-28T15:25:22Z</time>
      </trkpt>
      <trkpt lat="43.01329" lon="2.99263">
        <ele>23.208984375</ele>
        <time>2011-02-28T15:25:25Z</time>
      </trkpt>
      <trkpt lat="43.01329" lon="2.99263">
        <ele>22.24755859375</ele>
        <time>2011-02-28T15:25:50Z</time>
      </trkpt>
      <trkpt lat="43.01328" lon="2.99263">
        <ele>21.286376953125</ele>
        <time>2011-02-28T15:26:00Z</time>
      </trkpt>
      <trkpt lat="43.01325" lon="2.99263">
        <ele>20.8056640625</ele>
        <time>2011-02-28T15:26:08Z</time>
      </trkpt>
      <trkpt lat="43.01325" lon="2.99263">
        <ele>20.8056640625</ele>
        <time>2011-02-28T15:26:43Z</time>
      </trkpt>
      <trkpt lat="43.01324" lon="2.99262">
        <ele>20.324951171875</ele>
        <time>2011-02-28T15:27:02Z</time>
      </trkpt>
      <trkpt lat="43.01324" lon="2.99261">
        <ele>20.324951171875</ele>
        <time>2011-02-28T15:27:14Z</time>
      </trkpt>
      <trkpt lat="43.01324" lon="2.99261">
        <ele>20.324951171875</ele>
        <time>2011-02-28T15:27:28Z</time>
      </trkpt>
      <trkpt lat="43.01324" lon="2.99258">
        <ele>20.324951171875</ele>
        <time>2011-02-28T15:28:43Z</time>
      </trkpt>
      <trkpt lat="43.01327" lon="2.99242">
        <ele>18.883056640625</ele>
        <time>2011-02-28T15:28:51Z</time>
      </trkpt>
      <trkpt lat="43.01332" lon="2.99216">
        <ele>18.883056640625</ele>
        <time>2011-02-28T15:29:00Z</time>
      </trkpt>
      <trkpt lat="43.01338" lon="2.99191">
        <ele>19.36376953125</ele>
        <time>2011-02-28T15:29:08Z</time>
      </trkpt>
      <trkpt lat="43.01336" lon="2.99168">
        <ele>20.8056640625</ele>
        <time>2011-02-28T15:29:15Z</time>
      </trkpt>
      <trkpt lat="43.0133" lon="2.99157">
        <ele>22.728271484375</ele>
        <time>2011-02-28T15:29:20Z</time>
      </trkpt>
      <trkpt lat="43.01326" lon="2.9915">
        <ele>23.689575195312</ele>
        <time>2011-02-28T15:29:25Z</time>
      </trkpt>
      <trkpt lat="43.01326" lon="2.99143">
        <ele>24.170288085938</ele>
        <time>2011-02-28T15:29:28Z</time>
      </trkpt>
      <trkpt lat="43.01327" lon="2.9914">
        <ele>24.170288085938</ele>
        <time>2011-02-28T15:29:31Z</time>
      </trkpt>
      <trkpt lat="43.01328" lon="2.99126">
        <ele>24.651000976562</ele>
        <time>2011-02-28T15:29:38Z</time>
      </trkpt>
      <trkpt lat="43.01326" lon="2.99116">
        <ele>26.573608398438</ele>
        <time>2011-02-28T15:29:43Z</time>
      </trkpt>
      <trkpt lat="43.01326" lon="2.99105">
        <ele>28.015502929688</ele>
        <time>2011-02-28T15:29:47Z</time>
      </trkpt>
      <trkpt lat="43.01329" lon="2.99092">
        <ele>30.418823242188</ele>
        <time>2011-02-28T15:29:52Z</time>
      </trkpt>
      <trkpt lat="43.01321" lon="2.99078">
        <ele>31.860717773438</ele>
        <time>2011-02-28T15:29:58Z</time>
      </trkpt>
      <trkpt lat="43.01315" lon="2.99065">
        <ele>34.26416015625</ele>
        <time>2011-02-28T15:30:03Z</time>
      </trkpt>
      <trkpt lat="43.01314" lon="2.99063">
        <ele>34.744873046875</ele>
        <time>2011-02-28T15:30:04Z</time>
      </trkpt>
      <trkpt lat="43.01317" lon="2.99053">
        <ele>36.66748046875</ele>
        <time>2011-02-28T15:30:09Z</time>
      </trkpt>
      <trkpt lat="43.01326" lon="2.99044">
        <ele>39.070678710938</ele>
        <time>2011-02-28T15:30:16Z</time>
      </trkpt>
      <trkpt lat="43.01336" lon="2.99026">
        <ele>38.590087890625</ele>
        <time>2011-02-28T15:30:22Z</time>
      </trkpt>
      <trkpt lat="43.01339" lon="2.99021">
        <ele>38.109375</ele>
        <time>2011-02-28T15:30:24Z</time>
      </trkpt>
      <trkpt lat="43.01344" lon="2.99006">
        <ele>33.302856445312</ele>
        <time>2011-02-28T15:30:32Z</time>
      </trkpt>
      <trkpt lat="43.01342" lon="2.99005">
        <ele>31.860717773438</ele>
        <time>2011-02-28T15:30:34Z</time>
      </trkpt>
      <trkpt lat="43.01332" lon="2.9901">
        <ele>31.380126953125</ele>
        <time>2011-02-28T15:30:40Z</time>
      </trkpt>
      <trkpt lat="43.01323" lon="2.99008">
        <ele>30.418823242188</ele>
        <time>2011-02-28T15:30:45Z</time>
      </trkpt>
      <trkpt lat="43.01309" lon="2.9901">
        <ele>29.45751953125</ele>
        <time>2011-02-28T15:30:53Z</time>
      </trkpt>
      <trkpt lat="43.01306" lon="2.99009">
        <ele>28.976928710938</ele>
        <time>2011-02-28T15:30:54Z</time>
      </trkpt>
      <trkpt lat="43.01301" lon="2.98998">
        <ele>27.054321289062</ele>
        <time>2011-02-28T15:30:59Z</time>
      </trkpt>
      <trkpt lat="43.01302" lon="2.98991">
        <ele>25.131713867188</ele>
        <time>2011-02-28T15:31:02Z</time>
      </trkpt>
      <trkpt lat="43.01306" lon="2.98989">
        <ele>23.208984375</ele>
        <time>2011-02-28T15:31:05Z</time>
      </trkpt>
      <trkpt lat="43.01318" lon="2.9898">
        <ele>23.208984375</ele>
        <time>2011-02-28T15:31:11Z</time>
      </trkpt>
      <trkpt lat="43.01328" lon="2.98978">
        <ele>25.131713867188</ele>
        <time>2011-02-28T15:31:16Z</time>
      </trkpt>
      <trkpt lat="43.01337" lon="2.98982">
        <ele>27.054321289062</ele>
        <time>2011-02-28T15:31:21Z</time>
      </trkpt>
      <trkpt lat="43.01353" lon="2.9899">
        <ele>29.45751953125</ele>
        <time>2011-02-28T15:31:28Z</time>
      </trkpt>
      <trkpt lat="43.01356" lon="2.98994">
        <ele>29.45751953125</ele>
        <time>2011-02-28T15:31:30Z</time>
      </trkpt>
      <trkpt lat="43.01362" lon="2.98999">
        <ele>29.938110351562</ele>
        <time>2011-02-28T15:31:33Z</time>
      </trkpt>
      <trkpt lat="43.01373" lon="2.99027">
        <ele>27.054321289062</ele>
        <time>2011-02-28T15:31:40Z</time>
      </trkpt>
      <trkpt lat="43.01374" lon="2.9903">
        <ele>26.573608398438</ele>
        <time>2011-02-28T15:31:41Z</time>
      </trkpt>
      <trkpt lat="43.01376" lon="2.99042">
        <ele>26.092895507812</ele>
        <time>2011-02-28T15:31:44Z</time>
      </trkpt>
      <trkpt lat="43.01381" lon="2.99069">
        <ele>25.131713867188</ele>
        <time>2011-02-28T15:31:51Z</time>
      </trkpt>
      <trkpt lat="43.01377" lon="2.99111">
        <ele>23.208984375</ele>
        <time>2011-02-28T15:32:00Z</time>
      </trkpt>
      <trkpt lat="43.01373" lon="2.99143">
        <ele>21.286376953125</ele>
        <time>2011-02-28T15:32:08Z</time>
      </trkpt>
      <trkpt lat="43.01373" lon="2.99146">
        <ele>21.286376953125</ele>
        <time>2011-02-28T15:32:13Z</time>
      </trkpt>
      <trkpt lat="43.01373" lon="2.99147">
        <ele>21.286376953125</ele>
        <time>2011-02-28T15:32:21Z</time>
      </trkpt>
      <trkpt lat="43.01373" lon="2.99147">
        <ele>21.286376953125</ele>
        <time>2011-02-28T15:32:51Z</time>
      </trkpt>
      <trkpt lat="43.01373" lon="2.99147">
        <ele>21.286376953125</ele>
        <time>2011-02-28T15:33:19Z</time>
      </trkpt>
      <trkpt lat="43.01372" lon="2.99148">
        <ele>20.8056640625</ele>
        <time>2011-02-28T15:33:21Z</time>
      </trkpt>
      <trkpt lat="43.01366" lon="2.99165">
        <ele>20.324951171875</ele>
        <time>2011-02-28T15:33:28Z</time>
      </trkpt>
      <trkpt lat="43.01361" lon="2.99168">
        <ele>19.844360351562</ele>
        <time>2011-02-28T15:33:30Z</time>
      </trkpt>
      <trkpt lat="43.01346" lon="2.9917">
        <ele>19.844360351562</ele>
        <time>2011-02-28T15:33:36Z</time>
      </trkpt>
      <trkpt lat="43.0134" lon="2.99196">
        <ele>20.324951171875</ele>
        <time>2011-02-28T15:33:43Z</time>
      </trkpt>
      <trkpt lat="43.01333" lon="2.99228">
        <ele>19.36376953125</ele>
        <time>2011-02-28T15:33:51Z</time>
      </trkpt>
      <trkpt lat="43.01325" lon="2.99268">
        <ele>18.40234375</ele>
        <time>2011-02-28T15:34:00Z</time>
      </trkpt>
      <trkpt lat="43.01327" lon="2.99298">
        <ele>17.921752929688</ele>
        <time>2011-02-28T15:34:06Z</time>
      </trkpt>
      <trkpt lat="43.01324" lon="2.99326">
        <ele>17.441162109375</ele>
        <time>2011-02-28T15:34:12Z</time>
      </trkpt>
      <trkpt lat="43.01323" lon="2.99361">
        <ele>16.96044921875</ele>
        <time>2011-02-28T15:34:19Z</time>
      </trkpt>
      <trkpt lat="43.01315" lon="2.99374">
        <ele>16.96044921875</ele>
        <time>2011-02-28T15:34:23Z</time>
      </trkpt>
      <trkpt lat="43.01306" lon="2.99385">
        <ele>17.441162109375</ele>
        <time>2011-02-28T15:34:27Z</time>
      </trkpt>
      <trkpt lat="43.01285" lon="2.99387">
        <ele>18.883056640625</ele>
        <time>2011-02-28T15:34:34Z</time>
      </trkpt>
      <trkpt lat="43.01262" lon="2.99391">
        <ele>21.766967773438</ele>
        <time>2011-02-28T15:34:42Z</time>
      </trkpt>
      <trkpt lat="43.01251" lon="2.99405">
        <ele>23.208984375</ele>
        <time>2011-02-28T15:34:49Z</time>
      </trkpt>
      <trkpt lat="43.01254" lon="2.99429">
        <ele>23.208984375</ele>
        <time>2011-02-28T15:34:55Z</time>
      </trkpt>
      <trkpt lat="43.01259" lon="2.99466">
        <ele>21.286376953125</ele>
        <time>2011-02-28T15:35:01Z</time>
      </trkpt>
      <trkpt lat="43.01259" lon="2.99474">
        <ele>20.8056640625</ele>
        <time>2011-02-28T15:35:02Z</time>
      </trkpt>
      <trkpt lat="43.01258" lon="2.99488">
        <ele>20.324951171875</ele>
        <time>2011-02-28T15:35:04Z</time>
      </trkpt>
      <trkpt lat="43.01266" lon="2.99515">
        <ele>18.883056640625</ele>
        <time>2011-02-28T15:35:08Z</time>
      </trkpt>
      <trkpt lat="43.0127" lon="2.99519">
        <ele>17.921752929688</ele>
        <time>2011-02-28T15:35:09Z</time>
      </trkpt>
      <trkpt lat="43.01289" lon="2.99532">
        <ele>16.479736328125</ele>
        <time>2011-02-28T15:35:13Z</time>
      </trkpt>
      <trkpt lat="43.013" lon="2.99538">
        <ele>15.518432617188</ele>
        <time>2011-02-28T15:35:15Z</time>
      </trkpt>
      <trkpt lat="43.01316" lon="2.99547">
        <ele>15.037719726562</ele>
        <time>2011-02-28T15:35:18Z</time>
      </trkpt>
      <trkpt lat="43.0133" lon="2.99575">
        <ele>15.518432617188</ele>
        <time>2011-02-28T15:35:23Z</time>
      </trkpt>
      <trkpt lat="43.01331" lon="2.99581">
        <ele>15.518432617188</ele>
        <time>2011-02-28T15:35:24Z</time>
      </trkpt>
      <trkpt lat="43.0133" lon="2.99595">
        <ele>15.518432617188</ele>
        <time>2011-02-28T15:35:26Z</time>
      </trkpt>
      <trkpt lat="43.01327" lon="2.99616">
        <ele>15.037719726562</ele>
        <time>2011-02-28T15:35:29Z</time>
      </trkpt>
      <trkpt lat="43.01332" lon="2.99659">
        <ele>15.037719726562</ele>
        <time>2011-02-28T15:35:34Z</time>
      </trkpt>
      <trkpt lat="43.01335" lon="2.99669">
        <ele>15.037719726562</ele>
        <time>2011-02-28T15:35:35Z</time>
      </trkpt>
      <trkpt lat="43.01349" lon="2.99695">
        <ele>15.037719726562</ele>
        <time>2011-02-28T15:35:38Z</time>
      </trkpt>
      <trkpt lat="43.01367" lon="2.99719">
        <ele>15.037719726562</ele>
        <time>2011-02-28T15:35:42Z</time>
      </trkpt>
      <trkpt lat="43.01385" lon="2.99721">
        <ele>14.557006835938</ele>
        <time>2011-02-28T15:35:45Z</time>
      </trkpt>
      <trkpt lat="43.01392" lon="2.99735">
        <ele>14.557006835938</ele>
        <time>2011-02-28T15:35:47Z</time>
      </trkpt>
      <trkpt lat="43.01398" lon="2.99782">
        <ele>14.557006835938</ele>
        <time>2011-02-28T15:35:54Z</time>
      </trkpt>
      <trkpt lat="43.01401" lon="2.9981">
        <ele>13.595825195312</ele>
        <time>2011-02-28T15:36:00Z</time>
      </trkpt>
      <trkpt lat="43.01414" lon="2.99841">
        <ele>14.557006835938</ele>
        <time>2011-02-28T15:36:07Z</time>
      </trkpt>
      <trkpt lat="43.01431" lon="2.9987">
        <ele>15.518432617188</ele>
        <time>2011-02-28T15:36:14Z</time>
      </trkpt>
      <trkpt lat="43.01439" lon="2.99899">
        <ele>16.479736328125</ele>
        <time>2011-02-28T15:36:21Z</time>
      </trkpt>
      <trkpt lat="43.0144" lon="2.99904">
        <ele>15.9990234375</ele>
        <time>2011-02-28T15:36:22Z</time>
      </trkpt>
      <trkpt lat="43.01453" lon="2.99914">
        <ele>14.076416015625</ele>
        <time>2011-02-28T15:36:26Z</time>
      </trkpt>
      <trkpt lat="43.01463" lon="2.99912">
        <ele>13.115112304688</ele>
        <time>2011-02-28T15:36:30Z</time>
      </trkpt>
      <trkpt lat="43.01478" lon="2.99918">
        <ele>13.595825195312</ele>
        <time>2011-02-28T15:36:35Z</time>
      </trkpt>
      <trkpt lat="43.01483" lon="2.99926">
        <ele>14.076416015625</ele>
        <time>2011-02-28T15:36:37Z</time>
      </trkpt>
      <trkpt lat="43.01488" lon="2.99949">
        <ele>13.595825195312</ele>
        <time>2011-02-28T15:36:41Z</time>
      </trkpt>
      <trkpt lat="43.01495" lon="2.99992">
        <ele>13.595825195312</ele>
        <time>2011-02-28T15:36:48Z</time>
      </trkpt>
      <trkpt lat="43.01503" lon="2.99996">
        <ele>13.595825195312</ele>
        <time>2011-02-28T15:36:50Z</time>
      </trkpt>
      <trkpt lat="43.01513" lon="2.99997">
        <ele>13.595825195312</ele>
        <time>2011-02-28T15:36:52Z</time>
      </trkpt>
      <trkpt lat="43.01523" lon="2.99998">
        <ele>13.115112304688</ele>
        <time>2011-02-28T15:36:54Z</time>
      </trkpt>
      <trkpt lat="43.01533" lon="2.99999">
        <ele>12.634399414062</ele>
        <time>2011-02-28T15:36:56Z</time>
      </trkpt>
      <trkpt lat="43.01547" lon="3.00019">
        <ele>11.673217773438</ele>
        <time>2011-02-28T15:37:01Z</time>
      </trkpt>
      <trkpt lat="43.01546" lon="3.00031">
        <ele>11.192504882812</ele>
        <time>2011-02-28T15:37:03Z</time>
      </trkpt>
      <trkpt lat="43.01546" lon="3.00081">
        <ele>10.711791992188</ele>
        <time>2011-02-28T15:37:12Z</time>
      </trkpt>
      <trkpt lat="43.01546" lon="3.0009">
        <ele>10.711791992188</ele>
        <time>2011-02-28T15:37:14Z</time>
      </trkpt>
      <trkpt lat="43.01551" lon="3.00111">
        <ele>10.231201171875</ele>
        <time>2011-02-28T15:37:18Z</time>
      </trkpt>
      <trkpt lat="43.01553" lon="3.00162">
        <ele>10.711791992188</ele>
        <time>2011-02-28T15:37:26Z</time>
      </trkpt>
      <trkpt lat="43.01553" lon="3.00169">
        <ele>10.711791992188</ele>
        <time>2011-02-28T15:37:27Z</time>
      </trkpt>
      <trkpt lat="43.01553" lon="3.00182">
        <ele>10.231201171875</ele>
        <time>2011-02-28T15:37:29Z</time>
      </trkpt>
      <trkpt lat="43.01555" lon="3.00214">
        <ele>9.7506103515625</ele>
        <time>2011-02-28T15:37:34Z</time>
      </trkpt>
      <trkpt lat="43.01547" lon="3.00249">
        <ele>9.7506103515625</ele>
        <time>2011-02-28T15:37:40Z</time>
      </trkpt>
      <trkpt lat="43.01544" lon="3.00254">
        <ele>9.7506103515625</ele>
        <time>2011-02-28T15:37:41Z</time>
      </trkpt>
      <trkpt lat="43.01532" lon="3.00284">
        <ele>10.711791992188</ele>
        <time>2011-02-28T15:37:48Z</time>
      </trkpt>
      <trkpt lat="43.01536" lon="3.00306">
        <ele>11.192504882812</ele>
        <time>2011-02-28T15:37:54Z</time>
      </trkpt>
      <trkpt lat="43.01546" lon="3.00304">
        <ele>10.711791992188</ele>
        <time>2011-02-28T15:37:58Z</time>
      </trkpt>
      <trkpt lat="43.0157" lon="3.00291">
        <ele>8.7891845703125</ele>
        <time>2011-02-28T15:38:06Z</time>
      </trkpt>
      <trkpt lat="43.01575" lon="3.003">
        <ele>9.7506103515625</ele>
        <time>2011-02-28T15:38:11Z</time>
      </trkpt>
      <trkpt lat="43.01578" lon="3.00303">
        <ele>9.7506103515625</ele>
        <time>2011-02-28T15:38:13Z</time>
      </trkpt>
      <trkpt lat="43.01593" lon="3.00314">
        <ele>8.7891845703125</ele>
        <time>2011-02-28T15:38:20Z</time>
      </trkpt>
      <trkpt lat="43.01613" lon="3.00324">
        <ele>7.827880859375</ele>
        <time>2011-02-28T15:38:28Z</time>
      </trkpt>
      <trkpt lat="43.01629" lon="3.00332">
        <ele>8.30859375</ele>
        <time>2011-02-28T15:38:34Z</time>
      </trkpt>
      <trkpt lat="43.01648" lon="3.00331">
        <ele>8.30859375</ele>
        <time>2011-02-28T15:38:39Z</time>
      </trkpt>
      <trkpt lat="43.01664" lon="3.00326">
        <ele>7.34716796875</ele>
        <time>2011-02-28T15:38:43Z</time>
      </trkpt>
      <trkpt lat="43.01674" lon="3.0032">
        <ele>6.866455078125</ele>
        <time>2011-02-28T15:38:47Z</time>
      </trkpt>
      <trkpt lat="43.01687" lon="3.00314">
        <ele>7.34716796875</ele>
        <time>2011-02-28T15:38:54Z</time>
      </trkpt>
      <trkpt lat="43.01702" lon="3.00327">
        <ele>7.34716796875</ele>
        <time>2011-02-28T15:39:00Z</time>
      </trkpt>
      <trkpt lat="43.01703" lon="3.00331">
        <ele>7.34716796875</ele>
        <time>2011-02-28T15:39:01Z</time>
      </trkpt>
      <trkpt lat="43.01717" lon="3.00375">
        <ele>7.827880859375</ele>
        <time>2011-02-28T15:39:11Z</time>
      </trkpt>
      <trkpt lat="43.01719" lon="3.0038">
        <ele>7.827880859375</ele>
        <time>2011-02-28T15:39:12Z</time>
      </trkpt>
      <trkpt lat="43.01725" lon="3.00395">
        <ele>7.827880859375</ele>
        <time>2011-02-28T15:39:15Z</time>
      </trkpt>
      <trkpt lat="43.01736" lon="3.00418">
        <ele>7.827880859375</ele>
        <time>2011-02-28T15:39:20Z</time>
      </trkpt>
      <trkpt lat="43.01754" lon="3.00455">
        <ele>8.7891845703125</ele>
        <time>2011-02-28T15:39:29Z</time>
      </trkpt>
      <trkpt lat="43.01775" lon="3.00488">
        <ele>8.7891845703125</ele>
        <time>2011-02-28T15:39:38Z</time>
      </trkpt>
      <trkpt lat="43.01779" lon="3.00496">
        <ele>8.7891845703125</ele>
        <time>2011-02-28T15:39:40Z</time>
      </trkpt>
      <trkpt lat="43.01794" lon="3.00497">
        <ele>8.30859375</ele>
        <time>2011-02-28T15:39:45Z</time>
      </trkpt>
      <trkpt lat="43.01802" lon="3.00499">
        <ele>8.7891845703125</ele>
        <time>2011-02-28T15:39:48Z</time>
      </trkpt>
      <trkpt lat="43.01806" lon="3.00518">
        <ele>9.7506103515625</ele>
        <time>2011-02-28T15:39:54Z</time>
      </trkpt>
      <trkpt lat="43.01804" lon="3.00521">
        <ele>9.7506103515625</ele>
        <time>2011-02-28T15:39:55Z</time>
      </trkpt>
      <trkpt lat="43.01787" lon="3.00535">
        <ele>13.115112304688</ele>
        <time>2011-02-28T15:40:02Z</time>
      </trkpt>
      <trkpt lat="43.01783" lon="3.00536">
        <ele>15.037719726562</ele>
        <time>2011-02-28T15:40:05Z</time>
      </trkpt>
      <trkpt lat="43.01783" lon="3.00545">
        <ele>16.96044921875</ele>
        <time>2011-02-28T15:40:11Z</time>
      </trkpt>
      <trkpt lat="43.01789" lon="3.00555">
        <ele>19.36376953125</ele>
        <time>2011-02-28T15:40:16Z</time>
      </trkpt>
      <trkpt lat="43.0179" lon="3.00558">
        <ele>19.844360351562</ele>
        <time>2011-02-28T15:40:17Z</time>
      </trkpt>
      <trkpt lat="43.01792" lon="3.00565">
        <ele>19.844360351562</ele>
        <time>2011-02-28T15:40:19Z</time>
      </trkpt>
      <trkpt lat="43.01789" lon="3.00582">
        <ele>18.883056640625</ele>
        <time>2011-02-28T15:40:25Z</time>
      </trkpt>
      <trkpt lat="43.01788" lon="3.00583">
        <ele>18.883056640625</ele>
        <time>2011-02-28T15:40:26Z</time>
      </trkpt>
      <trkpt lat="43.01781" lon="3.0059">
        <ele>19.844360351562</ele>
        <time>2011-02-28T15:40:31Z</time>
      </trkpt>
      <trkpt lat="43.01776" lon="3.00603">
        <ele>17.921752929688</ele>
        <time>2011-02-28T15:40:36Z</time>
      </trkpt>
      <trkpt lat="43.01776" lon="3.00622">
        <ele>14.557006835938</ele>
        <time>2011-02-28T15:40:41Z</time>
      </trkpt>
      <trkpt lat="43.01769" lon="3.00631">
        <ele>13.115112304688</ele>
        <time>2011-02-28T15:40:49Z</time>
      </trkpt>
      <trkpt lat="43.01769" lon="3.00632">
        <ele>13.115112304688</ele>
        <time>2011-02-28T15:41:17Z</time>
      </trkpt>
      <trkpt lat="43.01776" lon="3.00621">
        <ele>13.115112304688</ele>
        <time>2011-02-28T15:41:25Z</time>
      </trkpt>
      <trkpt lat="43.01776" lon="3.00614">
        <ele>14.076416015625</ele>
        <time>2011-02-28T15:41:27Z</time>
      </trkpt>
      <trkpt lat="43.01776" lon="3.00608">
        <ele>15.037719726562</ele>
        <time>2011-02-28T15:41:29Z</time>
      </trkpt>
      <trkpt lat="43.01777" lon="3.00597">
        <ele>19.36376953125</ele>
        <time>2011-02-28T15:41:35Z</time>
      </trkpt>
      <trkpt lat="43.01777" lon="3.00598">
        <ele>21.766967773438</ele>
        <time>2011-02-28T15:42:06Z</time>
      </trkpt>
      <trkpt lat="43.01775" lon="3.00604">
        <ele>20.324951171875</ele>
        <time>2011-02-28T15:42:12Z</time>
      </trkpt>
      <trkpt lat="43.01775" lon="3.00612">
        <ele>19.844360351562</ele>
        <time>2011-02-28T15:42:16Z</time>
      </trkpt>
      <trkpt lat="43.01775" lon="3.00613">
        <ele>19.844360351562</ele>
        <time>2011-02-28T15:42:17Z</time>
      </trkpt>
      <trkpt lat="43.01774" lon="3.00619">
        <ele>19.844360351562</ele>
        <time>2011-02-28T15:42:23Z</time>
      </trkpt>
      <trkpt lat="43.01769" lon="3.00628">
        <ele>18.883056640625</ele>
        <time>2011-02-28T15:42:30Z</time>
      </trkpt>
      <trkpt lat="43.01755" lon="3.00645">
        <ele>20.8056640625</ele>
        <time>2011-02-28T15:42:38Z</time>
      </trkpt>
      <trkpt lat="43.01753" lon="3.00648">
        <ele>21.286376953125</ele>
        <time>2011-02-28T15:42:39Z</time>
      </trkpt>
      <trkpt lat="43.01758" lon="3.0066">
        <ele>23.208984375</ele>
        <time>2011-02-28T15:42:44Z</time>
      </trkpt>
      <trkpt lat="43.0176" lon="3.00663">
        <ele>23.689575195312</ele>
        <time>2011-02-28T15:42:45Z</time>
      </trkpt>
      <trkpt lat="43.0177" lon="3.00669">
        <ele>26.092895507812</ele>
        <time>2011-02-28T15:42:51Z</time>
      </trkpt>
      <trkpt lat="43.0177" lon="3.00669">
        <ele>26.573608398438</ele>
        <time>2011-02-28T15:42:52Z</time>
      </trkpt>
      <trkpt lat="43.01771" lon="3.00671">
        <ele>26.573608398438</ele>
        <time>2011-02-28T15:42:54Z</time>
      </trkpt>
      <trkpt lat="43.0177" lon="3.00682">
        <ele>27.054321289062</ele>
        <time>2011-02-28T15:42:59Z</time>
      </trkpt>
      <trkpt lat="43.0177" lon="3.00688">
        <ele>28.015502929688</ele>
        <time>2011-02-28T15:43:04Z</time>
      </trkpt>
      <trkpt lat="43.01774" lon="3.00689">
        <ele>28.496215820312</ele>
        <time>2011-02-28T15:43:12Z</time>
      </trkpt>
      <trkpt lat="43.01777" lon="3.00686">
        <ele>29.938110351562</ele>
        <time>2011-02-28T15:43:19Z</time>
      </trkpt>
      <trkpt lat="43.01777" lon="3.00686">
        <ele>29.938110351562</ele>
        <time>2011-02-28T15:43:20Z</time>
      </trkpt>
      <trkpt lat="43.01785" lon="3.00687">
        <ele>29.938110351562</ele>
        <time>2011-02-28T15:43:26Z</time>
      </trkpt>
      <trkpt lat="43.01798" lon="3.00689">
        <ele>30.899536132812</ele>
        <time>2011-02-28T15:43:30Z</time>
      </trkpt>
      <trkpt lat="43.01799" lon="3.00689">
        <ele>30.899536132812</ele>
        <time>2011-02-28T15:43:31Z</time>
      </trkpt>
      <trkpt lat="43.0181" lon="3.00698">
        <ele>30.899536132812</ele>
        <time>2011-02-28T15:43:37Z</time>
      </trkpt>
      <trkpt lat="43.01811" lon="3.00699">
        <ele>30.899536132812</ele>
        <time>2011-02-28T15:43:42Z</time>
      </trkpt>
      <trkpt lat="43.01811" lon="3.00699">
        <ele>30.899536132812</ele>
        <time>2011-02-28T15:44:05Z</time>
      </trkpt>
      <trkpt lat="43.01811" lon="3.00701">
        <ele>30.899536132812</ele>
        <time>2011-02-28T15:44:07Z</time>
      </trkpt>
      <trkpt lat="43.01816" lon="3.00719">
        <ele>29.938110351562</ele>
        <time>2011-02-28T15:44:14Z</time>
      </trkpt>
      <trkpt lat="43.01824" lon="3.00735">
        <ele>28.496215820312</ele>
        <time>2011-02-28T15:44:18Z</time>
      </trkpt>
      <trkpt lat="43.01833" lon="3.00755">
        <ele>26.573608398438</ele>
        <time>2011-02-28T15:44:24Z</time>
      </trkpt>
      <trkpt lat="43.01824" lon="3.00777">
        <ele>27.534912109375</ele>
        <time>2011-02-28T15:44:31Z</time>
      </trkpt>
      <trkpt lat="43.01822" lon="3.00781">
        <ele>27.534912109375</ele>
        <time>2011-02-28T15:44:32Z</time>
      </trkpt>
      <trkpt lat="43.01828" lon="3.00797">
        <ele>26.092895507812</ele>
        <time>2011-02-28T15:44:37Z</time>
      </trkpt>
      <trkpt lat="43.0184" lon="3.00812">
        <ele>24.651000976562</ele>
        <time>2011-02-28T15:44:41Z</time>
      </trkpt>
      <trkpt lat="43.01858" lon="3.00818">
        <ele>23.208984375</ele>
        <time>2011-02-28T15:44:46Z</time>
      </trkpt>
      <trkpt lat="43.01864" lon="3.0081">
        <ele>22.728271484375</ele>
        <time>2011-02-28T15:44:48Z</time>
      </trkpt>
      <trkpt lat="43.01869" lon="3.00801">
        <ele>22.24755859375</ele>
        <time>2011-02-28T15:44:50Z</time>
      </trkpt>
      <trkpt lat="43.01881" lon="3.00794">
        <ele>21.766967773438</ele>
        <time>2011-02-28T15:44:54Z</time>
      </trkpt>
      <trkpt lat="43.0189" lon="3.008">
        <ele>21.286376953125</ele>
        <time>2011-02-28T15:44:59Z</time>
      </trkpt>
      <trkpt lat="43.019" lon="3.00803">
        <ele>21.286376953125</ele>
        <time>2011-02-28T15:45:04Z</time>
      </trkpt>
      <trkpt lat="43.01905" lon="3.00812">
        <ele>21.766967773438</ele>
        <time>2011-02-28T15:45:07Z</time>
      </trkpt>
      <trkpt lat="43.0192" lon="3.00832">
        <ele>21.766967773438</ele>
        <time>2011-02-28T15:45:13Z</time>
      </trkpt>
      <trkpt lat="43.01928" lon="3.00829">
        <ele>21.766967773438</ele>
        <time>2011-02-28T15:45:18Z</time>
      </trkpt>
      <trkpt lat="43.01944" lon="3.00803">
        <ele>19.36376953125</ele>
        <time>2011-02-28T15:45:26Z</time>
      </trkpt>
      <trkpt lat="43.01952" lon="3.00795">
        <ele>17.441162109375</ele>
        <time>2011-02-28T15:45:31Z</time>
      </trkpt>
      <trkpt lat="43.01953" lon="3.00793">
        <ele>17.441162109375</ele>
        <time>2011-02-28T15:45:33Z</time>
      </trkpt>
      <trkpt lat="43.01961" lon="3.00785">
        <ele>16.479736328125</ele>
        <time>2011-02-28T15:45:38Z</time>
      </trkpt>
      <trkpt lat="43.01969" lon="3.00773">
        <ele>14.557006835938</ele>
        <time>2011-02-28T15:45:44Z</time>
      </trkpt>
      <trkpt lat="43.01969" lon="3.00773">
        <ele>14.076416015625</ele>
        <time>2011-02-28T15:45:45Z</time>
      </trkpt>
      <trkpt lat="43.01967" lon="3.0077">
        <ele>13.595825195312</ele>
        <time>2011-02-28T15:45:51Z</time>
      </trkpt>
      <trkpt lat="43.01966" lon="3.0077">
        <ele>13.595825195312</ele>
        <time>2011-02-28T15:46:33Z</time>
      </trkpt>
      <trkpt lat="43.01966" lon="3.00774">
        <ele>13.595825195312</ele>
        <time>2011-02-28T15:46:38Z</time>
      </trkpt>
      <trkpt lat="43.01966" lon="3.00774">
        <ele>13.115112304688</ele>
        <time>2011-02-28T15:46:44Z</time>
      </trkpt>
      <trkpt lat="43.01963" lon="3.00777">
        <ele>13.595825195312</ele>
        <time>2011-02-28T15:46:50Z</time>
      </trkpt>
      <trkpt lat="43.01965" lon="3.00772">
        <ele>13.595825195312</ele>
        <time>2011-02-28T15:46:54Z</time>
      </trkpt>
      <trkpt lat="43.01965" lon="3.00768">
        <ele>13.595825195312</ele>
        <time>2011-02-28T15:46:56Z</time>
      </trkpt>
      <trkpt lat="43.0196" lon="3.00757">
        <ele>8.7891845703125</ele>
        <time>2011-02-28T15:47:03Z</time>
      </trkpt>
      <trkpt lat="43.01961" lon="3.00755">
        <ele>8.7891845703125</ele>
        <time>2011-02-28T15:47:05Z</time>
      </trkpt>
      <trkpt lat="43.01972" lon="3.00743">
        <ele>8.7891845703125</ele>
        <time>2011-02-28T15:47:12Z</time>
      </trkpt>
      <trkpt lat="43.01974" lon="3.00738">
        <ele>9.2698974609375</ele>
        <time>2011-02-28T15:47:14Z</time>
      </trkpt>
      <trkpt lat="43.01973" lon="3.00727">
        <ele>9.7506103515625</ele>
        <time>2011-02-28T15:47:18Z</time>
      </trkpt>
      <trkpt lat="43.01979" lon="3.00706">
        <ele>9.7506103515625</ele>
        <time>2011-02-28T15:47:25Z</time>
      </trkpt>
      <trkpt lat="43.01979" lon="3.00705">
        <ele>9.7506103515625</ele>
        <time>2011-02-28T15:47:33Z</time>
      </trkpt>
      <trkpt lat="43.01981" lon="3.00699">
        <ele>9.7506103515625</ele>
        <time>2011-02-28T15:47:47Z</time>
      </trkpt>
      <trkpt lat="43.01981" lon="3.00694">
        <ele>9.7506103515625</ele>
        <time>2011-02-28T15:47:51Z</time>
      </trkpt>
      <trkpt lat="43.01984" lon="3.0069">
        <ele>6.866455078125</ele>
        <time>2011-02-28T15:47:58Z</time>
      </trkpt>
      <trkpt lat="43.01984" lon="3.0069">
        <ele>6.866455078125</ele>
        <time>2011-02-28T15:48:03Z</time>
      </trkpt>
      <trkpt lat="43.01997" lon="3.00696">
        <ele>5.9052734375</ele>
        <time>2011-02-28T15:48:09Z</time>
      </trkpt>
      <trkpt lat="43.02026" lon="3.00719">
        <ele>3.982666015625</ele>
        <time>2011-02-28T15:48:18Z</time>
      </trkpt>
      <trkpt lat="43.0203" lon="3.00722">
        <ele>3.982666015625</ele>
        <time>2011-02-28T15:48:19Z</time>
      </trkpt>
      <trkpt lat="43.02079" lon="3.00742">
        <ele>2.5406494140625</ele>
        <time>2011-02-28T15:48:31Z</time>
      </trkpt>
      <trkpt lat="43.02111" lon="3.00749">
        <ele>3.021240234375</ele>
        <time>2011-02-28T15:48:39Z</time>
      </trkpt>
      <trkpt lat="43.0213" lon="3.00753">
        <ele>3.021240234375</ele>
        <time>2011-02-28T15:48:44Z</time>
      </trkpt>
      <trkpt lat="43.02133" lon="3.00738">
        <ele>3.021240234375</ele>
        <time>2011-02-28T15:48:49Z</time>
      </trkpt>
      <trkpt lat="43.02137" lon="3.00723">
        <ele>3.982666015625</ele>
        <time>2011-02-28T15:48:52Z</time>
      </trkpt>
      <trkpt lat="43.02149" lon="3.00683">
        <ele>5.424560546875</ele>
        <time>2011-02-28T15:49:01Z</time>
      </trkpt>
      <trkpt lat="43.02161" lon="3.00663">
        <ele>6.866455078125</ele>
        <time>2011-02-28T15:49:07Z</time>
      </trkpt>
      <trkpt lat="43.02167" lon="3.00659">
        <ele>7.34716796875</ele>
        <time>2011-02-28T15:49:09Z</time>
      </trkpt>
      <trkpt lat="43.0218" lon="3.00638">
        <ele>7.827880859375</ele>
        <time>2011-02-28T15:49:14Z</time>
      </trkpt>
      <trkpt lat="43.02194" lon="3.00598">
        <ele>7.827880859375</ele>
        <time>2011-02-28T15:49:22Z</time>
      </trkpt>
      <trkpt lat="43.02207" lon="3.0056">
        <ele>7.34716796875</ele>
        <time>2011-02-28T15:49:30Z</time>
      </trkpt>
      <trkpt lat="43.02221" lon="3.00525">
        <ele>6.866455078125</ele>
        <time>2011-02-28T15:49:37Z</time>
      </trkpt>
      <trkpt lat="43.02225" lon="3.00516">
        <ele>6.866455078125</ele>
        <time>2011-02-28T15:49:39Z</time>
      </trkpt>
      <trkpt lat="43.02239" lon="3.00499">
        <ele>6.866455078125</ele>
        <time>2011-02-28T15:49:43Z</time>
      </trkpt>
      <trkpt lat="43.02244" lon="3.0049">
        <ele>7.34716796875</ele>
        <time>2011-02-28T15:49:45Z</time>
      </trkpt>
      <trkpt lat="43.02262" lon="3.00458">
        <ele>9.2698974609375</ele>
        <time>2011-02-28T15:49:53Z</time>
      </trkpt>
      <trkpt lat="43.02275" lon="3.00429">
        <ele>9.7506103515625</ele>
        <time>2011-02-28T15:50:01Z</time>
      </trkpt>
      <trkpt lat="43.02291" lon="3.00394">
        <ele>9.2698974609375</ele>
        <time>2011-02-28T15:50:10Z</time>
      </trkpt>
      <trkpt lat="43.02303" lon="3.00365">
        <ele>7.827880859375</ele>
        <time>2011-02-28T15:50:18Z</time>
      </trkpt>
      <trkpt lat="43.02319" lon="3.00328">
        <ele>7.34716796875</ele>
        <time>2011-02-28T15:50:28Z</time>
      </trkpt>
      <trkpt lat="43.02336" lon="3.00291">
        <ele>7.34716796875</ele>
        <time>2011-02-28T15:50:38Z</time>
      </trkpt>
      <trkpt lat="43.02353" lon="3.00267">
        <ele>7.34716796875</ele>
        <time>2011-02-28T15:50:46Z</time>
      </trkpt>
      <trkpt lat="43.02364" lon="3.00255">
        <ele>7.827880859375</ele>
        <time>2011-02-28T15:50:52Z</time>
      </trkpt>
      <trkpt lat="43.02374" lon="3.00245">
        <ele>7.34716796875</ele>
        <time>2011-02-28T15:50:59Z</time>
      </trkpt>
      <trkpt lat="43.02394" lon="3.00226">
        <ele>6.866455078125</ele>
        <time>2011-02-28T15:51:09Z</time>
      </trkpt>
      <trkpt lat="43.02418" lon="3.00204">
        <ele>5.9052734375</ele>
        <time>2011-02-28T15:51:17Z</time>
      </trkpt>
      <trkpt lat="43.02435" lon="3.00187">
        <ele>4.94384765625</ele>
        <time>2011-02-28T15:51:22Z</time>
      </trkpt>
      <trkpt lat="43.02448" lon="3.0017">
        <ele>3.982666015625</ele>
        <time>2011-02-28T15:51:26Z</time>
      </trkpt>
      <trkpt lat="43.02467" lon="3.00131">
        <ele>3.021240234375</ele>
        <time>2011-02-28T15:51:35Z</time>
      </trkpt>
      <trkpt lat="43.02484" lon="3.00091">
        <ele>2.06005859375</ele>
        <time>2011-02-28T15:51:45Z</time>
      </trkpt>
      <trkpt lat="43.02505" lon="3.00043">
        <ele>1.579345703125</ele>
        <time>2011-02-28T15:51:57Z</time>
      </trkpt>
      <trkpt lat="43.02521" lon="3.00001">
        <ele>1.579345703125</ele>
        <time>2011-02-28T15:52:07Z</time>
      </trkpt>
      <trkpt lat="43.02543" lon="2.99949">
        <ele>1.0986328125</ele>
        <time>2011-02-28T15:52:19Z</time>
      </trkpt>
      <trkpt lat="43.02559" lon="2.99909">
        <ele>0.6180419921875</ele>
        <time>2011-02-28T15:52:29Z</time>
      </trkpt>
      <trkpt lat="43.02576" lon="2.99868">
        <ele>0.137451171875</ele>
        <time>2011-02-28T15:52:40Z</time>
      </trkpt>
      <trkpt lat="43.0259" lon="2.99835">
        <ele>-0.3433837890625</ele>
        <time>2011-02-28T15:52:49Z</time>
      </trkpt>
      <trkpt lat="43.02607" lon="2.99795">
        <ele>-0.8240966796875</ele>
        <time>2011-02-28T15:52:59Z</time>
      </trkpt>
      <trkpt lat="43.0262" lon="2.99765">
        <ele>-0.3433837890625</ele>
        <time>2011-02-28T15:53:07Z</time>
      </trkpt>
      <trkpt lat="43.02631" lon="2.99736">
        <ele>0.6180419921875</ele>
        <time>2011-02-28T15:53:15Z</time>
      </trkpt>
      <trkpt lat="43.0264" lon="2.997">
        <ele>1.0986328125</ele>
        <time>2011-02-28T15:53:24Z</time>
      </trkpt>
      <trkpt lat="43.02646" lon="2.9967">
        <ele>2.06005859375</ele>
        <time>2011-02-28T15:53:32Z</time>
      </trkpt>
      <trkpt lat="43.02648" lon="2.99638">
        <ele>2.06005859375</ele>
        <time>2011-02-28T15:53:41Z</time>
      </trkpt>
      <trkpt lat="43.02644" lon="2.99592">
        <ele>2.5406494140625</ele>
        <time>2011-02-28T15:53:52Z</time>
      </trkpt>
      <trkpt lat="43.02642" lon="2.99555">
        <ele>2.5406494140625</ele>
        <time>2011-02-28T15:54:01Z</time>
      </trkpt>
      <trkpt lat="43.02642" lon="2.99551">
        <ele>2.5406494140625</ele>
        <time>2011-02-28T15:54:02Z</time>
      </trkpt>
      <trkpt lat="43.02648" lon="2.99543">
        <ele>2.5406494140625</ele>
        <time>2011-02-28T15:54:07Z</time>
      </trkpt>
      <trkpt lat="43.02647" lon="2.99534">
        <ele>2.5406494140625</ele>
        <time>2011-02-28T15:54:11Z</time>
      </trkpt>
      <trkpt lat="43.02651" lon="2.99523">
        <ele>2.5406494140625</ele>
        <time>2011-02-28T15:54:16Z</time>
      </trkpt>
      <trkpt lat="43.02657" lon="2.99506">
        <ele>2.5406494140625</ele>
        <time>2011-02-28T15:54:20Z</time>
      </trkpt>
      <trkpt lat="43.02659" lon="2.99451">
        <ele>2.5406494140625</ele>
        <time>2011-02-28T15:54:31Z</time>
      </trkpt>
      <trkpt lat="43.02661" lon="2.99427">
        <ele>2.5406494140625</ele>
        <time>2011-02-28T15:54:38Z</time>
      </trkpt>
      <trkpt lat="43.02662" lon="2.99419">
        <ele>2.5406494140625</ele>
        <time>2011-02-28T15:54:42Z</time>
      </trkpt>
      <trkpt lat="43.02672" lon="2.994">
        <ele>2.5406494140625</ele>
        <time>2011-02-28T15:54:50Z</time>
      </trkpt>
      <trkpt lat="43.02679" lon="2.99373">
        <ele>2.5406494140625</ele>
        <time>2011-02-28T15:54:56Z</time>
      </trkpt>
      <trkpt lat="43.02673" lon="2.99342">
        <ele>3.021240234375</ele>
        <time>2011-02-28T15:55:03Z</time>
      </trkpt>
      <trkpt lat="43.0267" lon="2.99315">
        <ele>3.021240234375</ele>
        <time>2011-02-28T15:55:09Z</time>
      </trkpt>
      <trkpt lat="43.02679" lon="2.99276">
        <ele>3.021240234375</ele>
        <time>2011-02-28T15:55:18Z</time>
      </trkpt>
      <trkpt lat="43.0269" lon="2.99234">
        <ele>2.5406494140625</ele>
        <time>2011-02-28T15:55:28Z</time>
      </trkpt>
      <trkpt lat="43.02704" lon="2.9918">
        <ele>3.982666015625</ele>
        <time>2011-02-28T15:55:41Z</time>
      </trkpt>
      <trkpt lat="43.02715" lon="2.99139">
        <ele>4.4632568359375</ele>
        <time>2011-02-28T15:55:52Z</time>
      </trkpt>
      <trkpt lat="43.02718" lon="2.99123">
        <ele>4.4632568359375</ele>
        <time>2011-02-28T15:55:58Z</time>
      </trkpt>
      <trkpt lat="43.02726" lon="2.99092">
        <ele>4.4632568359375</ele>
        <time>2011-02-28T15:56:07Z</time>
      </trkpt>
      <trkpt lat="43.02736" lon="2.99055">
        <ele>4.94384765625</ele>
        <time>2011-02-28T15:56:16Z</time>
      </trkpt>
      <trkpt lat="43.02748" lon="2.99012">
        <ele>4.94384765625</ele>
        <time>2011-02-28T15:56:26Z</time>
      </trkpt>
      <trkpt lat="43.02756" lon="2.9898">
        <ele>5.424560546875</ele>
        <time>2011-02-28T15:56:34Z</time>
      </trkpt>
      <trkpt lat="43.02762" lon="2.98956">
        <ele>5.9052734375</ele>
        <time>2011-02-28T15:56:43Z</time>
      </trkpt>
      <trkpt lat="43.02765" lon="2.98934">
        <ele>5.9052734375</ele>
        <time>2011-02-28T15:56:51Z</time>
      </trkpt>
      <trkpt lat="43.02767" lon="2.98902">
        <ele>6.3858642578125</ele>
        <time>2011-02-28T15:56:59Z</time>
      </trkpt>
      <trkpt lat="43.02767" lon="2.98865">
        <ele>5.9052734375</ele>
        <time>2011-02-28T15:57:07Z</time>
      </trkpt>
      <trkpt lat="43.02765" lon="2.98844">
        <ele>6.3858642578125</ele>
        <time>2011-02-28T15:57:12Z</time>
      </trkpt>
      <trkpt lat="43.02766" lon="2.98817">
        <ele>5.9052734375</ele>
        <time>2011-02-28T15:57:19Z</time>
      </trkpt>
      <trkpt lat="43.02772" lon="2.98792">
        <ele>4.94384765625</ele>
        <time>2011-02-28T15:57:27Z</time>
      </trkpt>
      <trkpt lat="43.02778" lon="2.98769">
        <ele>4.94384765625</ele>
        <time>2011-02-28T15:57:35Z</time>
      </trkpt>
      <trkpt lat="43.02787" lon="2.98747">
        <ele>6.3858642578125</ele>
        <time>2011-02-28T15:57:44Z</time>
      </trkpt>
      <trkpt lat="43.02796" lon="2.9872">
        <ele>6.3858642578125</ele>
        <time>2011-02-28T15:57:52Z</time>
      </trkpt>
      <trkpt lat="43.02804" lon="2.98696">
        <ele>6.3858642578125</ele>
        <time>2011-02-28T15:57:58Z</time>
      </trkpt>
      <trkpt lat="43.02818" lon="2.98663">
        <ele>5.424560546875</ele>
        <time>2011-02-28T15:58:06Z</time>
      </trkpt>
      <trkpt lat="43.0283" lon="2.9864">
        <ele>4.4632568359375</ele>
        <time>2011-02-28T15:58:11Z</time>
      </trkpt>
      <trkpt lat="43.02848" lon="2.98598">
        <ele>4.4632568359375</ele>
        <time>2011-02-28T15:58:20Z</time>
      </trkpt>
      <trkpt lat="43.02858" lon="2.98563">
        <ele>3.501953125</ele>
        <time>2011-02-28T15:58:27Z</time>
      </trkpt>
      <trkpt lat="43.02864" lon="2.98531">
        <ele>3.501953125</ele>
        <time>2011-02-28T15:58:34Z</time>
      </trkpt>
      <trkpt lat="43.02868" lon="2.98505">
        <ele>4.4632568359375</ele>
        <time>2011-02-28T15:58:40Z</time>
      </trkpt>
      <trkpt lat="43.02874" lon="2.98466">
        <ele>4.4632568359375</ele>
        <time>2011-02-28T15:58:49Z</time>
      </trkpt>
      <trkpt lat="43.0288" lon="2.98417">
        <ele>4.4632568359375</ele>
        <time>2011-02-28T15:59:00Z</time>
      </trkpt>
      <trkpt lat="43.02888" lon="2.98372">
        <ele>3.982666015625</ele>
        <time>2011-02-28T15:59:11Z</time>
      </trkpt>
      <trkpt lat="43.02894" lon="2.98346">
        <ele>3.982666015625</ele>
        <time>2011-02-28T15:59:19Z</time>
      </trkpt>
      <trkpt lat="43.029" lon="2.98326">
        <ele>4.4632568359375</ele>
        <time>2011-02-28T15:59:26Z</time>
      </trkpt>
      <trkpt lat="43.02905" lon="2.98304">
        <ele>4.94384765625</ele>
        <time>2011-02-28T15:59:34Z</time>
      </trkpt>
      <trkpt lat="43.02912" lon="2.98282">
        <ele>6.3858642578125</ele>
        <time>2011-02-28T15:59:42Z</time>
      </trkpt>
      <trkpt lat="43.02915" lon="2.98272">
        <ele>6.3858642578125</ele>
        <time>2011-02-28T15:59:48Z</time>
      </trkpt>
      <trkpt lat="43.02917" lon="2.98255">
        <ele>5.9052734375</ele>
        <time>2011-02-28T15:59:54Z</time>
      </trkpt>
      <trkpt lat="43.0292" lon="2.9824">
        <ele>7.34716796875</ele>
        <time>2011-02-28T15:59:59Z</time>
      </trkpt>
      <trkpt lat="43.02925" lon="2.98214">
        <ele>9.7506103515625</ele>
        <time>2011-02-28T16:00:06Z</time>
      </trkpt>
      <trkpt lat="43.0293" lon="2.98205">
        <ele>10.711791992188</ele>
        <time>2011-02-28T16:00:11Z</time>
      </trkpt>
      <trkpt lat="43.02931" lon="2.98204">
        <ele>10.711791992188</ele>
        <time>2011-02-28T16:00:16Z</time>
      </trkpt>
      <trkpt lat="43.02932" lon="2.98203">
        <ele>10.231201171875</ele>
        <time>2011-02-28T16:00:17Z</time>
      </trkpt>
      <trkpt lat="43.02931" lon="2.98207">
        <ele>9.7506103515625</ele>
        <time>2011-02-28T16:00:22Z</time>
      </trkpt>
      <trkpt lat="43.02928" lon="2.98196">
        <ele>9.7506103515625</ele>
        <time>2011-02-28T16:00:25Z</time>
      </trkpt>
      <trkpt lat="43.02929" lon="2.98192">
        <ele>10.231201171875</ele>
        <time>2011-02-28T16:00:26Z</time>
      </trkpt>
      <trkpt lat="43.02921" lon="2.98176">
        <ele>11.192504882812</ele>
        <time>2011-02-28T16:00:32Z</time>
      </trkpt>
      <trkpt lat="43.02907" lon="2.98169">
        <ele>15.037719726562</ele>
        <time>2011-02-28T16:00:38Z</time>
      </trkpt>
      <trkpt lat="43.02905" lon="2.98167">
        <ele>15.9990234375</ele>
        <time>2011-02-28T16:00:42Z</time>
      </trkpt>
      <trkpt lat="43.02908" lon="2.98168">
        <ele>15.518432617188</ele>
        <time>2011-02-28T16:00:44Z</time>
      </trkpt>
      <trkpt lat="43.02922" lon="2.98164">
        <ele>15.518432617188</ele>
        <time>2011-02-28T16:00:51Z</time>
      </trkpt>
      <trkpt lat="43.02927" lon="2.98145">
        <ele>16.479736328125</ele>
        <time>2011-02-28T16:00:58Z</time>
      </trkpt>
      <trkpt lat="43.02925" lon="2.98125">
        <ele>18.883056640625</ele>
        <time>2011-02-28T16:01:05Z</time>
      </trkpt>
      <trkpt lat="43.02929" lon="2.98109">
        <ele>20.324951171875</ele>
        <time>2011-02-28T16:01:10Z</time>
      </trkpt>
      <trkpt lat="43.02929" lon="2.98105">
        <ele>20.8056640625</ele>
        <time>2011-02-28T16:01:11Z</time>
      </trkpt>
      <trkpt lat="43.02941" lon="2.98089">
        <ele>24.170288085938</ele>
        <time>2011-02-28T16:01:16Z</time>
      </trkpt>
      <trkpt lat="43.02941" lon="2.98085">
        <ele>25.131713867188</ele>
        <time>2011-02-28T16:01:17Z</time>
      </trkpt>
      <trkpt lat="43.02939" lon="2.98071">
        <ele>28.976928710938</ele>
        <time>2011-02-28T16:01:21Z</time>
      </trkpt>
      <trkpt lat="43.02945" lon="2.9805">
        <ele>36.186767578125</ele>
        <time>2011-02-28T16:01:28Z</time>
      </trkpt>
      <trkpt lat="43.02946" lon="2.98044">
        <ele>39.070678710938</ele>
        <time>2011-02-28T16:01:31Z</time>
      </trkpt>
      <trkpt lat="43.02949" lon="2.98039">
        <ele>38.590087890625</ele>
        <time>2011-02-28T16:01:34Z</time>
      </trkpt>
      <trkpt lat="43.02954" lon="2.98016">
        <ele>35.225463867188</ele>
        <time>2011-02-28T16:01:40Z</time>
      </trkpt>
      <trkpt lat="43.02956" lon="2.97997">
        <ele>36.186767578125</ele>
        <time>2011-02-28T16:01:45Z</time>
      </trkpt>
      <trkpt lat="43.02957" lon="2.97988">
        <ele>37.148071289062</ele>
        <time>2011-02-28T16:01:48Z</time>
      </trkpt>
      <trkpt lat="43.02947" lon="2.9798">
        <ele>39.55126953125</ele>
        <time>2011-02-28T16:01:53Z</time>
      </trkpt>
      <trkpt lat="43.02949" lon="2.97965">
        <ele>47.241821289062</ele>
        <time>2011-02-28T16:01:59Z</time>
      </trkpt>
      <trkpt lat="43.02951" lon="2.9796">
        <ele>50.1259765625</ele>
        <time>2011-02-28T16:02:01Z</time>
      </trkpt>
      <trkpt lat="43.02953" lon="2.97953">
        <ele>53.490478515625</ele>
        <time>2011-02-28T16:02:03Z</time>
      </trkpt>
      <trkpt lat="43.02961" lon="2.97924">
        <ele>60.700317382812</ele>
        <time>2011-02-28T16:02:08Z</time>
      </trkpt>
      <trkpt lat="43.02967" lon="2.97882">
        <ele>66.948974609375</ele>
        <time>2011-02-28T16:02:14Z</time>
      </trkpt>
      <trkpt lat="43.0297" lon="2.97868">
        <ele>66.948974609375</ele>
        <time>2011-02-28T16:02:16Z</time>
      </trkpt>
      <trkpt lat="43.02973" lon="2.97842">
        <ele>65.987670898438</ele>
        <time>2011-02-28T16:02:22Z</time>
      </trkpt>
      <trkpt lat="43.02983" lon="2.9782">
        <ele>63.584350585938</ele>
        <time>2011-02-28T16:02:28Z</time>
      </trkpt>
      <trkpt lat="43.02985" lon="2.97807">
        <ele>60.700317382812</ele>
        <time>2011-02-28T16:02:31Z</time>
      </trkpt>
      <trkpt lat="43.02987" lon="2.97784">
        <ele>57.335815429688</ele>
        <time>2011-02-28T16:02:35Z</time>
      </trkpt>
      <trkpt lat="43.02989" lon="2.97752">
        <ele>53.490478515625</ele>
        <time>2011-02-28T16:02:43Z</time>
      </trkpt>
      <trkpt lat="43.02991" lon="2.97724">
        <ele>52.048583984375</ele>
        <time>2011-02-28T16:02:50Z</time>
      </trkpt>
      <trkpt lat="43.02992" lon="2.97695">
        <ele>53.009765625</ele>
        <time>2011-02-28T16:02:56Z</time>
      </trkpt>
      <trkpt lat="43.02993" lon="2.97678">
        <ele>53.490478515625</ele>
        <time>2011-02-28T16:03:00Z</time>
      </trkpt>
      <trkpt lat="43.02997" lon="2.97669">
        <ele>53.490478515625</ele>
        <time>2011-02-28T16:03:03Z</time>
      </trkpt>
      <trkpt lat="43.03005" lon="2.97663">
        <ele>53.490478515625</ele>
        <time>2011-02-28T16:03:09Z</time>
      </trkpt>
      <trkpt lat="43.03006" lon="2.97663">
        <ele>55.4130859375</ele>
        <time>2011-02-28T16:03:17Z</time>
      </trkpt>
      <trkpt lat="43.03006" lon="2.97663">
        <ele>56.855102539062</ele>
        <time>2011-02-28T16:05:05Z</time>
      </trkpt>
    </trkseg>
  </trk>
</gpx>